[[[{"header":{"parameterUnit":"kt","parameterCategory":2,"dx":1,"dy":1,"la1":29.587661999999998,"la2":31.0,"lo1":-88.76705300000003,"lo2":-86.6583820000003,"nx":115,"ny":88,"refTime":"2022-09-30T18:00:00:Z","depth":0,"parameterNumber":1,"parameterNumberName":"U-component_of_WINDS"},"data":[8.182,8.182,8.182,8.1523,8.1022,8.0671,8.0165,7.9657,7.9298,7.9145,7.92,7.9309,8.0347,8.1767,8.3842,8.4771,8.488,8.5535,8.6091,8.6264,8.5637,8.5527,8.5332,8.4818,8.4322,8.3245,8.1964,8.1003,8.0082,7.8412,7.6666,7.5453,7.3759,7.2462,7.1414,7.0782,7.0093,6.9231,6.8695,6.8265,6.7401,6.7075,6.7075,6.7287,6.733,6.7415,6.7475,6.7091,6.6348,6.4705,6.2412,5.9702,5.7668,5.6114,5.5129,5.4316,5.3648,5.3336,5.3418,5.3235,5.3152,5.312,5.2859,5.2781,5.2812,5.3003,5.3003,5.3003,5.3003,5.3003,5.2938,5.2873,5.2614,5.2324,5.161,5.0437,4.8734,4.6823,4.5166,4.3835,4.2699,4.1962,4.1291,4.0979,4.0575,4.0575,4.0575,4.0575,4.0642,4.044,4.0305,4.0305,4.0305,4.0238,4.0238,4.0238,4.0238,4.0238,4.0238,4.0238,4.0238,4.0238,4.0402,4.0543,4.0755,4.1037,4.139,4.1601,4.1977,4.2236,4.2494,4.28,4.3105,4.3364,4.3364,8.182,8.182,8.182,8.1523,8.1022,8.0671,8.0165,7.9699,7.9298,7.9187,7.9351,8.0237,8.204,8.3405,8.4552,8.5317,8.5863,8.6146,8.6255,8.6173,8.5844,8.5432,8.4971,8.4508,8.3668,8.2535,8.0955,7.9838,7.8758,7.7066,7.5602,7.4585,7.3247,7.1939,7.1414,7.0782,6.9987,6.9124,6.8642,6.8157,6.7563,6.7075,6.75,6.7924,6.8361,6.8743,6.9085,6.8762,6.7442,6.5186,6.1923,5.9258,5.7072,5.5689,5.4934,5.4446,5.3857,5.3912,5.3951,5.3751,5.3629,5.3402,5.3042,5.2907,5.2843,5.2873,5.2873,5.2873,5.2873,5.2873,5.2873,5.2809,5.2485,5.2095,5.1024,4.9885,4.7653,4.5565,4.4102,4.2766,4.1895,4.1157,4.071,4.044,4.0305,4.0238,4.0238,4.0238,4.0238,4.0238,4.0238,4.0238,4.0238,4.0238,4.0238,4.0238,4.0238,4.0238,4.0238,4.0238,4.0261,4.0402,4.0543,4.0755,4.1084,4.139,4.1719,4.2142,4.233,4.2541,4.2823,4.3105,4.3364,4.3364,4.3364,8.182,8.182,8.182,8.1523,8.1103,8.086,8.0411,7.974,7.9547,7.9794,8.0659,8.1568,8.2859,8.4334,8.5262,8.5972,8.6191,8.6309,8.6173,8.5944,8.5524,8.5064,8.4508,8.4002,8.3056,8.2012,8.0325,7.8609,7.7316,7.5704,7.453,7.3655,7.2826,7.1782,7.094,7.0676,6.9987,6.8856,6.8856,6.8157,6.7184,6.716,6.7542,6.8094,6.8518,6.8775,6.8986,6.833,6.6925,6.4611,6.2219,5.9547,5.75,5.6138,5.564,5.5165,5.4811,5.4603,5.4534,5.439,5.4169,5.3655,5.3231,5.2938,5.2873,5.2873,5.2873,5.2873,5.2873,5.2873,5.2873,5.2809,5.2485,5.1705,5.0633,4.9128,4.6994,4.4767,4.29,4.1761,4.1248,4.0642,4.0507,4.0238,4.0238,4.0238,4.0238,4.0238,4.0238,4.0238,4.0238,4.0238,4.0238,4.0238,4.0238,4.0238,4.0238,4.0238,4.0238,4.0285,4.0355,4.052,4.0755,4.1108,4.1437,4.1789,4.2212,4.2682,4.2917,4.2894,4.3129,4.3364,4.3364,4.3364,4.3479,8.182,8.182,8.182,8.1603,8.1224,8.1103,8.0641,8.0069,8.0083,8.0733,8.1957,8.2659,8.3701,8.5034,8.5918,8.6191,8.6209,8.6127,8.5899,8.5615,8.521,8.4601,8.4049,8.3245,8.225,8.1196,7.9838,7.8064,7.6463,7.5144,7.3965,7.2878,7.2462,7.1624,7.0729,7.0623,6.9987,6.891,6.8749,6.8211,6.7323,6.7287,6.7839,6.8518,6.9015,6.9338,6.9298,6.8468,6.6619,6.4703,6.2795,6.0621,5.8314,5.7252,5.6567,5.6133,5.586,5.5667,5.5497,5.5286,5.481,5.4263,5.3618,5.3166,5.2938,5.2873,5.2873,5.2873,5.2873,5.2873,5.2809,5.2744,5.2485,5.138,5.027,4.8405,4.6492,4.4102,4.1761,4.1046,4.0575,4.0373,4.0305,4.0238,4.0238,4.0238,4.0238,4.0238,4.0238,4.0238,4.0238,4.0238,4.0238,4.0238,4.0238,4.0238,4.0238,4.0238,4.0285,4.0355,4.0449,4.0731,4.106,4.1437,4.1883,4.2306,4.2729,4.3129,4.3223,4.3223,4.3364,4.3364,4.3364,4.2918,4.3269,8.182,8.182,8.182,8.178,8.17,8.1265,8.1022,8.0981,8.09,8.1813,8.3022,8.3291,8.4304,8.5744,8.6146,8.6309,8.6264,8.5844,8.557,8.5478,8.474,8.3949,8.3245,8.2393,8.1196,7.9787,7.8511,7.7216,7.5653,7.453,7.3454,7.2305,7.2103,7.1579,7.0684,7.0526,6.9987,6.9071,6.8695,6.8395,6.7657,6.7924,6.8786,6.9663,7.0027,7.0308,7.0592,6.9557,6.7746,6.5698,6.3636,6.1594,5.9649,5.8138,5.7362,5.6868,5.6516,5.635,5.6336,5.5994,5.5452,5.4874,5.4198,5.3554,5.3132,5.2938,5.2873,5.2873,5.2873,5.2873,5.2744,5.2679,5.1965,5.0858,4.9353,4.7417,4.5565,4.3501,4.156,4.0642,4.0305,4.0305,4.0238,4.0238,4.0238,4.0238,4.0238,4.0238,4.0238,4.0238,4.0238,4.0238,4.0238,4.0238,4.0238,4.0238,4.0238,4.0308,4.0332,4.0449,4.0849,4.1131,4.1366,4.186,4.2377,4.28,4.3058,4.3176,4.3317,4.3218,4.3146,4.3291,4.2918,4.2334,4.2354,8.182,8.182,8.182,8.182,8.178,8.1603,8.1523,8.1482,8.1184,8.2034,8.361,8.3518,8.4447,8.6127,8.6355,8.6309,8.6209,8.5753,8.534,8.5017,8.4136,8.3292,8.2345,8.1341,8.0033,7.8708,7.7466,7.6311,7.5144,7.4124,7.3247,7.2207,7.2103,7.1474,7.0843,7.042,6.9881,6.9187,6.8728,6.8448,6.8247,6.8276,6.9422,7.0328,7.0376,7.0317,7.0196,6.8526,6.6657,6.4724,6.3281,6.1709,6.0605,5.9846,5.9199,5.8049,5.7529,5.7129,5.6886,5.6381,5.5933,5.5387,5.452,5.3876,5.352,5.3132,5.2938,5.2873,5.2873,5.2809,5.2679,5.242,5.138,5.03,4.8434,4.6492,4.4634,4.2766,4.156,4.0507,4.0238,4.0238,4.0238,4.0238,4.0238,4.0238,4.0238,4.0238,4.0238,4.0238,4.0238,4.0238,4.0238,4.0238,4.0238,4.0238,4.0426,4.059,4.0637,4.0919,4.1343,4.1648,4.186,4.2306,4.28,4.3011,4.3223,4.3317,4.3073,4.2759,4.2564,4.2175,4.167,4.1069,4.0867,8.182,8.182,8.182,8.182,8.182,8.182,8.182,8.1837,8.1932,8.2659,8.4217,8.4108,8.5151,8.6427,8.64,8.6355,8.6027,8.5661,8.5156,8.4508,8.3715,8.263,8.1533,8.0374,7.8955,7.7616,7.6463,7.5399,7.4483,7.4124,7.3247,7.2357,7.2155,7.1519,7.094,7.0526,6.9774,6.9168,6.9248,6.8836,6.8607,6.9125,6.9833,7.0418,7.0384,6.9666,6.8965,6.7338,6.5633,6.3937,6.265,6.1779,6.1118,6.0993,6.0617,5.9458,5.851,5.7779,5.7241,5.6667,5.6189,5.574,5.4938,5.4327,5.3941,5.3489,5.2873,5.2873,5.2873,5.2614,5.242,5.1965,5.1184,4.9681,4.7879,4.5963,4.4102,4.2431,4.1315,4.044,4.0238,4.0238,4.0238,4.0238,4.0238,4.0238,4.0238,4.0238,4.0238,4.0238,4.0238,4.0238,4.0238,4.0238,4.0238,4.0473,4.0708,4.0966,4.1155,4.1413,4.1813,4.2118,4.233,4.2635,4.2988,4.3223,4.3291,4.3047,4.2802,4.2414,4.1689,4.1013,4.0262,3.9311,3.8811,8.182,8.182,8.182,8.182,8.182,8.182,8.182,8.1933,8.2949,8.39,8.4742,8.5372,8.6056,8.6769,8.6537,8.63,8.6173,8.524,8.4917,8.4408,8.3245,8.2155,8.0907,7.9544,7.8064,7.6614,7.55,7.4739,7.4021,7.3867,7.3299,7.2468,7.2207,7.1519,7.0887,7.0464,6.9969,6.9518,6.9532,6.9494,6.9447,7.0088,7.0664,7.0517,7.0079,6.9303,6.7803,6.6244,6.4529,6.3332,6.2339,6.1716,6.1243,6.1056,6.0617,5.9864,5.8729,5.8223,5.7715,5.7143,5.6667,5.6189,5.5323,5.5099,5.4616,5.3779,5.3132,5.2938,5.2679,5.242,5.19,5.1249,5.0567,4.8734,4.6955,4.5233,4.3368,4.2096,4.0979,4.0507,4.0305,4.0238,4.0238,4.0238,4.0238,4.0238,4.0238,4.0238,4.0238,4.0238,4.0238,4.0238,4.0308,4.0285,4.052,4.0825,4.1108,4.1484,4.1672,4.193,4.2283,4.2612,4.2753,4.2941,4.3223,4.3146,4.2878,4.2656,4.2259,4.1596,4.0724,3.9787,3.762,3.6845,3.6453,8.182,8.182,8.182,8.182,8.182,8.182,8.182,8.2046,8.3062,8.4054,8.4827,8.5626,8.6366,8.6749,8.6582,8.6309,8.6218,8.524,8.4779,8.4501,8.3009,8.1673,8.0371,7.9004,7.7416,7.6008,7.4991,7.4329,7.3867,7.3867,7.3557,7.304,7.2514,7.1624,7.094,7.0598,7.0253,7.0009,7.0086,7.0251,7.0484,7.0809,7.1282,7.0927,7.0095,6.8906,6.7156,6.5388,6.3703,6.2588,6.1779,6.1243,6.1118,6.1056,6.093,6.0617,5.9738,5.8919,5.8096,5.7398,5.6986,5.6539,5.6061,5.5548,5.4874,5.4037,5.3456,5.2809,5.242,5.19,5.1089,4.9849,4.8734,4.6796,4.5166,4.3768,4.2163,4.1358,4.0373,4.0373,4.0238,4.0238,4.0238,4.0238,4.0238,4.0238,4.0238,4.0238,4.0238,4.0238,4.0238,4.0379,4.0473,4.0684,4.0943,4.1249,4.1625,4.1977,4.2236,4.2494,4.28,4.2941,4.3129,4.3293,4.3172,4.2928,4.2537,4.1718,4.0856,4.017,3.9119,3.7157,3.5205,3.4462,3.4067,8.182,8.182,8.182,8.182,8.182,8.182,8.182,8.2046,8.3118,8.4363,8.5501,8.6183,8.6853,8.6894,8.6663,8.6309,8.6173,8.5332,8.4818,8.454,8.2956,8.1529,8.0031,7.8609,7.6915,7.5653,7.4684,7.4124,7.3867,7.3867,7.3867,7.3557,7.2624,7.1736,7.1249,7.1017,7.0696,7.0381,7.088,7.1115,7.1336,7.1572,7.1647,7.1251,7.0003,6.8365,6.6244,6.4591,6.3022,6.1779,6.143,6.1118,6.1056,6.1056,6.0993,6.0868,6.068,5.9801,5.8855,5.7779,5.7304,5.6794,5.6284,5.5676,5.5066,5.4327,5.3425,5.2679,5.187,5.0959,5.0045,4.8734,4.7219,4.5299,4.3835,4.2431,4.1584,4.071,4.0238,4.0238,4.0238,4.0238,4.0238,4.0238,4.0238,4.0238,4.0238,4.0238,4.0567,4.0543,4.0567,4.0731,4.0943,4.1155,4.1413,4.1789,4.2165,4.2306,4.254,4.275,4.301,4.3223,4.3195,4.2736,4.2759,4.2709,4.2044,4.1196,3.9914,3.7871,3.5726,3.3726,3.2565,3.1978,3.1627,8.182,8.182,8.182,8.182,8.182,8.182,8.182,8.199,8.3062,8.4868,8.6897,8.7405,8.7686,8.7418,8.6753,8.6446,8.6218,8.5707,8.5194,8.4501,8.3098,8.1673,8.008,7.8312,7.6664,7.545,7.453,7.3969,7.3867,7.3867,7.3867,7.3505,7.293,7.2148,7.2037,7.199,7.1296,7.0665,7.2123,7.1994,7.192,7.2182,7.1691,7.0978,6.9686,6.7761,6.5694,6.3951,6.265,6.1493,6.1118,6.1056,6.1056,6.1056,6.1056,6.1056,6.0993,6.0617,6.0025,5.8729,5.7842,5.7143,5.6603,5.5869,5.5066,5.4327,5.3554,5.2225,5.1219,5.011,4.864,4.7285,4.583,4.4302,4.31,4.192,4.1248,4.0507,4.0305,4.0238,4.0238,4.0238,4.0238,4.0238,4.0238,4.0308,4.0261,4.052,4.0919,4.106,4.1155,4.1343,4.1601,4.1626,4.1555,4.2164,4.2445,4.2586,4.2606,4.2527,4.2713,4.2686,4.2468,4.2177,4.1976,4.1622,4.1123,4.0516,3.807,3.5695,3.3088,3.1324,3.0173,2.9497,2.9242,8.182,8.182,8.182,8.182,8.182,8.182,8.182,8.2046,8.3062,8.4966,8.7251,8.7924,8.8053,8.7652,8.7024,8.6718,8.6309,8.5799,8.5294,8.4362,8.3292,8.182,8.0031,7.8312,7.6561,7.5399,7.4432,7.3867,7.3867,7.3867,7.3867,7.366,7.3138,7.2514,7.2219,7.199,7.1694,7.1517,7.2402,7.2727,7.2416,7.2522,7.2061,7.0859,6.9566,6.758,6.5449,6.3827,6.2427,6.1555,6.1056,6.1056,6.1056,6.1056,6.1056,6.1056,6.0993,6.0743,6.0213,5.9486,5.8919,5.7842,5.7113,5.6156,5.5323,5.4809,5.3683,5.216,5.0728,4.9193,4.7192,4.5896,4.4435,4.31,4.1895,4.1449,4.0777,4.0507,4.0305,4.0238,4.0238,4.0238,4.0238,4.0238,4.0402,4.0731,4.0849,4.1202,4.1507,4.1625,4.1672,4.1836,4.2,4.1881,4.1666,4.1774,4.1906,4.2043,4.1817,4.1881,4.1825,4.1594,4.1375,4.1108,4.082,4.0538,3.9637,3.8296,3.6062,3.3554,3.1797,3.0028,2.8936,2.8213,2.765,8.182,8.182,8.182,8.182,8.182,8.182,8.2103,8.2667,8.3795,8.5488,8.735,8.8056,8.8275,8.7875,8.7439,8.6899,8.6582,8.6127,8.5432,8.4547,8.3433,8.1964,8.0082,7.8312,7.6561,7.5399,7.4381,7.3867,7.3867,7.3867,7.3867,7.366,7.3293,7.2722,7.2415,7.2249,7.2476,7.2695,7.3269,7.3462,7.3177,7.2826,7.2221,7.1097,6.9865,6.8003,6.5877,6.4197,6.2774,6.1779,6.1216,6.1118,6.1056,6.1056,6.1056,6.1056,6.1056,6.0868,6.0492,6.015,5.971,5.8666,5.7842,5.6794,5.5612,5.5131,5.3972,5.216,5.0372,4.8405,4.636,4.4634,4.3234,4.1828,4.0979,4.071,4.044,4.0373,4.0238,4.0238,4.0238,4.0261,4.0261,4.0285,4.0731,4.1202,4.1554,4.1813,4.2024,4.2142,4.2069,4.2137,4.2179,4.2007,4.1359,4.1368,4.142,4.1188,4.088,4.0825,4.0798,4.0507,4.005,3.985,3.9593,3.8797,3.766,3.6196,3.4282,3.2001,3.0161,2.8775,2.7986,2.7262,2.6955,8.182,8.182,8.182,8.182,8.182,8.182,8.2498,8.3554,8.4868,8.6109,8.7308,8.8099,8.8541,8.8231,8.7708,8.7204,8.7034,8.6582,8.5753,8.4733,8.3715,8.2202,8.0177,7.8263,7.6561,7.5399,7.4376,7.3918,7.3867,7.3867,7.3867,7.3815,7.3449,7.2872,7.2605,7.2803,7.3211,7.3905,7.4152,7.4184,7.3587,7.3002,7.2398,7.1571,7.0443,6.8966,6.6974,6.5143,6.3543,6.2152,6.1591,6.1243,6.1056,6.1056,6.1056,6.1056,6.1056,6.0993,6.0868,6.0492,6.015,5.971,5.8792,5.7431,5.5997,5.5323,5.4037,5.2095,5.0009,4.7879,4.5697,4.3768,4.2431,4.1248,4.0642,4.0373,4.0305,4.0238,4.0238,4.0238,4.0285,4.0355,4.0379,4.0708,4.1131,4.1719,4.2095,4.2283,4.2447,4.2396,4.2318,4.2119,4.2158,4.1639,4.1004,4.0247,3.9691,3.9338,3.8707,3.8859,3.9064,3.903,3.8433,3.8175,3.7607,3.6867,3.587,3.3442,3.1402,2.9887,2.879,2.7906,2.7021,2.6807,2.6535,8.182,8.182,8.182,8.182,8.182,8.182,8.2498,8.3724,8.498,8.6264,8.735,8.8461,8.8761,8.8452,8.8142,8.7652,8.7124,8.6944,8.6027,8.4825,8.3662,8.225,8.0226,7.8263,7.6513,7.5348,7.4376,7.3918,7.3867,7.3867,7.3867,7.3867,7.3609,7.3456,7.3326,7.3487,7.3891,7.4666,7.476,7.4387,7.3746,7.306,7.2398,7.169,7.08,6.9566,6.7761,6.6122,6.4468,6.3084,6.2215,6.1591,6.1181,6.1118,6.1056,6.1056,6.1056,6.1056,6.0993,6.0868,6.059,6.0025,5.9142,5.8067,5.6444,5.5323,5.4166,5.216,4.9914,4.7549,4.5233,4.3368,4.1987,4.0979,4.0373,4.0305,4.0238,4.0261,4.0261,4.0332,4.0449,4.0496,4.0919,4.1202,4.1648,4.2212,4.2494,4.2659,4.2606,4.2501,4.2299,4.183,4.1469,4.0507,3.9627,3.8694,3.7843,3.7168,3.6351,3.6083,3.6197,3.6254,3.6348,3.6019,3.542,3.4563,3.3329,3.0705,2.8227,2.8043,2.7668,2.6914,2.6591,2.6467,2.6463,8.182,8.182,8.182,8.182,8.1877,8.2385,8.3328,8.4473,8.5756,8.6998,8.8127,8.8974,8.9068,8.8761,8.8496,8.8053,8.7484,8.7169,8.6255,8.4825,8.3762,8.2298,8.0226,7.8213,7.6612,7.545,7.4479,7.3918,7.3867,7.3867,7.3867,7.3867,7.381,7.3856,7.3632,7.412,7.4597,7.497,7.5245,7.4968,7.4096,7.3177,7.2574,7.2162,7.1512,7.0502,6.9086,6.764,6.5939,6.4406,6.296,6.2152,6.1591,6.1181,6.1056,6.1056,6.1056,6.1056,6.1056,6.1056,6.0805,6.0402,5.9836,5.8861,5.7465,5.5964,5.423,5.242,5.0045,4.7483,4.5033,4.3234,4.1761,4.0777,4.0305,4.0238,4.0238,4.0261,4.0402,4.0496,4.0661,4.1202,4.1695,4.1977,4.2377,4.2964,4.3364,4.3505,4.3473,4.3076,4.2459,4.1669,4.05,3.9256,3.8115,3.6942,3.5909,3.4997,3.4164,3.4193,3.3935,3.3693,3.3989,3.3902,3.3027,3.1876,3.0642,2.9022,2.779,2.7117,2.6563,2.6642,2.672,2.6565,2.6618,8.182,8.182,8.199,8.199,8.2215,8.3288,8.4529,8.577,8.6772,8.8014,8.9087,8.9256,8.9256,8.9068,8.8717,8.8275,8.7786,8.7339,8.6482,8.5148,8.4042,8.2488,8.0323,7.8213,7.6765,7.545,7.4329,7.3918,7.3867,7.3867,7.3867,7.3867,7.3857,7.4001,7.425,7.4722,7.5251,7.5396,7.6007,7.5776,7.4605,7.3337,7.2767,7.2473,7.2103,7.1453,7.0562,6.8966,6.7459,6.6,6.4221,6.296,6.2152,6.1529,6.1181,6.1056,6.1056,6.1056,6.1056,6.1056,6.093,6.0805,6.0304,5.9836,5.8637,5.6922,5.4938,5.3132,5.0139,4.7351,4.49,4.31,4.1694,4.0777,4.0261,4.0261,4.0402,4.0567,4.0755,4.0896,4.1578,4.2071,4.2565,4.2823,4.3105,4.3716,4.4233,4.4421,4.4413,4.3717,4.3044,4.1168,3.9732,3.7613,3.6215,3.4879,3.3797,3.2891,3.2695,3.2749,3.2198,3.1739,3.1883,3.1595,3.0421,2.9354,2.8832,2.8227,2.7376,2.6819,2.6666,2.677,2.6802,2.6854,2.6881,8.182,8.1933,8.2836,8.3231,8.3441,8.4585,8.5813,8.6829,8.7224,8.8071,8.9143,8.9256,8.9256,8.9156,8.9081,8.8817,8.8275,8.7786,8.6934,8.5799,8.4555,8.2867,8.0807,7.8856,7.6966,7.5602,7.4479,7.3867,7.3867,7.3867,7.3867,7.3867,7.3867,7.4291,7.5138,7.5242,7.6017,7.6341,7.6695,7.5776,7.462,7.3396,7.2708,7.2649,7.2591,7.2162,7.1512,7.0145,6.8786,6.7338,6.5633,6.3975,6.296,6.2152,6.1591,6.1118,6.1056,6.1056,6.1056,6.1056,6.1056,6.1056,6.0402,6.0088,5.9395,5.8096,5.6059,5.3003,4.9943,4.6983,4.4767,4.2699,4.1315,4.0464,4.0308,4.0402,4.0708,4.0919,4.1131,4.186,4.2494,4.3058,4.3552,4.3857,4.4022,4.461,4.4727,4.4939,4.4772,4.409,4.2919,4.0838,3.8754,3.6498,3.4423,3.3229,3.1878,3.1132,3.1145,3.1159,3.0525,2.9967,2.9834,2.9849,2.8631,2.8101,2.7526,2.6932,2.6975,2.6975,2.6793,2.6828,2.6986,2.7078,2.7241,8.2159,8.2723,8.3288,8.3949,8.4698,8.5827,8.6772,8.7337,8.7958,8.8592,8.9087,8.9256,8.9256,8.9256,8.9256,8.8949,8.8496,8.8142,8.7384,8.6209,8.5017,8.3333,8.1337,7.9053,7.7316,7.5957,7.4786,7.4124,7.3918,7.3867,7.3867,7.3867,7.3867,7.453,7.5569,7.558,7.6072,7.6815,7.6695,7.5949,7.5026,7.4213,7.3236,7.2884,7.2649,7.2532,7.2044,7.1216,7.0145,6.8726,6.6913,6.5143,6.3889,6.3084,6.2588,6.1716,6.1243,6.1056,6.1056,6.1056,6.1056,6.0993,6.0743,6.0464,5.9864,5.8982,5.7271,5.4263,5.0894,4.7181,4.4727,4.29,4.1571,4.0859,4.0637,4.0896,4.1225,4.1366,4.2048,4.2917,4.3505,4.4045,4.4539,4.4727,4.4962,4.5127,4.5145,4.5151,4.5001,4.4148,4.3235,4.1066,3.8928,3.6217,3.329,3.1627,3.0059,2.962,2.9454,2.9431,2.916,2.8995,2.8694,2.8462,2.7856,2.729,2.6828,2.7004,2.7043,2.7069,2.7122,2.7188,2.7307,2.7412,2.7518,8.2836,8.3949,8.4078,8.4811,8.5925,8.7068,8.7676,8.7788,8.8748,8.92,8.9256,8.9256,8.9256,8.9256,8.9256,8.8981,8.8673,8.8408,8.7742,8.6618,8.5378,8.3849,8.1816,7.9543,7.7716,7.6513,7.5195,7.4278,7.3969,7.3867,7.3867,7.3913,7.4049,7.4873,7.5776,7.5864,7.631,7.7325,7.6752,7.6077,7.5386,7.4808,7.4155,7.306,7.2767,7.2649,7.2473,7.2044,7.1216,7.0085,6.8244,6.6426,6.4898,6.4098,6.3208,6.2152,6.1368,6.1056,6.1056,6.1056,6.1056,6.1056,6.0993,6.068,6.0241,5.9458,5.8003,5.5419,5.2065,4.8095,4.5032,4.3125,4.204,4.1447,4.1178,4.1366,4.186,4.233,4.3035,4.3857,4.4468,4.5009,4.5028,4.5168,4.545,4.5638,4.5631,4.5541,4.5062,4.4068,4.2832,4.088,3.8853,3.5452,3.2318,3.0413,2.8827,2.86,2.8394,2.8353,2.8325,2.8158,2.8087,2.7972,2.7507,2.7104,2.7065,2.7065,2.7241,2.7386,2.7452,2.759,2.7544,2.7584,2.7716,8.4021,8.5304,8.6321,8.6829,8.7224,8.8353,8.8861,8.8918,8.92,8.9256,8.9256,8.9256,8.9256,8.9256,8.9256,8.9156,8.8937,8.8673,8.8142,8.7249,8.6073,8.4362,8.2388,8.0323,7.856,7.7014,7.545,7.4428,7.3969,7.3867,7.3867,7.4054,7.4656,7.5626,7.6524,7.6689,7.6989,7.771,7.6981,7.6135,7.5559,7.5329,7.4678,7.3587,7.3103,7.2708,7.2532,7.2162,7.163,7.1334,6.9547,6.7943,6.6365,6.4959,6.3394,6.2152,6.143,6.1118,6.1056,6.1056,6.1056,6.1056,6.1056,6.093,6.0653,5.9745,5.8486,5.635,5.3902,5.0198,4.5691,4.3534,4.2232,4.1739,4.1695,4.193,4.2541,4.3669,4.4186,4.4821,4.5121,4.5426,4.5544,4.5661,4.5889,4.6147,4.6147,4.5883,4.4949,4.3823,4.1886,3.99,3.7256,3.4051,3.1892,3.0102,2.8436,2.7949,2.7568,2.7635,2.7702,2.7729,2.7867,2.7643,2.765,2.7663,2.761,2.7571,2.7584,2.7676,2.7755,2.7795,2.7808,2.7795,2.7781,8.4906,8.649,8.7055,8.7676,8.831,8.8974,8.9256,8.9256,8.9256,8.9256,8.9256,8.9256,8.9256,8.9256,8.9256,8.9256,8.9169,8.8993,8.8452,8.7552,8.6753,8.511,8.3056,8.1145,7.9348,7.7566,7.5856,7.4637,7.4021,7.3867,7.3867,7.396,7.489,7.5965,7.6779,7.7055,7.7562,7.7835,7.7324,7.6581,7.5962,7.5617,7.4982,7.4213,7.3279,7.2708,7.2708,7.2398,7.2044,7.1571,7.0859,6.9745,6.8365,6.6609,6.4775,6.3208,6.2116,6.1466,6.1118,6.1056,6.1056,6.1056,6.1056,6.1056,6.0778,6.0157,5.9121,5.7811,5.5347,5.1661,4.6433,4.4016,4.2857,4.24,4.2376,4.2847,4.3458,4.4492,4.5215,4.5309,4.5584,4.5795,4.5936,4.6006,4.6217,4.6217,4.624,4.5696,4.4806,4.3385,4.1283,3.8691,3.5935,3.3441,3.1507,2.9737,2.8142,2.7631,2.7399,2.7478,2.7603,2.7656,2.7623,2.7663,2.7716,2.7821,2.7953,2.8019,2.8019,2.8098,2.8137,2.8124,2.8085,2.8006,2.7953,8.5975,8.7818,8.7719,8.8297,8.9143,8.9256,8.9256,8.9256,8.9256,8.9256,8.9256,8.9256,8.9256,8.9256,8.9256,8.9256,8.9256,8.9112,8.8805,8.792,8.7428,8.5753,8.3809,8.2103,8.0226,7.8164,7.6412,7.5093,7.4175,7.3969,7.3867,7.4007,7.489,7.5965,7.6886,7.7321,7.7739,7.7948,7.7654,7.7026,7.6351,7.5847,7.543,7.4794,7.3805,7.306,7.2767,7.2708,7.2414,7.2044,7.163,7.0859,6.9547,6.7761,6.5939,6.4221,6.2836,6.1779,6.1341,6.1118,6.1056,6.1056,6.1056,6.1127,6.118,6.0704,6.0055,5.9036,5.687,5.312,4.8341,4.5559,4.3909,4.3206,4.327,4.3716,4.4421,4.5192,4.5608,4.5748,4.6006,4.6264,4.6264,4.6264,4.6264,4.6264,4.5952,4.5485,4.4382,4.3136,4.0757,3.8004,3.5329,3.285,3.0965,2.9247,2.8189,2.7754,2.765,2.7702,2.7702,2.7742,2.7716,2.7755,2.7795,2.7953,2.8098,2.8177,2.8256,2.8454,2.8497,2.8467,2.8335,2.8217,2.8137,8.7645,8.9496,8.9205,8.91,8.92,8.9256,8.9256,8.9256,8.9256,8.9256,8.9256,8.9256,8.9256,8.9256,8.9256,8.9256,8.9256,8.9256,8.9125,8.8685,8.7697,8.6391,8.464,8.3192,8.1097,7.8758,7.7066,7.5704,7.4684,7.4021,7.3867,7.4095,7.4885,7.5912,7.6886,7.7384,7.7795,7.806,7.7722,7.714,7.6581,7.6294,7.5892,7.5257,7.4504,7.3805,7.3002,7.2708,7.2649,7.2532,7.2044,7.1156,6.9846,6.8003,6.6305,6.4898,6.3233,6.209,6.1877,6.1306,6.1056,6.1091,6.1091,6.1341,6.1757,6.1572,6.0991,6.0299,5.8189,5.517,5.1224,4.7157,4.5066,4.4086,4.3954,4.4417,4.5163,4.5842,4.6193,4.6217,4.6217,4.6264,4.6264,4.6264,4.6264,4.6264,4.6186,4.5476,4.4438,4.2995,4.0663,3.7724,3.5057,3.2401,3.0569,2.8879,2.8275,2.7854,2.7781,2.7795,2.7795,2.7795,2.7795,2.7795,2.7795,2.7913,2.8177,2.8348,2.8414,2.8586,2.8863,2.8681,2.851,2.848,2.8256,8.8377,8.981,8.9636,8.9418,8.9256,8.9256,8.9256,8.9256,8.9256,8.9256,8.9256,8.9256,8.9256,8.9256,8.9256,8.9256,8.9256,8.9256,8.9256,8.9081,8.8275,8.7249,8.5881,8.4122,8.2003,7.9542,7.7618,7.6061,7.479,7.4124,7.3867,7.4002,7.4937,7.5965,7.6893,7.7703,7.8341,7.8455,7.8119,7.7551,7.6969,7.6581,7.6122,7.5444,7.491,7.4256,7.3396,7.2884,7.2708,7.2649,7.2414,7.1867,7.0859,6.9427,6.7822,6.6122,6.4221,6.2774,6.209,6.1368,6.1056,6.1127,6.1492,6.1849,6.2113,6.2448,6.2186,6.1381,5.9507,5.7088,5.4017,5.0353,4.7145,4.5153,4.4314,4.4464,4.5397,4.5702,4.5936,4.617,4.6264,4.6264,4.6264,4.6264,4.6264,4.6264,4.6264,4.549,4.4358,4.2835,4.0948,3.7947,3.5088,3.2621,3.0606,2.8932,2.794,2.7867,2.7795,2.7795,2.7795,2.7795,2.7795,2.7795,2.7795,2.79,2.8269,2.8445,2.8589,2.8889,2.9087,2.9113,2.8902,2.8744,2.8454,8.8951,8.9857,8.9812,8.9636,8.9375,8.93,8.9256,8.9256,8.9256,8.9256,8.9256,8.9256,8.9256,8.9256,8.9256,8.9256,8.9256,8.9256,8.9256,8.9169,8.8761,8.8186,8.7159,8.5194,8.2904,8.0563,7.851,7.6617,7.5195,7.4432,7.4021,7.3913,7.461,7.5498,7.6573,7.7501,7.83,7.8571,7.8399,7.8063,7.7426,7.6867,7.6351,7.5675,7.4968,7.4431,7.3965,7.3161,7.2708,7.2708,7.2708,7.2355,7.163,7.0621,6.9146,6.7398,6.5572,6.3889,6.2712,6.1779,6.1243,6.1127,6.1706,6.2276,6.2526,6.3214,6.3293,6.2606,6.1083,5.8907,5.616,5.2691,4.933,4.6444,4.5544,4.5189,4.5273,4.5327,4.542,4.5849,4.5819,4.5865,4.5959,4.6029,4.61,4.6217,4.5999,4.5467,4.4378,4.291,4.0807,3.7887,3.5276,3.2841,3.0682,2.8956,2.7881,2.7881,2.7795,2.7795,2.7795,2.7795,2.7795,2.7795,2.7795,2.7992,2.8261,2.855,2.8957,2.9311,2.9403,2.9351,2.9166,2.8863,2.8559,8.9486,8.9927,8.9857,8.9683,8.9609,8.9318,8.9187,8.9256,8.9256,8.9256,8.9256,8.9256,8.9256,8.9256,8.9256,8.9256,8.9256,8.9256,8.9256,8.9213,8.9112,8.8849,8.8098,8.6109,8.3889,8.1721,7.9592,7.7816,7.616,7.5093,7.4381,7.3918,7.4054,7.4516,7.5585,7.6573,7.733,7.7906,7.8571,7.8356,7.7426,7.7312,7.6924,7.6294,7.5243,7.4605,7.4314,7.3396,7.2767,7.2708,7.2649,7.2457,7.1808,7.1097,7.0145,6.8786,6.6852,6.5266,6.3951,6.2712,6.1716,6.1252,6.1876,6.249,6.3203,6.3897,6.4181,6.3528,6.251,6.0593,5.7275,5.4058,5.1119,4.83,4.7242,4.6279,4.5173,4.4892,4.5009,4.5033,4.5009,4.5127,4.5491,4.5608,4.5819,4.5999,4.5618,4.5212,4.4295,4.2726,4.0474,3.7905,3.5193,3.2897,3.0725,2.9083,2.7881,2.7795,2.7795,2.7795,2.7795,2.7795,2.7795,2.7795,2.7834,2.8111,2.83,2.8484,2.8787,2.9271,2.9456,2.9496,2.9285,2.8915,2.8524,8.881,8.8797,8.8728,8.8637,8.8573,8.8402,8.8683,8.92,8.9256,8.9256,8.92,8.9256,8.9256,8.9256,8.9256,8.9256,8.9256,8.9256,8.9256,8.9256,8.9256,8.9169,8.8761,8.7552,8.579,8.3239,8.0708,7.8609,7.6768,7.5351,7.4329,7.3918,7.3867,7.4329,7.5352,7.5819,7.6793,7.7974,7.8146,7.8097,7.7813,7.754,7.7083,7.6351,7.5243,7.4663,7.4605,7.3805,7.3161,7.2767,7.2708,7.2591,7.2339,7.169,7.0978,6.9906,6.8244,6.6548,6.5204,6.3642,6.2339,6.1932,6.2396,6.3061,6.3488,6.4563,6.4939,6.4279,6.3192,6.1313,5.8524,5.5531,5.3284,5.1474,4.9266,4.7094,4.5568,4.4778,4.4617,4.4826,4.4896,4.4962,4.5121,4.5309,4.5608,4.5618,4.5378,4.5032,4.4524,4.2813,4.0751,3.8384,3.5429,3.2875,3.0769,2.9327,2.8053,2.7795,2.7795,2.7795,2.7795,2.7795,2.7795,2.7795,2.7795,2.8058,2.8195,2.8392,2.8603,2.9047,2.9481,2.9377,2.9298,2.8942,2.851,8.8602,8.8099,8.8069,8.7813,8.7462,8.7366,8.7565,8.8071,8.8522,8.8592,8.8648,8.9087,8.9256,8.9256,8.9256,8.9256,8.9256,8.9256,8.9256,8.9256,8.9256,8.9256,8.9068,8.8673,8.7249,8.4825,8.2051,7.9542,7.7618,7.596,7.4837,7.4175,7.3969,7.4288,7.489,7.5311,7.6059,7.7454,7.778,7.7721,7.7582,7.7597,7.721,7.6409,7.543,7.491,7.4852,7.4271,7.3746,7.3396,7.3337,7.3177,7.2986,7.2574,7.1926,7.1038,6.9566,6.8124,6.6609,6.4898,6.3518,6.2693,6.3158,6.3534,6.3589,6.4807,6.5326,6.4653,6.3532,6.1998,5.9869,5.7136,5.4901,5.3876,5.0878,4.8221,4.6288,4.4911,4.4391,4.4402,4.4472,4.4567,4.4657,4.4868,4.5092,4.5391,4.4793,4.4583,4.4502,4.255,4.0323,3.8523,3.5531,3.2665,3.0784,2.9155,2.8224,2.7795,2.7795,2.7795,2.7795,2.7795,2.7795,2.7795,2.7795,2.7927,2.8164,2.8375,2.8484,2.8876,2.906,2.914,2.9166,2.8942,2.8573,8.8969,8.8071,8.802,8.7463,8.6761,8.639,8.5949,8.6108,8.697,8.7422,8.7535,8.8522,8.8848,8.8987,8.8918,8.9143,8.9087,8.9031,8.9087,8.9256,8.9256,8.9256,8.9213,8.8717,8.7875,8.6663,8.3521,8.0855,7.8708,7.7017,7.5653,7.4735,7.4072,7.396,7.3909,7.4843,7.5404,7.6012,7.7361,7.7738,7.6872,7.7526,7.7415,7.6421,7.5701,7.5356,7.5329,7.4852,7.4605,7.4547,7.4489,7.4314,7.3746,7.3513,7.3044,7.1867,7.1097,6.9745,6.8003,6.6487,6.4836,6.3455,6.3759,6.3887,6.3547,6.4665,6.5358,6.475,6.3973,6.2953,6.1209,5.8833,5.6579,5.476,5.2649,4.9954,4.736,4.5441,4.4259,4.3749,4.3528,4.3599,4.3951,4.4257,4.4605,4.4981,4.441,4.3834,4.4273,4.2242,3.9819,3.7877,3.5412,3.2743,3.084,2.9155,2.8469,2.7867,2.7953,2.7795,2.7795,2.7795,2.7795,2.7795,2.7795,2.7834,2.8072,2.823,2.8441,2.8471,2.855,2.877,2.8757,2.8678,2.83,8.9183,8.7581,8.6948,8.6558,8.6288,8.5905,8.5976,8.6349,8.6706,8.671,8.6573,8.6913,8.6971,8.6829,8.7563,8.7958,8.7958,8.7958,8.841,8.92,8.9256,8.9256,8.9213,8.9025,8.8452,8.7339,8.5981,8.338,7.9834,7.7717,7.6111,7.4688,7.4124,7.3867,7.3913,7.4142,7.475,7.5352,7.6059,7.6587,7.6799,7.709,7.6939,7.6357,7.5569,7.5239,7.54,7.5271,7.5026,7.4721,7.4605,7.4547,7.4314,7.3921,7.3454,7.2986,7.2044,7.074,6.9206,6.7519,6.5755,6.3864,6.3638,6.3266,6.2733,6.3957,6.471,6.4691,6.437,6.3771,6.2203,6.0833,5.9386,5.7623,5.476,5.1757,4.9294,4.6785,4.5127,4.4283,4.3703,4.3484,4.3599,4.3881,4.4398,4.5009,4.4487,4.4055,4.4096,4.2173,3.9894,3.8016,3.5511,3.3164,3.1234,2.9885,2.9116,2.8572,2.85,2.8026,2.7795,2.7795,2.7795,2.7795,2.7808,2.7847,2.794,2.8098,2.8217,2.8322,2.8401,2.8392,2.8379,2.8274,2.8169,8.9726,8.8025,8.6825,8.5956,8.5447,8.5191,8.5121,8.5386,8.5902,8.5967,8.5737,8.5971,8.5933,8.574,8.6079,8.6108,8.6038,8.6448,8.7337,8.8423,8.8522,8.8761,8.9143,8.9256,8.8717,8.7964,8.7349,8.4871,8.0901,7.8609,7.6817,7.5402,7.453,7.4021,7.3867,7.3867,7.4142,7.4843,7.5311,7.558,7.5873,7.6103,7.6007,7.5587,7.5038,7.4769,7.4727,7.4727,7.46,7.4246,7.4189,7.4246,7.4189,7.3617,7.3187,7.3055,7.2463,7.163,7.0502,6.8846,6.7034,6.5219,6.4473,6.3948,6.3313,6.38,6.4459,6.447,6.4377,6.3753,6.2539,6.1965,6.0986,5.914,5.6418,5.3584,5.0823,4.8052,4.5849,4.4718,4.3848,4.3364,4.3434,4.3622,4.4022,4.4441,4.43,4.4003,4.3711,4.2416,4.0365,3.8267,3.5969,3.3866,3.2071,3.1026,2.9983,2.9516,2.8747,2.8235,2.7867,2.7795,2.7768,2.7768,2.7795,2.7821,2.7834,2.7966,2.7979,2.8072,2.8124,2.8116,2.8261,2.8137,2.8058,9.0611,8.9406,8.7628,8.5972,8.4302,8.4361,8.3897,8.3599,8.4514,8.4951,8.5042,8.5591,8.6012,8.5826,8.4694,8.3938,8.3878,8.4966,8.6095,8.7125,8.7224,8.7901,8.9031,8.9043,8.8668,8.7816,8.7064,8.5091,8.1886,7.9733,7.7965,7.6463,7.5246,7.4381,7.3969,7.3867,7.3815,7.4049,7.4797,7.5035,7.4691,7.4946,7.4816,7.4452,7.4252,7.4068,7.3718,7.3618,7.3563,7.3518,7.3652,7.3552,7.3453,7.2944,7.2491,7.2296,7.2462,7.233,7.1564,7.0402,6.8846,6.7113,6.6223,6.5473,6.4279,6.4352,6.444,6.431,6.3785,6.3137,6.2348,6.2186,6.1308,5.9409,5.7715,5.5191,5.1871,4.9392,4.7068,4.5127,4.4066,4.3558,4.3364,4.3364,4.3646,4.3945,4.3844,4.3566,4.3356,4.2621,4.0923,3.8732,3.6717,3.5137,3.4683,3.3343,3.1708,3.0659,2.9712,2.85,2.8122,2.7768,2.7755,2.7742,2.7716,2.7716,2.7768,2.7808,2.7834,2.7861,2.7913,2.7913,2.8006,2.7861,2.7847,9.1352,9.027,8.9266,8.7737,8.6009,8.5672,8.5257,8.488,8.4903,8.4729,8.4379,8.4274,8.4447,8.4469,8.3389,8.3346,8.3979,8.4129,8.4755,8.5925,8.5996,8.6165,8.6504,8.6546,8.6249,8.5821,8.5576,8.4392,8.2399,8.0153,7.8545,7.7468,7.6008,7.494,7.4479,7.4068,7.3867,7.3913,7.4147,7.4396,7.4374,7.3939,7.3919,7.435,7.4021,7.4162,7.4726,7.4771,7.4562,7.4068,7.4068,7.3904,7.3518,7.3353,7.2988,7.2503,7.231,7.1962,7.1325,7.0782,6.9666,6.7822,6.7048,6.6101,6.5081,6.4808,6.4685,6.4278,6.3631,6.3004,6.234,6.2248,6.1588,6.0112,5.855,5.6422,5.3433,5.0943,4.8574,4.6447,4.4862,4.3993,4.3486,4.3364,4.3528,4.4049,4.4011,4.3936,4.3822,4.2716,4.1451,4.0165,3.7824,3.6737,3.6844,3.5324,3.3774,3.2431,3.0519,2.9062,2.8296,2.7498,2.7091,2.7465,2.7465,2.7505,2.7623,2.7729,2.7781,2.7795,2.7795,2.7795,2.7716,2.7781,2.7781,9.1781,9.0781,8.9961,8.8561,8.7008,8.6677,8.6292,8.5769,8.5505,8.5202,8.4783,8.4686,8.4513,8.4341,8.3528,8.3301,8.3628,8.3282,8.38,8.4849,8.4781,8.5079,8.5488,8.5545,8.5419,8.5067,8.4856,8.4076,8.2848,8.1117,7.9389,7.7813,7.6672,7.5554,7.4637,7.4124,7.3867,7.3867,7.3867,7.3987,7.414,7.367,7.352,7.3813,7.3643,7.37,7.3937,7.3929,7.3814,7.3446,7.3177,7.2961,7.2637,7.2421,7.2164,7.2005,7.1755,7.1503,7.1039,7.095,7.0221,6.8621,6.8225,6.7519,6.6282,6.5685,6.5432,6.5121,6.4223,6.3094,6.222,6.1879,6.1433,6.061,5.9307,5.7395,5.4832,5.2227,4.9648,4.7154,4.5519,4.4306,4.3635,4.3344,4.3458,4.3716,4.4022,4.3933,4.3686,4.3273,4.2229,4.0843,3.9703,3.8991,3.8852,3.7202,3.5393,3.3738,3.1574,2.9455,2.838,2.7411,2.6867,2.7135,2.7162,2.7254,2.7439,2.7425,2.7439,2.7399,2.7425,2.7425,2.7425,2.7425,2.7439,9.1913,9.1118,9.0133,8.8844,8.7628,8.7519,8.7118,8.6456,8.627,8.6106,8.5994,8.6121,8.5785,8.4971,8.4418,8.38,8.3154,8.2681,8.3069,8.3955,8.3646,8.4104,8.5064,8.5135,8.5248,8.5051,8.4618,8.3818,8.2967,8.2118,8.0446,7.7956,7.7224,7.6172,7.475,7.418,7.3867,7.3867,7.382,7.3675,7.3726,7.382,7.3655,7.3184,7.3184,7.2924,7.2501,7.2259,7.2305,7.2155,7.1827,7.1519,7.1354,7.094,7.0759,7.1065,7.1099,7.1049,7.0843,7.1053,7.0545,6.9644,6.9625,6.9224,6.8025,6.6856,6.6371,6.6343,6.5059,6.3369,6.2152,6.144,6.1042,6.0815,5.9857,5.8348,5.6039,5.345,5.0636,4.7655,4.6083,4.4554,4.3822,4.3492,4.3368,4.327,4.3646,4.375,4.3338,4.346,4.3066,4.1631,4.1486,4.1452,4.0616,3.8989,3.7185,3.4888,3.2384,3.0443,2.8967,2.7828,2.6928,2.7151,2.6942,2.6815,2.6854,2.6828,2.6867,2.6946,2.6933,2.6854,2.6828,2.6867,2.6828,9.2045,9.1519,9.0747,8.9968,8.9371,8.9161,8.8844,8.8311,8.7737,8.7773,8.8132,8.7664,8.7191,8.6544,8.5198,8.4379,8.3839,8.3176,8.2993,8.3239,8.2841,8.2852,8.3096,8.2829,8.2667,8.2667,8.2545,8.2204,8.1644,8.1558,8.0652,7.8961,7.7605,7.6192,7.4656,7.4513,7.4227,7.382,7.3067,7.2646,7.2693,7.3492,7.3815,7.3707,7.3707,7.3655,7.3454,7.35,7.3293,7.2924,7.2768,7.2253,7.1414,7.1159,7.103,7.0732,7.067,7.0794,7.1005,7.0968,7.0527,6.9789,7.004,6.99,6.9138,6.8313,6.7606,6.6796,6.5166,6.3419,6.2277,6.1466,6.0814,6.0361,5.9954,5.8963,5.6977,5.5038,5.2804,4.9995,4.7789,4.5844,4.4296,4.363,4.3373,4.2967,4.3199,4.3596,4.3727,4.3292,4.3028,4.2497,4.2744,4.27,4.1683,4.0517,3.9008,3.7129,3.4556,3.2285,3.0513,2.8618,2.7538,2.7499,2.7075,2.6812,2.6845,2.6802,2.6859,2.6845,2.6832,2.6775,2.6762,2.6775,2.6683,9.2276,9.1946,9.1185,9.0583,9.027,8.9927,8.9642,8.9301,8.9546,8.9761,8.9961,8.917,8.849,8.7737,8.6433,8.5597,8.4991,8.3994,8.3528,8.3489,8.2997,8.2602,8.2403,8.2204,8.2021,8.182,8.182,8.1563,8.1078,8.0995,8.0684,7.995,7.806,7.6149,7.4335,7.3534,7.3115,7.2766,7.1999,7.1571,7.1618,7.2132,7.2413,7.2413,7.2463,7.2413,7.2413,7.2413,7.2358,7.2054,7.18,7.1392,7.0733,7.0522,7.011,6.9645,6.9541,6.955,6.9561,6.9144,6.8989,6.9348,7.0115,7.003,6.8747,6.8907,6.8622,6.7646,6.5844,6.4175,6.3048,6.2028,6.1216,6.059,6.0213,5.9379,5.758,5.6099,5.408,5.138,4.9285,4.7306,4.5279,4.4541,4.3836,4.2872,4.285,4.311,4.3317,4.2974,4.2683,4.2729,4.3358,4.3239,4.2402,4.1482,4.0184,3.8378,3.576,3.3444,3.1641,2.9917,2.8606,2.8184,2.7807,2.7484,2.7594,2.7335,2.7172,2.709,2.6844,2.6516,2.6434,2.6434,2.6305,9.2632,9.234,9.1618,9.1151,9.0849,9.0475,9.0202,9.0099,9.1252,9.1618,9.1285,9.0515,8.9657,8.8703,8.7845,8.7045,8.627,8.5029,8.4456,8.4418,8.3567,8.294,8.2681,8.2483,8.2204,8.1941,8.1861,8.1603,8.1143,8.0793,8.0595,8.0383,7.8414,7.6275,7.4268,7.2591,7.1618,7.1334,7.0889,7.0592,7.0543,7.0683,7.0776,7.0776,7.0823,7.0776,7.0776,7.0823,7.0776,7.0776,7.0331,7.0083,6.9983,6.9443,6.8847,6.8346,6.811,6.7769,6.7366,6.6715,6.6949,6.8222,6.9682,6.9697,6.7931,6.8735,6.9054,6.8144,6.6354,6.4902,6.3832,6.2371,6.1346,6.0823,6.0307,5.9536,5.8242,5.7013,5.5259,5.2741,5.0806,4.893,4.6944,4.575,4.4593,4.3368,4.291,4.2774,4.2684,4.2542,4.2471,4.2588,4.3293,4.3467,4.2664,4.1883,4.0856,3.9153,3.6675,3.4611,3.2912,3.14,3.0148,2.9333,2.8984,2.876,2.8695,2.8164,2.7699,2.7364,2.6724,2.6083,2.5936,2.5922,2.579,9.2697,9.26,9.2274,9.2078,9.2012,9.1979,9.1913,9.1847,9.211,0.0,0.0,9.1319,9.0651,9.0105,8.8783,8.7989,8.7483,8.6307,8.5806,8.5769,8.4533,8.3916,8.38,8.2879,8.2364,8.2284,8.1981,8.178,8.1643,8.124,8.0645,7.9863,7.8396,7.7133,7.6042,7.393,7.1967,7.0331,7.015,6.9902,6.9514,7.0309,7.0776,7.0776,7.0776,7.0776,7.0776,7.0776,7.0776,7.0776,7.0678,7.043,6.9987,6.9099,6.8295,6.7799,6.6585,6.5845,6.5747,6.5308,6.5352,6.5907,6.7969,6.8508,6.6998,6.719,6.7221,6.6853,6.5412,6.4057,6.279,6.1155,6.0071,5.9951,5.9919,5.9634,5.8803,5.8037,5.6916,5.5291,5.2809,5.0519,4.8481,4.6916,4.549,4.4108,4.3262,4.277,4.27,4.2319,4.2037,4.2023,4.2471,4.2746,4.2295,4.2141,4.1764,3.9917,3.864,3.7289,3.5544,3.3517,3.2158,3.1759,3.0606,2.9938,2.9689,2.9189,2.8379,2.7676,2.688,2.619,2.5577,2.5421,2.5381,9.18,9.1673,9.228,9.247,0.0,9.2307,9.1672,9.0648,9.0616,9.0553,9.0364,8.995,8.9402,8.862,8.7753,8.7102,8.6516,8.5454,8.517,8.555,8.4614,8.4081,8.4148,8.3567,8.2997,8.2443,8.2204,8.2061,8.182,8.1305,8.086,8.0356,7.8827,7.7619,7.6775,7.4659,7.2441,7.0028,6.9483,6.8963,6.8438,6.8905,6.9185,6.9185,6.9139,0.0,0.0,0.0,0.0,0.0,0.0,0.0,0.0,0.0,0.0,6.508,6.4251,6.3379,6.2418,6.2143,6.249,6.3442,6.4612,6.5005,6.4277,6.5343,6.5874,6.5366,6.4542,6.3495,6.2104,6.0389,5.9196,5.8984,5.8786,5.8577,5.8298,5.8034,5.7128,5.5446,5.3752,5.1916,4.9912,4.8338,4.6812,4.5134,4.4162,4.3486,4.2972,4.2206,4.174,4.1894,4.2046,4.2141,4.1971,4.1866,4.1273,4.074,3.9786,3.8782,3.7803,3.6122,3.4801,3.4187,3.3283,3.2359,3.2282,3.1434,3.0431,2.958,2.8201,2.6769,2.5883,2.5481,2.5285,9.0575,9.039,9.1544,9.1897,9.1672,9.1736,9.068,8.9022,8.9022,8.884,8.8531,8.8439,8.7975,8.7189,8.6741,8.6191,8.5597,8.4592,8.4517,8.5091,8.4307,8.4074,8.4201,8.403,8.3452,8.2681,8.2523,8.2091,8.1482,8.1008,8.0695,8.0351,7.8696,7.752,7.6723,0.0,0.0,0.0,6.9376,6.8445,6.7785,6.7691,6.7644,6.7644,6.7644,0.0,6.7644,6.7644,6.755,6.7363,6.6569,0.0,0.0,0.0,0.0,0.0,0.0,0.0,0.0,0.0,0.0,0.0,6.0165,6.0075,6.0746,6.2513,6.3533,6.3393,6.321,6.253,6.119,5.9388,5.8159,5.7945,5.739,5.7143,5.7416,5.7305,5.6784,5.5131,5.419,5.3038,5.1421,4.9831,4.808,4.6161,4.4955,4.4172,4.3487,4.2474,4.1745,4.1864,4.1834,4.1805,4.1973,4.1696,4.1648,4.1264,4.0571,3.9813,3.9109,3.8074,3.7192,3.657,3.5723,3.5157,3.5157,3.3984,3.2515,3.1614,2.9621,2.7731,2.6842,2.597,2.5113,8.9314,8.9253,8.9446,8.951,8.9449,8.9449,8.9317,8.9022,8.9022,8.8992,8.8931,8.8626,8.8347,8.8192,8.76,8.7093,8.6645,8.5992,8.5388,8.4898,8.4205,8.4064,8.4469,8.3438,8.3158,8.3392,8.2743,8.1637,8.0128,8.0088,7.9289,7.7889,7.6797,7.6172,7.5903,7.4373,7.3248,7.2706,7.0728,6.9333,6.8351,6.788,6.7644,6.7644,6.7644,6.7644,6.7644,6.7644,6.727,6.6336,6.6149,6.5308,6.3671,6.2592,6.11,0.0,5.7712,0.0,0.0,0.0,0.0,0.0,0.0,0.0,0.0,5.7331,5.8381,6.0432,6.0776,6.042,5.9308,5.7292,5.612,5.6404,5.5697,5.5447,5.6129,5.5928,5.5875,5.6267,5.4605,5.3484,5.3064,5.1115,4.9079,4.752,4.5364,4.4058,4.4255,4.3288,4.2208,4.1715,4.1522,4.1755,4.2556,4.3144,4.2881,4.1789,4.1321,4.085,3.969,3.8782,3.8161,3.7968,3.7386,3.6751,3.6669,3.5511,3.4073,3.2685,3.0843,2.9234,2.8485,2.663,2.4714,8.7862,8.7897,8.867,8.6767,8.3225,8.316,8.3611,8.4291,8.4291,8.4291,8.4291,8.4118,8.3973,8.377,8.3511,8.3215,8.2887,8.2251,8.2478,8.3337,8.2582,8.2877,8.4085,8.316,8.2512,8.2073,8.1337,8.0323,7.9139,7.8907,7.8375,7.7676,7.6863,7.556,7.3891,7.2523,7.2401,7.3523,7.1647,7.0039,6.8866,6.8351,6.7927,6.7644,6.7644,6.7644,6.7644,6.7036,6.6616,6.6102,6.4467,6.2969,6.1474,5.9926,5.7827,0.0,0.0,0.0,0.0,0.0,0.0,0.0,0.0,0.0,0.0,0.0,5.4629,5.7716,5.8385,5.8147,5.6863,5.5085,5.3977,5.3984,5.3393,5.3167,5.3617,5.3748,5.3875,5.3945,5.3201,5.2694,5.2966,5.1601,5.0184,4.8996,4.6428,4.4881,4.5014,4.3756,4.2559,4.2169,4.1768,4.1626,4.1679,4.1976,4.198,4.1551,4.1489,4.1502,4.1456,4.0719,4.0394,4.0599,3.9731,3.8864,3.8794,3.7757,3.6271,3.4631,3.2802,3.0806,2.903,2.736,2.5628,8.5157,8.4964,8.535,8.2423,7.7556,7.7492,7.8238,7.9461,7.9461,7.9461,7.9526,7.9499,7.939,7.9171,7.9236,7.9071,7.8774,7.8578,7.9409,8.091,8.058,8.1362,8.3074,8.2348,8.1601,8.0986,7.9949,7.8847,7.7646,7.7062,7.6535,7.6197,7.5183,7.3579,7.129,7.0681,7.1247,7.2902,7.1783,7.0588,6.9503,6.8771,6.821,6.7644,6.741,6.7317,6.727,6.6336,6.5542,6.4981,6.2596,6.044,5.8669,5.6846,0.0,0.0,0.0,0.0,0.0,0.0,0.0,0.0,0.0,4.6,4.9362,0.0,5.114,0.0,5.5683,5.5616,5.4431,5.2921,0.0,0.0,5.1277,5.0998,5.1224,5.1393,5.1494,5.1459,5.142,5.1569,5.2251,5.1578,5.0746,4.9748,4.7873,4.6317,4.569,4.413,4.2919,4.2466,4.1816,4.1302,4.0858,4.0705,4.0902,4.1207,4.134,4.1646,4.2286,4.1937,4.1653,4.2039,4.1243,4.0555,4.0417,3.9314,3.7887,3.6589,3.4706,3.2416,2.9853,2.8232,2.6751,8.0299,7.8973,7.6499,7.5121,7.4606,7.4606,7.5405,7.668,7.6654,7.6745,7.6745,7.6745,7.6719,7.6719,7.6692,0.0,7.6192,7.7444,7.77,7.7459,7.8412,7.9797,8.1309,8.037,8.0435,8.1384,7.9512,7.7413,7.5124,7.3844,7.2532,7.1121,6.9669,6.8582,6.8111,6.9331,7.0125,7.0308,7.0995,7.0998,7.0283,6.9085,6.8163,6.7691,6.6709,6.6242,6.6242,6.5354,6.3996,6.2121,6.0815,5.8429,5.461,0.0,0.0,0.0,0.0,0.0,0.0,0.0,0.0,0.0,0.0,0.0,0.0,0.0,0.0,0.0,5.237,0.0,5.2365,5.1066,0.0,0.0,0.0,4.9396,4.9376,4.8989,4.9049,5.0015,0.0,0.0,5.1778,5.1058,5.0136,4.935,4.9141,4.8275,4.5989,4.4632,4.344,4.2318,4.1483,4.1109,4.1033,4.0973,4.0972,4.0884,4.1314,4.1334,4.0968,4.0734,4.0759,4.0882,4.0703,4.0573,4.0638,3.9378,3.826,3.7581,3.575,3.3798,3.206,2.9278,2.6848,7.4809,6.975,6.8627,6.8109,6.8173,6.8036,6.937,7.1461,7.1292,7.1243,7.1243,7.1243,7.1243,7.1243,7.1243,0.0,0.0,0.0,7.3172,7.3717,7.4589,7.6202,7.8301,7.7186,7.7136,7.7884,7.5632,7.3715,7.2374,7.0413,6.8087,6.545,0.0,0.0,6.6764,6.6955,6.8349,7.0896,7.043,7.078,7.1922,7.0397,6.8833,6.7221,6.5959,6.498,6.4327,6.3343,6.1891,5.9832,5.7547,5.4695,0.0,0.0,0.0,0.0,0.0,0.0,0.0,0.0,0.0,0.0,0.0,3.9093,4.1977,0.0,0.0,0.0,4.806,4.8824,5.0114,4.9745,0.0,0.0,0.0,0.0,0.0,0.0,0.0,4.7782,4.7789,4.831,4.9904,4.9456,4.8899,4.8741,4.8521,4.7966,4.6651,0.0,4.4585,4.3762,4.2476,4.1583,4.1583,4.1327,4.0971,4.0547,4.0357,4.0223,4.0309,4.0385,4.0512,4.0755,4.0518,4.0267,4.0267,3.8675,3.721,3.6971,3.5343,3.37,3.2609,3.0468,2.8351,6.8021,0.0,0.0,0.0,0.0,6.2191,6.3576,6.5822,6.5603,6.5515,6.5515,6.5537,0.0,0.0,0.0,0.0,0.0,0.0,6.8361,6.9251,7.0485,7.2505,7.493,7.3813,7.3599,7.4195,7.1681,6.9865,6.8587,6.5177,6.2231,6.0057,0.0,0.0,0.0,0.0,6.6487,6.9457,6.9823,7.052,7.1774,7.0822,6.929,6.7276,6.5094,6.3476,6.2315,6.1002,5.9177,5.6799,5.4041,0.0,0.0,0.0,0.0,0.0,0.0,0.0,0.0,0.0,0.0,0.0,0.0,0.0,0.0,0.0,0.0,0.0,0.0,0.0,4.735,4.7845,4.7803,0.0,0.0,0.0,0.0,0.0,0.0,0.0,0.0,0.0,4.7308,4.7465,4.7726,0.0,0.0,4.7672,4.722,4.6456,4.5664,4.4958,4.3695,0.0,4.204,4.1555,4.0868,4.0091,3.9573,3.9354,3.9639,3.9744,3.9815,3.9968,3.9651,3.9121,3.8483,3.6973,3.5931,3.5717,3.4717,3.3451,3.2526,3.1257,2.9691,0.0,0.0,0.0,0.0,0.0,0.0,0.0,0.0,6.0086,6.0086,0.0,6.0086,0.0,0.0,0.0,0.0,6.0109,6.2547,0.0,0.0,6.6414,6.8882,7.1057,7.027,7.0202,7.0575,6.8388,6.6099,6.3651,5.7458,0.0,0.0,0.0,0.0,0.0,0.0,6.4453,6.5039,6.8889,7.0325,6.8939,6.9567,6.9369,6.7977,6.43,6.1666,6.0202,5.8195,5.5677,5.2648,5.0453,0.0,0.0,0.0,0.0,0.0,0.0,0.0,0.0,0.0,0.0,0.0,0.0,0.0,0.0,0.0,0.0,0.0,0.0,0.0,0.0,4.4853,0.0,0.0,0.0,0.0,0.0,0.0,0.0,0.0,0.0,0.0,4.3966,4.5385,4.6761,4.7535,0.0,0.0,0.0,0.0,4.6585,4.545,4.4915,4.4013,4.2297,4.145,4.0718,3.9572,0.0,0.0,3.8617,3.8528,3.8359,3.7904,3.7817,3.7033,3.4825,3.4333,3.4204,3.414,3.395,3.3483,3.2207,3.1258,3.0149,0.0,0.0,0.0,0.0,0.0,0.0,0.0,0.0,0.0,5.4304,0.0,5.4304,0.0,0.0,0.0,0.0,0.0,0.0,0.0,0.0,6.0709,6.2841,6.4473,6.3915,6.3968,0.0,6.247,5.881,0.0,0.0,0.0,0.0,0.0,0.0,0.0,0.0,6.2393,6.5561,6.727,6.8684,6.983,6.9854,6.8794,6.6585,6.4586,6.1617,5.7556,5.5137,5.2508,0.0,0.0,0.0,0.0,0.0,0.0,0.0,0.0,0.0,0.0,0.0,0.0,0.0,0.0,0.0,0.0,0.0,0.0,0.0,0.0,0.0,0.0,0.0,4.4173,0.0,0.0,0.0,0.0,0.0,0.0,0.0,0.0,0.0,4.2697,4.4184,4.5543,4.604,4.7568,4.8381,4.7696,0.0,0.0,0.0,0.0,0.0,0.0,0.0,4.2252,4.1405,4.0393,3.9452,3.8804,3.7572,3.6482,3.6033,0.0,0.0,3.2336,3.1969,3.2029,3.2402,3.219,3.1967,3.2239,3.1377,3.0316,0.0,0.0,0.0,0.0,0.0,0.0,0.0,0.0,0.0,4.8694,4.8694,0.0,0.0,0.0,0.0,0.0,0.0,0.0,0.0,0.0,0.0,0.0,5.8317,5.7909,0.0,0.0,0.0,0.0,0.0,0.0,0.0,0.0,0.0,0.0,0.0,0.0,6.0047,6.4315,6.5602,6.7385,6.9671,6.9031,6.7834,6.5982,6.4119,6.1116,5.6759,0.0,0.0,0.0,0.0,0.0,0.0,0.0,0.0,0.0,0.0,0.0,0.0,0.0,0.0,0.0,0.0,0.0,0.0,0.0,0.0,0.0,0.0,0.0,0.0,0.0,4.1798,0.0,0.0,0.0,0.0,0.0,0.0,0.0,0.0,0.0,0.0,0.0,4.4152,4.5316,4.6906,4.796,4.7977,4.8636,4.8801,0.0,0.0,0.0,0.0,0.0,0.0,0.0,0.0,0.0,0.0,0.0,0.0,0.0,0.0,3.1612,2.9917,2.9587,2.9762,3.017,0.0,0.0,0.0,0.0,0.0,0.0,0.0,0.0,0.0,0.0,0.0,0.0,0.0,0.0,0.0,4.3433,0.0,0.0,4.3379,0.0,0.0,0.0,0.0,0.0,0.0,0.0,0.0,0.0,0.0,0.0,0.0,0.0,0.0,0.0,0.0,0.0,0.0,0.0,0.0,0.0,0.0,5.7471,6.0909,6.4104,6.6493,6.8113,6.7095,6.6528,6.6272,6.2645,5.9749,5.7739,0.0,0.0,0.0,0.0,0.0,0.0,0.0,0.0,0.0,0.0,0.0,0.0,0.0,0.0,0.0,0.0,0.0,0.0,0.0,0.0,0.0,0.0,0.0,0.0,0.0,0.0,3.9848,4.0561,4.0654,0.0,0.0,0.0,0.0,0.0,0.0,0.0,0.0,0.0,4.539,4.5965,4.6688,4.8262,4.8795,4.8905,4.872,4.932,4.9223,4.7411,4.6073,4.4717,0.0,0.0,0.0,0.0,0.0,0.0,0.0,0.0,0.0,0.0,0.0,0.0,0.0,0.0,0.0,0.0,0.0,0.0,0.0,0.0,0.0,0.0,0.0,0.0,0.0,0.0,0.0,0.0,0.0,0.0,0.0,0.0,0.0,0.0,0.0,0.0,0.0,0.0,0.0,0.0,0.0,0.0,0.0,0.0,0.0,0.0,0.0,0.0,0.0,0.0,0.0,0.0,0.0,0.0,5.6626,6.1044,6.3476,6.5573,6.7391,6.7065,6.5981,6.4095,6.1701,5.854,0.0,0.0,0.0,0.0,0.0,0.0,0.0,0.0,0.0,0.0,0.0,0.0,0.0,0.0,0.0,0.0,0.0,0.0,0.0,0.0,0.0,0.0,0.0,0.0,0.0,0.0,0.0,0.0,3.8692,3.9309,3.9493,0.0,0.0,0.0,0.0,0.0,0.0,0.0,0.0,0.0,0.0,4.6617,4.6894,4.7796,4.8193,4.737,4.749,4.7331,4.6505,4.5777,4.4884,4.3714,0.0,0.0,0.0,0.0,0.0,0.0,0.0,0.0,0.0,0.0,0.0,0.0,0.0,0.0,0.0,0.0,0.0,0.0,0.0,0.0,0.0,0.0,0.0,0.0,0.0,0.0,0.0,0.0,0.0,0.0,0.0,0.0,0.0,0.0,0.0,0.0,0.0,0.0,0.0,0.0,0.0,0.0,0.0,0.0,0.0,0.0,0.0,0.0,0.0,0.0,0.0,0.0,0.0,5.4958,5.9698,6.1928,6.4136,6.6452,6.6301,6.5164,6.3091,6.0256,5.7039,0.0,0.0,0.0,0.0,0.0,0.0,0.0,0.0,0.0,0.0,0.0,0.0,0.0,0.0,0.0,0.0,0.0,0.0,0.0,0.0,0.0,0.0,0.0,0.0,0.0,0.0,0.0,0.0,3.6442,3.7626,3.8437,0.0,0.0,0.0,0.0,0.0,0.0,0.0,0.0,0.0,0.0,4.574,4.5456,4.6327,0.0,0.0,4.6068,4.5936,4.5664,4.4999,4.4133,4.3291,4.139,0.0,0.0,0.0,0.0,0.0,0.0,0.0,0.0,0.0,0.0,0.0,0.0,0.0,0.0,0.0,0.0,0.0,0.0,0.0,0.0,0.0,0.0,0.0,0.0,0.0,0.0,0.0,0.0,0.0,0.0,0.0,0.0,0.0,0.0,0.0,0.0,0.0,0.0,0.0,0.0,0.0,0.0,0.0,0.0,0.0,0.0,0.0,0.0,0.0,0.0,0.0,0.0,5.2848,5.7331,5.9714,6.2456,6.5495,6.5044,6.4246,6.3081,5.8789,5.5487,0.0,0.0,0.0,0.0,0.0,0.0,0.0,0.0,0.0,0.0,0.0,0.0,0.0,0.0,0.0,0.0,0.0,0.0,0.0,0.0,0.0,0.0,0.0,0.0,0.0,0.0,0.0,0.0,0.0,0.0,0.0,0.0,0.0,0.0,0.0,0.0,0.0,0.0,0.0,0.0,0.0,4.4182,4.3997,4.4549,4.4921,0.0,4.4918,4.488,4.4757,4.374,4.2703,4.184,0.0,0.0,0.0,0.0,0.0,0.0,0.0,0.0,0.0,0.0,0.0,0.0,0.0,0.0,0.0,0.0,0.0,0.0,0.0,0.0,0.0,0.0,0.0,0.0,0.0,0.0,0.0,0.0,0.0,0.0,0.0,0.0,0.0,0.0,0.0,0.0,0.0,0.0,0.0,0.0,0.0,0.0,0.0,0.0,0.0,0.0,0.0,0.0,0.0,0.0,0.0,0.0,0.0,0.0,5.6309,5.9502,6.2326,6.4698,6.5062,6.4377,6.2621,5.9214,0.0,0.0,0.0,0.0,0.0,0.0,0.0,0.0,0.0,0.0,0.0,0.0,0.0,0.0,0.0,0.0,0.0,0.0,0.0,0.0,0.0,0.0,0.0,0.0,0.0,0.0,0.0,2.9576,0.0,0.0,0.0,0.0,0.0,0.0,0.0,0.0,0.0,0.0,0.0,0.0,0.0,0.0,4.1875,4.2577,4.2896,4.3093,0.0,0.0,4.3208,4.3167,4.2325,4.1414,0.0,0.0,0.0,0.0,0.0,0.0,0.0,0.0,0.0,0.0,0.0,0.0,0.0,0.0,0.0,0.0,0.0,0.0,0.0,0.0,0.0,0.0,0.0,0.0,0.0,0.0,0.0,0.0,0.0,0.0,0.0,0.0,0.0,0.0,0.0,0.0,0.0,0.0,0.0,0.0,0.0,0.0,0.0,0.0,0.0,0.0,0.0,0.0,0.0,0.0,0.0,0.0,0.0,0.0,5.1583,5.5383,5.8292,6.0856,6.29,6.3737,6.3218,6.1306,5.8356,5.4932,0.0,0.0,0.0,0.0,0.0,0.0,0.0,0.0,0.0,0.0,0.0,0.0,0.0,0.0,0.0,0.0,0.0,0.0,0.0,0.0,0.0,0.0,0.0,0.0,0.0,0.0,0.0,0.0,0.0,0.0,0.0,0.0,0.0,0.0,0.0,0.0,0.0,0.0,0.0,0.0,0.0,0.0,4.0885,4.0933,0.0,0.0,0.0,4.0396,4.0396,0.0,0.0,0.0,0.0,0.0,0.0,0.0,0.0,0.0,0.0,0.0,0.0,0.0,0.0,0.0,0.0,0.0,0.0,0.0,0.0,0.0,0.0,0.0,0.0,0.0,0.0,0.0,0.0,0.0,0.0,0.0,0.0,0.0,0.0,0.0,0.0,0.0,0.0,0.0,0.0,0.0,0.0,0.0,0.0,0.0,0.0,0.0,0.0,0.0,0.0,0.0,0.0,0.0,0.0,0.0,0.0,0.0,5.4154,5.6637,5.8829,6.0633,6.1942,6.1773,6.0025,5.7054,5.4046,0.0,0.0,0.0,0.0,0.0,0.0,0.0,0.0,0.0,0.0,0.0,0.0,0.0,0.0,0.0,0.0,0.0,0.0,0.0,0.0,0.0,0.0,0.0,0.0,0.0,0.0,0.0,0.0,0.0,0.0,0.0,0.0,0.0,0.0,0.0,0.0,0.0,0.0,0.0,0.0,0.0,3.9712,3.9096,3.8816,3.849,0.0,0.0,3.7467,3.7507,3.7355,0.0,0.0,0.0,0.0,0.0,0.0,0.0,0.0,0.0,0.0,0.0,0.0,0.0,0.0,0.0,0.0,0.0,0.0,0.0,0.0,0.0,0.0,0.0,0.0,0.0,0.0,0.0,0.0,0.0,0.0,0.0,0.0,0.0,0.0,0.0,0.0,0.0,0.0,0.0,0.0,0.0,0.0,0.0,0.0,0.0,0.0,0.0,0.0,0.0,0.0,0.0,0.0,0.0,0.0,0.0,0.0,5.191,5.5863,5.849,5.9755,6.1617,6.196,6.064,5.7625,5.4328,0.0,0.0,0.0,0.0,0.0,0.0,0.0,0.0,0.0,0.0,0.0,0.0,0.0,0.0,0.0,0.0,0.0,0.0,0.0,0.0,0.0,0.0,0.0,0.0,0.0,0.0,0.0,0.0,0.0,0.0,0.0,0.0,0.0,0.0,0.0,0.0,0.0,0.0,0.0,0.0,0.0,3.715,3.7354,3.6732,0.0,0.0,0.0,0.0,3.7431,3.6405,0.0,0.0,0.0,0.0,0.0,0.0,0.0,0.0,0.0,0.0,0.0,0.0,0.0,0.0,0.0,0.0,0.0,0.0,0.0,0.0,0.0,0.0,0.0,0.0,0.0,0.0,0.0,0.0,0.0,0.0,0.0,0.0,0.0,0.0,0.0,0.0,0.0,0.0,0.0,0.0,0.0,0.0,0.0,0.0,0.0,0.0,0.0,0.0,0.0,0.0,0.0,0.0,0.0,0.0,0.0,0.0,5.151,5.4799,5.7152,5.8544,6.02,6.0474,5.9238,5.7013,5.3896,0.0,0.0,0.0,0.0,0.0,0.0,0.0,0.0,0.0,0.0,0.0,0.0,0.0,0.0,0.0,0.0,0.0,0.0,0.0,0.0,0.0,0.0,0.0,0.0,0.0,0.0,0.0,0.0,0.0,0.0,0.0,0.0,0.0,0.0,0.0,0.0,0.0,0.0,0.0,0.0,3.6873,3.6734,3.6991,0.0,0.0,0.0,0.0,0.0,0.0,3.4456,3.3676,0.0,0.0,0.0,0.0,0.0,0.0,0.0,0.0,0.0,0.0,0.0,0.0,0.0,0.0,0.0,0.0,0.0,0.0,0.0,0.0,0.0,0.0,0.0,0.0,0.0,0.0,0.0,0.0,0.0,0.0,0.0,0.0,0.0,0.0,0.0,0.0,0.0,0.0,0.0,0.0,0.0,0.0,0.0,0.0,0.0,0.0,0.0,0.0,0.0,0.0,0.0,0.0,0.0,0.0,0.0,5.1291,5.3557,5.5565,5.7274,5.8544,5.8657,5.7556,5.5981,5.2994,4.8664,0.0,0.0,0.0,0.0,0.0,0.0,0.0,0.0,0.0,0.0,0.0,0.0,0.0,0.0,0.0,0.0,0.0,0.0,0.0,0.0,0.0,0.0,0.0,0.0,0.0,0.0,0.0,0.0,0.0,0.0,0.0,0.0,0.0,0.0,0.0,0.0,0.0,0.0,0.0,3.629,3.6412,0.0,0.0,0.0,0.0,0.0,0.0,0.0,0.0,3.1717,0.0,0.0,0.0,0.0,0.0,0.0,0.0,0.0,0.0,0.0,0.0,0.0,0.0,0.0,0.0,0.0,0.0,0.0,0.0,0.0,0.0,0.0,0.0,0.0,0.0,0.0,0.0,0.0,0.0,0.0,0.0,0.0,0.0,0.0,0.0,0.0,0.0,0.0,0.0,0.0,0.0,0.0,0.0,0.0,0.0,0.0,0.0,0.0,0.0,0.0,0.0,0.0,0.0,0.0,0.0,0.0,5.1906,5.4352,5.6332,5.7302,5.7754,5.75,5.5083,5.1478,4.6708,0.0,0.0,0.0,0.0,0.0,0.0,0.0,0.0,0.0,0.0,0.0,0.0,0.0,0.0,0.0,0.0,0.0,0.0,0.0,0.0,0.0,0.0,0.0,0.0,0.0,0.0,0.0,0.0,0.0,0.0,0.0,0.0,0.0,0.0,0.0,0.0,0.0,0.0,3.3645,3.3465,0.0,0.0,0.0,0.0,0.0,0.0,0.0,0.0,3.152,0.0,0.0,0.0,0.0,0.0,0.0,0.0,0.0,0.0,0.0,0.0,0.0,0.0,0.0,0.0,0.0,0.0,0.0,0.0,0.0,0.0,0.0,0.0,0.0,0.0,0.0,0.0,0.0,0.0,0.0,0.0,0.0,0.0,0.0,0.0,0.0,0.0,0.0,0.0,0.0,0.0,0.0,0.0,0.0,0.0,0.0,0.0,0.0,0.0,0.0,0.0,0.0,0.0,0.0,0.0,0.0,0.0,0.0,5.3194,5.4296,5.5937,5.6426,5.5527,5.3081,4.971,0.0,0.0,0.0,0.0,0.0,0.0,0.0,0.0,0.0,0.0,0.0,0.0,0.0,0.0,0.0,0.0,0.0,0.0,0.0,0.0,0.0,0.0,0.0,0.0,0.0,0.0,0.0,0.0,0.0,0.0,0.0,0.0,0.0,0.0,0.0,0.0,0.0,0.0,0.0,0.0,0.0,0.0,0.0,0.0,0.0,0.0,0.0,0.0,0.0,0.0,0.0,0.0,0.0,0.0,0.0,0.0,0.0,0.0,0.0,0.0,0.0,0.0,0.0,0.0,0.0,0.0,0.0,0.0,0.0,0.0,0.0,0.0,0.0,0.0,0.0,0.0,0.0,0.0,0.0,0.0,0.0,0.0,0.0,0.0,0.0,0.0,0.0,0.0,0.0,0.0,0.0,0.0,0.0,0.0,0.0,0.0,0.0,0.0,0.0,0.0,0.0,0.0,0.0,0.0,0.0,0.0,0.0,0.0,5.2028,5.2929,5.4862,5.5083,5.3546,5.086,4.7808,0.0,0.0,0.0,0.0,0.0,0.0,0.0,0.0,0.0,0.0,0.0,0.0,0.0,0.0,0.0,0.0,0.0,0.0,0.0,0.0,0.0,0.0,0.0,0.0,0.0,0.0,0.0,0.0,0.0,0.0,0.0,0.0,0.0,0.0,0.0,0.0,0.0,0.0,0.0,0.0,0.0,0.0,0.0,0.0,0.0,0.0,0.0,0.0,2.8545,0.0,0.0,0.0,0.0,0.0,0.0,0.0,0.0,0.0,0.0,0.0,0.0,0.0,0.0,0.0,0.0,0.0,0.0,0.0,0.0,0.0,0.0,0.0,0.0,0.0,0.0,0.0,0.0,0.0,0.0,0.0,0.0,0.0,0.0,0.0,0.0,0.0,0.0,0.0,0.0,0.0,0.0,0.0,0.0,0.0,0.0,0.0,0.0,0.0,0.0,0.0,0.0,0.0,0.0,0.0,0.0,0.0,0.0,0.0,5.0756,5.3611,5.4385,5.4037,5.261,4.9111,4.5928,0.0,0.0,0.0,0.0,0.0,0.0,0.0,0.0,0.0,0.0,0.0,0.0,0.0,0.0,0.0,0.0,0.0,0.0,0.0,0.0,0.0,0.0,0.0,0.0,0.0,0.0,0.0,0.0,0.0,0.0,0.0,0.0,0.0,0.0,0.0,0.0,0.0,0.0,0.0,0.0,0.0,0.0,0.0,0.0,0.0,0.0,0.0,0.0,0.0,0.0,0.0,0.0,0.0,0.0,0.0,0.0,0.0,0.0,0.0,0.0,0.0,0.0,0.0,0.0,0.0,0.0,0.0,0.0,0.0,0.0,0.0,0.0,0.0,0.0,0.0,0.0,0.0,0.0,0.0,0.0,0.0,0.0,0.0,0.0,0.0,0.0,0.0,0.0,0.0,0.0,0.0,0.0,0.0,0.0,0.0,0.0,0.0,0.0,0.0,0.0,0.0,0.0,0.0,0.0,0.0,0.0,0.0,0.0,4.9286,5.0978,5.1619,5.137,5.0303,4.7657,4.5077,0.0,0.0,0.0,0.0,0.0,0.0,0.0,0.0,0.0,0.0,0.0,0.0,0.0,0.0,0.0,0.0,0.0,0.0,0.0,0.0,0.0,0.0,0.0,0.0,0.0,0.0,0.0,0.0,0.0,0.0,0.0,0.0,0.0,0.0,0.0,0.0,0.0,0.0,0.0,0.0,0.0,0.0,0.0,0.0,0.0,0.0,0.0,0.0,0.0,0.0,0.0,0.0,0.0,0.0,0.0,0.0,0.0,0.0,0.0,0.0,0.0,0.0,0.0,0.0,0.0,0.0,0.0,0.0,0.0,0.0,0.0,0.0,0.0,0.0,0.0,0.0,0.0,0.0,0.0,0.0,0.0,0.0,0.0,0.0,0.0,0.0,0.0,0.0,0.0,0.0,0.0,0.0,0.0,0.0,0.0,0.0,0.0,0.0,0.0,0.0,0.0,0.0,0.0,0.0,0.0,0.0,0.0,0.0,0.0,4.873,4.8928,4.8719,4.7896,4.6432,4.4171,0.0,0.0,0.0,0.0,0.0,0.0,0.0,0.0,0.0,0.0,0.0,0.0,0.0,0.0,0.0,0.0,0.0,0.0,0.0,0.0,0.0,0.0,0.0,0.0,0.0,0.0,0.0,0.0,0.0,0.0,0.0,0.0,0.0,0.0,0.0,0.0,0.0,0.0,0.0,0.0,0.0,0.0,0.0,0.0,0.0,0.0,0.0,0.0,0.0,0.0,0.0,0.0,0.0,0.0,0.0,0.0,0.0,0.0,0.0,0.0,0.0,0.0,0.0,0.0,0.0,0.0,0.0,0.0,0.0,0.0,0.0,0.0,0.0,0.0,0.0,0.0,0.0,0.0,0.0,0.0,0.0,0.0,0.0,0.0,0.0,0.0,0.0,0.0,0.0,0.0,0.0,0.0,0.0,0.0,0.0,0.0,0.0,0.0,0.0,0.0,0.0,0.0,0.0,0.0,0.0,0.0,0.0,0.0,0.0,4.8046,4.7182,4.6473,4.6072,4.5297,4.2976,0.0,0.0,0.0,0.0,0.0,0.0,0.0,0.0,0.0,0.0,0.0,0.0,0.0,0.0,0.0,0.0,0.0,0.0,0.0,0.0,0.0,0.0,0.0,0.0,0.0,0.0,0.0,0.0,0.0,0.0,0.0,0.0,0.0,0.0,0.0,0.0,0.0,0.0,0.0,0.0,0.0,0.0,0.0,0.0,0.0,0.0,0.0,0.0,0.0,0.0,0.0,0.0,0.0,0.0,0.0,0.0,0.0,0.0,0.0,0.0,0.0,0.0,0.0,0.0,0.0,0.0,0.0,0.0,0.0,0.0,0.0,0.0,0.0,0.0,0.0,0.0,0.0,0.0,0.0,0.0,0.0,0.0,0.0,0.0,0.0,0.0,0.0,0.0,0.0,0.0,0.0,0.0,0.0,0.0,0.0,0.0,0.0,0.0,0.0,0.0,0.0,0.0,0.0,0.0,0.0,0.0,0.0,0.0,0.0,4.402,4.5174,4.5656,4.5266,4.388,4.1811,3.9178,0.0,0.0,0.0,0.0,0.0,0.0,0.0,0.0,0.0,0.0,0.0,0.0,0.0,0.0,0.0,0.0,0.0,0.0,0.0,0.0,0.0,0.0,0.0,0.0,0.0,0.0,0.0,0.0,0.0,0.0,0.0,0.0,0.0,0.0,0.0,0.0,0.0,0.0,0.0,0.0,0.0,0.0,0.0,0.0,0.0,0.0,0.0,0.0,0.0,0.0,0.0,0.0,0.0,0.0,0.0,0.0,0.0,0.0,0.0,0.0,0.0,0.0,0.0,0.0,0.0,0.0,0.0,0.0,0.0,0.0,0.0,0.0,0.0,0.0,0.0,0.0,0.0,0.0,0.0,0.0,0.0,0.0,0.0,0.0,0.0,0.0,0.0,0.0,0.0,0.0,0.0,0.0,0.0,0.0,0.0,0.0,0.0,0.0,0.0,0.0,0.0,0.0,0.0,0.0,0.0,0.0,0.0,0.0,4.1772,4.3452,4.4407,4.4433,4.2705,4.0613,0.0,0.0,0.0,0.0,0.0,0.0,0.0,0.0,0.0,0.0,0.0,0.0,0.0,0.0,0.0,0.0,0.0,0.0,0.0,0.0,0.0,0.0,0.0,0.0,0.0,0.0,0.0,0.0,0.0,0.0,0.0,0.0,0.0,0.0,0.0,0.0,0.0,0.0,0.0,0.0,0.0,0.0,0.0,0.0,0.0,0.0,0.0,0.0,0.0,0.0,0.0,0.0,0.0,0.0,0.0,0.0,0.0,0.0,0.0,0.0,0.0,0.0,0.0,0.0,0.0,0.0,0.0,0.0,0.0,0.0,0.0,0.0,0.0,0.0,0.0,0.0,0.0,0.0,0.0,0.0,0.0,0.0,0.0,0.0,0.0,0.0,0.0,0.0,0.0,0.0,0.0,0.0,0.0,0.0,0.0,0.0,0.0,0.0,0.0,0.0,0.0,0.0,0.0,0.0,0.0,0.0,0.0,0.0,3.7977,4.1873,4.1868,4.2279,4.3435,4.1817,3.9331,0.0,0.0,0.0,0.0,0.0,0.0,0.0,0.0,0.0,0.0,0.0,0.0,0.0,0.0,0.0,0.0,0.0,0.0,0.0,0.0,0.0,0.0,0.0,0.0,0.0,0.0,0.0,0.0,0.0,0.0,0.0,0.0,0.0,0.0,0.0,0.0,0.0,0.0,0.0,0.0,0.0,0.0,0.0,0.0,0.0,0.0,0.0,0.0,0.0,0.0,0.0,0.0,0.0,0.0,0.0,0.0,0.0,0.0,0.0,0.0,0.0,0.0,0.0,0.0,0.0,0.0,0.0,0.0,0.0,0.0,0.0,0.0,0.0,0.0,0.0,0.0,0.0,0.0,0.0,0.0,0.0,0.0,0.0,0.0,0.0,0.0,0.0,0.0,0.0,0.0,0.0,0.0,0.0,0.0,0.0,0.0,0.0,0.0,0.0,0.0,0.0,0.0,0.0,0.0,0.0,0.0,0.0,0.0,0.0,3.7875,0.0,3.9291,0.0,3.8653,3.7014,0.0,0.0,0.0,0.0,0.0,0.0,0.0,0.0,0.0,0.0,0.0,0.0,0.0,0.0,0.0,0.0,0.0,0.0,0.0,0.0,0.0,0.0,0.0,0.0,0.0,0.0,0.0,0.0,0.0,0.0,0.0,0.0,0.0,0.0,0.0,0.0,0.0,0.0,0.0,0.0,0.0,0.0,0.0,0.0,0.0,0.0,0.0,0.0,0.0,0.0,0.0,0.0,0.0,0.0,0.0,0.0,0.0,0.0,0.0,0.0,0.0,0.0,0.0,0.0,0.0,0.0,0.0,0.0,0.0,0.0,0.0,0.0,0.0,0.0,0.0,0.0,0.0,0.0,0.0,0.0,0.0,0.0,0.0,0.0,0.0,0.0,0.0,0.0,0.0,0.0,0.0,0.0,0.0,0.0,0.0,0.0,0.0,0.0,0.0,0.0,0.0,0.0,0.0,0.0,0.0,0.0,0.0,0.0,0.0,3.4427,3.6245,3.7347,3.7699,3.6709,3.5558,0.0,0.0,0.0,0.0,0.0,0.0,0.0,0.0,0.0,0.0,0.0,0.0,0.0,0.0,0.0,0.0,0.0,0.0,0.0,0.0,0.0,0.0,0.0,0.0,0.0,0.0,0.0,0.0,0.0,0.0,0.0,0.0,0.0,0.0,0.0,0.0,0.0,0.0,0.0,0.0,0.0,0.0,0.0,0.0,0.0,0.0,0.0,0.0,0.0,0.0,0.0,0.0,0.0,0.0,0.0,0.0,0.0,0.0,0.0,0.0,0.0,0.0,0.0,0.0,0.0,0.0,0.0,0.0,0.0,0.0,0.0,0.0,0.0,0.0,0.0,0.0,0.0,0.0,0.0,0.0,0.0,0.0,0.0,0.0,0.0,0.0,0.0,0.0,0.0,0.0,0.0,0.0,0.0,0.0,0.0,0.0,0.0,0.0,0.0,0.0,0.0,0.0,0.0,0.0,0.0,0.0,0.0,0.0,0.0,0.0,3.4439,3.6297,3.7407,3.6002,3.4777,0.0,0.0,0.0,0.0,0.0,0.0,0.0,0.0,0.0,0.0,0.0,0.0,0.0,0.0,0.0,0.0,0.0,0.0,0.0,0.0,0.0,0.0,0.0,0.0,0.0,0.0,0.0,0.0,0.0,0.0,0.0,0.0,0.0,0.0,0.0,0.0,0.0,0.0,0.0,0.0,0.0,0.0,0.0,0.0,0.0,0.0,0.0,0.0,0.0,0.0,0.0,0.0,0.0,0.0,0.0,0.0,0.0,0.0,0.0,0.0,0.0,0.0,0.0,0.0,0.0,0.0,0.0,0.0,0.0,0.0,0.0,0.0,0.0,0.0,0.0,0.0,0.0,0.0,0.0,0.0,0.0,0.0,0.0,0.0,0.0,0.0,0.0,0.0,0.0,0.0,0.0,0.0,0.0,0.0,0.0,0.0,0.0,0.0,0.0,0.0,0.0,0.0,0.0,0.0,0.0,0.0,0.0,0.0,0.0,0.0,3.2605,0.0,3.4922,3.4327,3.3239,3.1748,0.0,0.0,0.0,0.0,0.0,0.0,0.0,0.0,0.0,0.0,0.0,0.0,0.0,0.0,0.0,0.0,0.0,0.0,0.0,0.0,0.0,0.0,0.0,0.0,0.0,0.0,0.0,0.0,0.0,0.0,0.0,0.0,0.0,0.0,0.0,0.0,0.0,0.0,0.0,0.0,0.0,0.0,0.0,0.0,0.0,0.0,0.0,0.0,0.0,0.0,0.0,0.0,0.0,0.0,0.0,0.0,0.0,0.0,0.0,0.0,0.0,0.0,0.0,0.0,0.0,0.0,0.0,0.0,0.0,0.0,0.0,0.0,0.0,0.0,0.0,0.0,0.0,0.0,0.0,0.0,0.0,0.0,0.0,0.0,0.0,0.0,0.0,0.0,0.0,0.0,0.0,0.0,0.0,0.0,0.0,0.0,0.0,0.0,0.0,0.0,0.0,0.0,0.0,0.0,0.0,0.0,0.0,0.0,0.0,0.0,0.0,3.3132,3.3411,3.2676,0.0,0.0,0.0,0.0,0.0,0.0,0.0,0.0,0.0,0.0,0.0,0.0,0.0,0.0,0.0,0.0,0.0,0.0,0.0,0.0,0.0,0.0,0.0,0.0,0.0,0.0,0.0,0.0,0.0,0.0,0.0,0.0,0.0,0.0,0.0,0.0,0.0,0.0,0.0,0.0,0.0,0.0,0.0,0.0,0.0,0.0,0.0,0.0,0.0,0.0,0.0,0.0,0.0,0.0,0.0,0.0,0.0,0.0,0.0,0.0,0.0,0.0,0.0,0.0,0.0,0.0,0.0,0.0,0.0,0.0,0.0,0.0,0.0,0.0,0.0,0.0,0.0,0.0,0.0,0.0,0.0,0.0,0.0,0.0,0.0,0.0,0.0,0.0,0.0,0.0,0.0,0.0,0.0,0.0,0.0,0.0,0.0,0.0,0.0,0.0,0.0,0.0,0.0,0.0,0.0,0.0,0.0,0.0,0.0,0.0,0.0,3.1596,3.1918,3.2868,0.0,3.0827,0.0,0.0,0.0,0.0,0.0,0.0,0.0,0.0,0.0,0.0,0.0,0.0,0.0,0.0,0.0,0.0,0.0,0.0,0.0,0.0,0.0,0.0,0.0,0.0,0.0,0.0,0.0,0.0,0.0,0.0,0.0,0.0,0.0,0.0,0.0,0.0,0.0,0.0,0.0,0.0,0.0,0.0,0.0,0.0,0.0,0.0,0.0,0.0,0.0,0.0,0.0,0.0,0.0,0.0,0.0,0.0,0.0,0.0,0.0,0.0,0.0,0.0,0.0,0.0,0.0,0.0,0.0,0.0,0.0,0.0,0.0,0.0,0.0,0.0,0.0,0.0,0.0,0.0,0.0,0.0,0.0,0.0,0.0,0.0,0.0,0.0,0.0,0.0,0.0,0.0,0.0,0.0,0.0,0.0,0.0,0.0,0.0,0.0,0.0,0.0,0.0,0.0,0.0,0.0,0.0,0.0,0.0,0.0,0.0,0.0,0.0,0.0,3.1123,3.091,3.1309,0.0,0.0,0.0,0.0,0.0,0.0,0.0,0.0,0.0,0.0,0.0,0.0,0.0,0.0,0.0,0.0,0.0,0.0,0.0,0.0,0.0,0.0,0.0,0.0,0.0,0.0,0.0,0.0,0.0,0.0,0.0,0.0,0.0,0.0,0.0,0.0,0.0,0.0,0.0,0.0,0.0,0.0,0.0,0.0,0.0,0.0,0.0,0.0,0.0,0.0,0.0,0.0,0.0,0.0,0.0,0.0,0.0,0.0,0.0,0.0,0.0,0.0,0.0,0.0,0.0,0.0,0.0,0.0,0.0,0.0,0.0,0.0,0.0,0.0,0.0,0.0,0.0,0.0,0.0,0.0,0.0,0.0,0.0,0.0,0.0,0.0,0.0,0.0,0.0,0.0,0.0,0.0,0.0,0.0,0.0,0.0,0.0,0.0,0.0,0.0,0.0,0.0,0.0,0.0,0.0,0.0,0.0,0.0,0.0,0.0,2.8645,3.0822,3.0133,3.0051,3.06,0.0,0.0,0.0,0.0,0.0,0.0,0.0,0.0,0.0,0.0,0.0,0.0,0.0,0.0,0.0,0.0,0.0,0.0,0.0,0.0,0.0,0.0,0.0,0.0,0.0,0.0,0.0,0.0,0.0,0.0,0.0,0.0,0.0,0.0,0.0,0.0,0.0,0.0,0.0,0.0,0.0,0.0,0.0,0.0,0.0,0.0,0.0,0.0,0.0,0.0,0.0,0.0,0.0,0.0,0.0,0.0,0.0,0.0,0.0,0.0,0.0,0.0,0.0,0.0,0.0,0.0,0.0,0.0,0.0,0.0,0.0,0.0,0.0,0.0,0.0,0.0,0.0,0.0,0.0,0.0,0.0,0.0,0.0,0.0,0.0,0.0,0.0,0.0,0.0,0.0,0.0,0.0,0.0,0.0,0.0,0.0,0.0,0.0,0.0,0.0,0.0,0.0,0.0,0.0,0.0,0.0,0.0,0.0,0.0,0.0,0.0,0.0,0.0,0.0,2.9286,0.0,0.0,0.0,0.0,0.0,0.0,0.0,0.0,0.0,0.0,0.0,0.0,0.0,0.0,0.0,0.0,0.0,0.0,0.0,0.0,0.0,0.0,0.0,0.0,0.0,0.0,0.0,0.0,0.0,0.0,0.0,0.0,0.0,0.0,0.0,0.0,0.0,0.0,0.0,0.0,0.0,0.0,0.0,0.0,0.0,0.0,0.0,0.0,0.0,0.0,0.0,0.0,0.0,0.0,0.0,0.0,0.0,0.0,0.0,0.0,0.0,0.0,0.0,0.0,0.0,0.0,0.0,0.0,0.0,0.0,0.0,0.0,0.0,0.0,0.0,0.0,0.0,0.0,0.0,0.0,0.0,0.0,0.0,0.0,0.0,0.0,0.0,0.0,0.0,0.0,0.0,0.0,0.0,0.0,0.0,0.0,0.0,0.0,0.0,0.0,0.0,0.0,0.0,0.0,0.0,0.0,0.0,0.0,0.0,0.0,0.0,0.0,0.0,0.0,0.0,0.0,0.0,0.0,0.0,0.0,0.0,0.0,0.0,0.0,0.0,0.0,0.0,0.0,0.0,0.0,0.0,0.0,0.0,0.0,0.0,0.0,0.0,0.0,0.0,0.0,0.0,0.0,0.0,0.0,0.0,0.0,0.0,0.0,0.0,0.0,0.0,0.0,0.0,0.0,0.0,0.0,0.0,0.0,0.0,0.0,0.0,0.0,0.0,0.0,0.0,0.0,0.0,0.0,0.0,0.0,0.0,0.0,0.0,0.0,0.0,0.0,0.0,0.0,0.0,0.0,0.0,0.0,0.0,0.0,0.0,0.0,0.0,0.0,0.0,0.0,0.0,0.0,0.0,0.0,0.0,0.0,0.0,0.0,0.0,0.0,0.0,0.0,0.0,0.0,0.0,0.0,0.0,0.0,0.0,0.0,0.0,0.0,0.0,0.0,0.0,0.0,0.0,0.0,0.0,0.0,0.0,0.0,0.0,0.0,0.0,0.0,0.0,0.0,0.0,0.0,0.0,0.0,0.0,0.0,0.0,0.0,0.0,0.0,0.0,0.0,0.0,0.0,0.0,0.0,0.0,0.0,0.0,0.0,0.0,0.0,0.0,0.0,0.0,0.0,0.0,0.0,0.0,0.0,0.0,0.0,0.0,0.0,0.0,0.0,0.0,0.0,0.0,0.0,0.0,0.0,0.0,0.0,0.0,0.0,0.0,0.0,0.0,0.0,0.0,0.0,0.0,0.0,0.0,0.0,0.0,0.0,0.0,0.0,0.0,0.0,0.0,0.0,0.0,0.0,0.0,0.0,0.0,0.0,0.0,0.0,0.0,0.0,0.0,0.0,0.0,0.0,0.0,0.0,0.0,0.0,0.0,0.0,0.0,0.0,0.0,0.0,0.0,0.0,0.0,0.0,0.0,0.0,0.0,0.0,0.0,0.0,0.0,0.0,0.0,0.0,0.0,0.0,0.0,0.0,0.0,0.0,0.0,0.0,0.0,0.0,0.0,0.0,0.0,0.0,0.0,0.0,0.0,0.0,0.0,0.0,0.0,0.0,0.0,0.0,0.0,0.0,0.0,0.0,0.0,0.0,0.0,0.0,0.0,0.0,0.0,0.0,0.0,0.0,0.0,0.0,0.0,0.0,0.0,0.0,0.0,0.0,0.0,0.0,0.0,0.0,0.0,0.0,0.0,0.0,0.0,0.0,0.0,0.0,0.0,0.0,0.0,0.0,0.0,0.0,0.0,0.0,0.0,0.0,0.0,0.0,0.0,0.0,0.0,0.0,0.0,0.0,0.0,0.0,0.0,0.0,0.0,0.0,0.0,0.0,0.0,0.0,0.0,0.0,0.0,0.0,0.0,0.0,0.0,0.0,0.0,0.0,0.0,0.0,0.0,0.0,0.0,0.0,0.0,0.0,0.0,0.0,0.0,0.0,0.0,0.0,0.0,0.0,0.0,0.0,0.0,0.0,0.0,0.0,0.0,0.0,0.0,0.0,0.0,0.0,0.0,0.0,0.0,0.0,0.0,0.0,0.0,0.0,0.0,0.0,0.0,0.0,0.0,0.0,0.0,0.0,0.0,0.0,0.0,0.0,0.0,0.0,0.0,0.0,0.0,0.0,0.0,0.0,0.0,0.0,0.0,0.0,0.0,0.0,0.0,0.0,0.0,0.0,0.0,0.0,0.0,0.0,0.0,0.0,0.0,0.0,0.0,0.0,0.0,0.0,0.0,0.0,0.0,0.0,0.0,0.0,0.0,0.0,0.0,0.0,0.0,0.0,0.0,0.0,0.0,0.0,0.0,0.0,0.0,0.0,0.0,0.0,0.0,0.0,0.0,0.0,0.0,0.0,0.0,0.0,0.0,0.0,0.0,0.0,0.0,0.0,0.0,0.0,0.0,0.0,0.0,0.0,0.0,0.0,0.0,0.0,0.0,0.0,0.0,0.0,0.0,0.0,0.0,0.0,0.0,0.0,0.0,0.0,0.0,0.0,0.0,0.0,0.0,0.0,0.0,0.0,0.0,0.0,0.0,0.0,0.0,0.0,0.0,0.0,0.0,0.0,0.0,0.0,0.0,0.0,0.0,0.0,0.0,0.0,0.0,0.0,0.0,0.0,0.0,0.0,0.0,0.0,0.0,0.0,0.0,0.0,0.0,0.0,0.0,0.0,0.0,0.0,0.0,0.0,0.0,0.0,0.0,0.0,0.0,0.0,0.0,0.0,0.0,0.0,0.0,0.0,0.0,0.0,0.0,0.0,0.0,0.0,0.0,0.0,0.0,0.0,0.0,0.0,0.0,0.0,0.0,0.0,0.0,0.0,0.0,0.0,0.0,0.0,0.0,0.0,0.0,0.0,0.0,0.0,0.0,0.0,0.0,0.0,0.0,0.0,0.0,0.0,0.0,0.0,0.0,0.0,0.0,0.0,0.0,0.0,0.0,0.0,0.0,0.0,0.0,0.0,0.0,0.0,0.0,0.0,0.0,0.0,0.0,0.0,0.0,0.0,0.0,0.0,0.0,0.0,0.0,0.0,0.0,0.0,0.0,0.0,0.0,0.0,0.0,0.0,0.0,0.0,0.0,0.0,0.0,0.0,0.0,0.0,0.0,0.0,0.0,0.0,0.0,0.0,0.0,0.0,0.0,0.0,0.0,0.0,0.0,0.0,0.0,0.0,0.0,0.0,0.0,0.0,0.0,0.0,0.0,0.0,0.0,0.0,0.0,0.0,0.0,0.0,0.0,0.0,0.0,0.0,0.0,0.0,0.0,0.0,0.0,0.0,0.0,0.0,0.0,0.0,0.0,0.0,0.0,0.0,0.0,0.0,0.0,0.0,0.0,0.0,0.0,0.0,0.0,0.0,0.0,0.0,0.0,0.0,0.0,0.0,0.0,0.0,0.0,0.0,0.0,0.0,0.0,0.0,0.0,0.0,0.0,0.0,0.0,0.0,0.0,0.0,0.0,0.0,0.0,0.0,0.0,0.0,0.0,0.0,0.0,0.0,0.0,0.0,0.0,0.0,0.0,0.0,0.0,0.0,0.0,0.0,0.0,0.0,0.0,0.0,0.0,0.0,0.0,0.0,0.0,0.0,0.0,0.0,0.0,0.0,0.0,0.0,0.0,0.0,0.0,0.0,0.0,0.0,0.0,0.0,0.0,0.0,0.0,0.0,0.0,0.0,0.0,0.0,0.0,0.0,0.0,0.0,0.0,0.0,0.0,0.0,0.0,0.0,0.0,0.0,0.0,0.0,0.0,0.0,0.0,0.0,0.0,0.0,0.0,0.0,0.0,0.0,0.0,0.0,0.0,0.0,0.0,0.0,0.0,0.0,0.0,0.0,0.0,0.0,0.0,0.0,0.0,0.0,0.0,0.0,0.0,0.0,0.0,0.0,0.0,0.0,0.0,0.0,0.0,0.0,0.0,0.0,0.0,0.0,0.0,0.0,0.0,0.0,0.0,0.0,0.0,0.0,0.0,0.0,0.0,0.0,0.0,0.0,0.0,0.0,0.0,0.0,0.0,0.0,0.0,0.0,0.0,0.0,0.0,0.0,0.0,0.0,0.0,0.0,0.0,0.0,0.0,0.0,0.0,0.0,0.0,0.0,0.0,0.0,0.0,0.0,0.0,0.0,0.0,0.0,0.0,0.0,0.0,0.0,0.0,0.0,0.0,0.0,0.0,0.0,0.0,0.0,0.0,0.0,0.0,0.0,0.0,0.0,0.0,0.0,0.0,0.0,0.0,0.0,0.0,0.0,0.0,0.0,0.0,0.0,0.0,0.0,0.0,0.0,0.0,0.0,0.0,0.0,0.0,0.0,0.0,0.0,0.0,0.0,0.0,0.0,0.0,0.0,0.0,0.0,0.0,0.0]}],[{"header":{"parameterUnit":"kt","parameterCategory":2,"dx":1,"dy":1,"la1":29.587661999999998,"la2":31.0,"lo1":-88.76705300000003,"lo2":-86.6583820000003,"nx":115,"ny":88,"refTime":"2022-09-30T18:00:00:Z","depth":0,"parameterNumber":2,"parameterNumberName":"V-component_of_WINDS"},"data":[7.3671,7.3671,7.3671,7.3888,7.4324,7.4817,7.5247,7.5675,7.6161,7.6429,7.6482,7.6588,7.759,7.8961,8.0966,8.1862,8.1968,8.2601,8.3228,8.3486,8.3151,8.359,8.4222,8.4633,8.534,8.6391,8.7608,8.8496,8.9331,9.0801,9.2181,9.3176,9.4619,9.5616,9.6401,9.6866,9.7366,9.8073,9.845,9.8748,9.934,9.956,9.956,9.9875,9.9938,10.0064,10.039,10.0647,10.0957,10.1567,10.2726,10.4061,10.5116,10.5953,10.6897,10.7907,10.9088,11.0423,11.2151,11.4001,11.5295,11.673,11.7514,11.8548,11.8617,11.8698,11.8698,11.8698,11.8698,11.8698,11.8727,11.8756,11.8871,11.8916,11.9228,11.9728,12.0432,12.1187,12.1815,12.23,12.2701,12.2955,12.3182,12.3366,12.35,12.35,12.35,12.35,12.3478,12.3544,12.3588,12.3588,12.3588,12.361,12.361,12.361,12.361,12.361,12.361,12.361,12.361,12.361,12.4115,12.4549,12.5198,12.6065,12.7148,12.7798,12.8953,12.9747,13.0541,13.148,13.2419,13.3213,13.3213,7.3671,7.3671,7.3671,7.3888,7.4324,7.4817,7.5247,7.5631,7.6161,7.6386,7.6544,7.7484,7.9225,8.0544,8.1651,8.239,8.2917,8.3281,8.3386,8.358,8.3809,8.4229,8.4694,8.5156,8.5981,8.7069,8.8541,8.9549,9.0501,9.1945,9.3153,9.3872,9.492,9.601,9.6401,9.6866,9.7442,9.8149,9.8487,9.8823,9.923,9.956,10.019,10.082,10.1349,10.1916,10.2784,10.3274,10.3235,10.3689,10.4083,10.5274,10.6217,10.712,10.8105,10.9201,11.0423,11.2084,11.3748,11.5269,11.6497,11.7519,11.8265,11.8657,11.8686,11.8756,11.8756,11.8756,11.8756,11.8756,11.8756,11.8785,11.8928,11.9099,11.9479,11.9877,12.0782,12.1666,12.2204,12.2678,12.2978,12.3227,12.3455,12.3544,12.3588,12.361,12.361,12.361,12.361,12.361,12.361,12.361,12.361,12.361,12.361,12.361,12.361,12.361,12.361,12.361,12.3682,12.4115,12.4549,12.5198,12.6209,12.7148,12.8159,12.9458,13.0036,13.0686,13.1552,13.2419,13.3213,13.3213,13.3213,7.3671,7.3671,7.3671,7.3888,7.4236,7.4501,7.4985,7.5588,7.5901,7.6302,7.7046,7.8511,8.0016,8.144,8.2337,8.3023,8.3234,8.3439,8.358,8.3815,8.4136,8.4601,8.5156,8.5761,8.6572,8.7563,8.9112,9.0629,9.1735,9.307,9.4013,9.47,9.5339,9.6128,9.675,9.6943,9.7442,9.8337,9.8337,9.8823,9.9487,9.9686,10.0253,10.1072,10.1701,10.2444,10.349,10.4469,10.4925,10.5565,10.6289,10.7288,10.8141,10.8854,10.9791,11.0794,11.2069,11.3521,11.4816,11.6143,11.7334,11.7904,11.8513,11.8727,11.8756,11.8756,11.8756,11.8756,11.8756,11.8756,11.8756,11.8785,11.8928,11.9269,11.9646,12.0272,12.104,12.1962,12.2631,12.3024,12.3277,12.3478,12.3522,12.361,12.361,12.361,12.361,12.361,12.361,12.361,12.361,12.361,12.361,12.361,12.361,12.361,12.361,12.361,12.361,12.3754,12.3971,12.4476,12.5198,12.6281,12.7292,12.8375,12.9675,13.1119,13.1841,13.1769,13.2491,13.3213,13.3213,13.3213,13.3814,7.3671,7.3671,7.3671,7.3799,7.4103,7.4236,7.4626,7.5239,7.5335,7.6195,7.7774,7.9129,8.0565,8.2027,8.297,8.3234,8.3433,8.3627,8.3862,8.4042,8.4562,8.5064,8.5716,8.6391,8.7339,8.8319,8.9549,9.1099,9.2448,9.3523,9.4458,9.5299,9.5616,9.6245,9.6905,9.6982,9.7442,9.8299,9.8412,9.8786,9.9576,9.9875,10.0694,10.1701,10.2923,10.3894,10.5196,10.619,10.7002,10.7552,10.8764,10.9644,11.0545,11.1013,11.162,11.2432,11.3585,11.4609,11.5702,11.6728,11.754,11.8044,11.8338,11.8542,11.8727,11.8756,11.8756,11.8756,11.8756,11.8756,11.8785,11.8813,11.8928,11.941,11.9881,12.0564,12.1315,12.2204,12.3024,12.3344,12.35,12.3566,12.3588,12.361,12.361,12.361,12.361,12.361,12.361,12.361,12.361,12.361,12.361,12.361,12.361,12.361,12.361,12.361,12.3754,12.3971,12.426,12.5126,12.6137,12.7292,12.8664,12.9964,13.1263,13.2491,13.278,13.278,13.3213,13.3213,13.3213,13.4075,13.4919,7.3671,7.3671,7.3671,7.3716,7.3805,7.4059,7.4324,7.4368,7.4457,7.6042,7.8527,7.9126,8.0704,8.2712,8.3281,8.3439,8.3486,8.3809,8.4089,8.4182,8.4925,8.5707,8.6391,8.7204,8.8319,8.9492,9.0715,9.1819,9.3112,9.4013,9.476,9.5735,9.5792,9.6184,9.6843,9.6959,9.7442,9.8187,9.845,9.8936,9.9717,10.082,10.1979,10.3402,10.4803,10.6349,10.7798,10.892,10.9609,10.9611,10.9944,11.0407,11.0866,11.1238,11.2578,11.3593,11.4446,11.5374,11.631,11.7064,11.7574,11.7845,11.8073,11.8367,11.864,11.8727,11.8756,11.8756,11.8756,11.8756,11.8813,11.8842,11.9156,11.9633,12.0261,12.0956,12.1666,12.2419,12.3092,12.3478,12.3588,12.3588,12.361,12.361,12.361,12.361,12.361,12.361,12.361,12.361,12.361,12.361,12.361,12.361,12.361,12.361,12.361,12.3827,12.3899,12.426,12.5487,12.6354,12.7076,12.8592,13.018,13.148,13.2274,13.2635,13.3068,13.326,13.3284,13.3237,13.4075,13.5295,13.6402,7.3671,7.3671,7.3671,7.3671,7.3716,7.3799,7.3888,7.3932,7.4147,7.5915,7.8567,7.8997,8.0664,8.3081,8.3392,8.3439,8.3433,8.3902,8.4322,8.4647,8.5524,8.6346,8.7249,8.8186,8.9375,9.0544,9.1608,9.2573,9.3523,9.4237,9.492,9.5713,9.5792,9.6262,9.6728,9.7036,9.7518,9.8011,9.8612,9.936,10.0234,10.1223,10.2923,10.4511,10.5575,10.7252,10.8871,11.0198,11.1073,11.1684,11.242,11.2772,11.2939,11.2999,11.4024,11.4699,11.5385,11.6007,11.6633,11.7216,11.743,11.7604,11.7925,11.8221,11.8466,11.864,11.8727,11.8756,11.8756,11.8785,11.8842,11.8957,11.941,11.9951,12.0635,12.1315,12.201,12.2678,12.3092,12.3522,12.361,12.361,12.361,12.361,12.361,12.361,12.361,12.361,12.361,12.361,12.361,12.361,12.361,12.361,12.361,12.361,12.4188,12.4693,12.4837,12.5704,12.7003,12.7942,12.8592,12.9964,13.148,13.213,13.278,13.3068,13.3307,13.3329,13.3471,13.4788,13.6295,13.727,13.8519,7.3671,7.3671,7.3671,7.3671,7.3671,7.3671,7.3671,7.3767,7.434,7.5909,7.8362,7.9035,8.0806,8.3098,8.3345,8.3392,8.3621,8.3996,8.4508,8.5156,8.5936,8.6979,8.8009,8.9068,9.0329,9.1481,9.2448,9.3318,9.3953,9.4237,9.492,9.5695,9.5753,9.6323,9.675,9.6959,9.7594,9.8211,9.8897,9.9923,10.0999,10.2482,10.402,10.5638,10.6845,10.8308,10.9834,11.1105,11.2121,11.3009,11.3901,11.4376,11.4645,11.4711,11.491,11.56,11.6082,11.6363,11.6714,11.6993,11.7308,11.7521,11.7815,11.8014,11.8191,11.8396,11.8756,11.8756,11.8756,11.8871,11.8957,11.9156,11.9494,12.0126,12.0774,12.1516,12.2204,12.2794,12.3254,12.3544,12.361,12.361,12.361,12.361,12.361,12.361,12.361,12.361,12.361,12.361,12.361,12.361,12.361,12.361,12.361,12.4332,12.5054,12.5848,12.6426,12.722,12.8448,12.9386,13.0036,13.0975,13.2058,13.278,13.3237,13.3475,13.3713,13.3757,13.478,13.6812,13.8696,13.9678,14.0842,7.3671,7.3671,7.3671,7.3671,7.3671,7.3671,7.3671,7.3773,7.4688,7.6126,7.7907,7.935,8.0954,8.2521,8.3203,8.3339,8.358,8.4315,8.464,8.5148,8.6391,8.7428,8.8585,8.981,9.1099,9.2323,9.3235,9.375,9.4318,9.4439,9.488,9.5516,9.5713,9.6323,9.6789,9.7097,9.7642,9.8708,9.9532,10.076,10.2356,10.4031,10.5382,10.6666,10.8042,10.9441,11.0644,11.1761,11.276,11.3523,11.4072,11.441,11.4578,11.4678,11.491,11.5304,11.5887,11.6142,11.6395,11.6677,11.6993,11.7308,11.7634,11.7824,11.7964,11.8349,11.864,11.8727,11.8842,11.8957,11.9184,11.9466,11.9673,12.0432,12.1136,12.179,12.2466,12.2909,12.3366,12.3522,12.3588,12.361,12.361,12.361,12.361,12.361,12.361,12.361,12.361,12.361,12.361,12.361,12.3827,12.3754,12.4476,12.5415,12.6281,12.7437,12.8014,12.8809,12.9892,13.0902,13.1336,13.1913,13.278,13.3284,13.345,13.376,13.4284,13.5524,13.666,13.8754,14.1636,14.2468,14.2882,7.3671,7.3671,7.3671,7.3671,7.3671,7.3671,7.3671,7.3875,7.4789,7.6183,7.7815,7.9412,8.1068,8.2322,8.3156,8.3439,8.3533,8.4315,8.4779,8.5056,8.6618,8.7775,8.8968,9.0285,9.1651,9.2822,9.3646,9.4075,9.4439,9.4439,9.468,9.508,9.5577,9.6245,9.675,9.7282,9.7812,9.929,10.0442,10.1621,10.3763,10.5102,10.643,10.7669,10.8845,11.0139,11.1216,11.2264,11.3315,11.3935,11.4376,11.4578,11.4645,11.4678,11.4744,11.491,11.537,11.579,11.6205,11.6552,11.6838,11.7055,11.7369,11.7612,11.7845,11.8231,11.8495,11.8785,11.8957,11.9184,11.9452,11.9975,12.0432,12.1117,12.1815,12.2324,12.2886,12.316,12.3566,12.3566,12.361,12.361,12.361,12.361,12.361,12.361,12.361,12.361,12.361,12.361,12.361,12.4043,12.4332,12.4982,12.5776,12.6715,12.787,12.8953,12.9747,13.0541,13.148,13.1913,13.2491,13.2996,13.3116,13.3354,13.3639,13.4612,13.5749,13.6982,13.8707,14.1445,14.4211,14.4936,14.503,7.3671,7.3671,7.3671,7.3671,7.3671,7.3671,7.3671,7.3875,7.484,7.6295,7.809,7.9928,8.1436,8.2279,8.2962,8.3439,8.358,8.4222,8.4633,8.491,8.6563,8.7909,8.9274,9.0629,9.2071,9.3112,9.3891,9.4237,9.4439,9.4439,9.4439,9.468,9.5397,9.6067,9.6618,9.7634,9.8429,10.005,10.1462,10.2871,10.5387,10.6235,10.71,10.8547,10.9356,11.0476,11.1761,11.2725,11.3696,11.4376,11.4477,11.4645,11.4678,11.4678,11.4711,11.4778,11.4877,11.5337,11.5822,11.6363,11.6682,11.6931,11.7178,11.7552,11.7755,11.8014,11.8426,11.8842,11.9115,11.9507,11.9893,12.0432,12.1034,12.1765,12.23,12.2794,12.3164,12.3455,12.361,12.361,12.361,12.361,12.361,12.361,12.361,12.361,12.361,12.361,12.4621,12.4549,12.4621,12.5126,12.5776,12.6426,12.722,12.8375,12.9531,13.0203,13.0926,13.1816,13.237,13.278,13.3188,13.3256,13.3329,13.3424,13.4113,13.5011,13.6662,13.921,14.1969,14.4642,14.5763,14.6127,14.6436,7.3671,7.3671,7.3671,7.3671,7.3671,7.3671,7.3671,7.3824,7.4789,7.6415,7.8586,8.062,8.1768,8.2055,8.2867,8.3298,8.3533,8.3949,8.4362,8.5056,8.6427,8.7775,8.9231,9.0886,9.2281,9.3276,9.4013,9.4358,9.4439,9.4439,9.4439,9.472,9.5259,9.5853,9.6031,9.7958,9.9493,10.0686,10.3002,10.4386,10.6001,10.7015,10.7801,10.8906,10.9648,11.0848,11.2085,11.3176,11.3901,11.4444,11.4645,11.4678,11.4678,11.4678,11.4678,11.4678,11.4711,11.491,11.5306,11.5887,11.6332,11.6677,11.7024,11.746,11.7755,11.8014,11.8367,11.9042,11.9396,11.9866,12.0388,12.1008,12.1566,12.2132,12.2561,12.305,12.3277,12.3522,12.3588,12.361,12.361,12.361,12.361,12.361,12.361,12.3827,12.3682,12.4476,12.5704,12.6137,12.6426,12.7003,12.7798,12.8349,12.885,13.001,13.0877,13.131,13.1862,13.2605,13.3184,13.3352,13.3421,13.3514,13.3895,13.4562,13.5033,13.5692,13.8447,14.1194,14.4399,14.619,14.6665,14.7035,14.7008,7.3671,7.3671,7.3671,7.3671,7.3671,7.3671,7.3671,7.3875,7.4789,7.642,7.8647,8.0391,8.1485,8.1916,8.2583,8.3014,8.3439,8.3855,8.4369,8.5194,8.6346,8.7742,8.9274,9.0886,9.2465,9.3318,9.3994,9.4439,9.4439,9.4439,9.4439,9.46,9.51,9.5577,9.6274,9.7958,10.0049,10.1664,10.3641,10.508,10.6857,10.7518,10.8102,10.8984,10.9724,11.0958,11.2228,11.3246,11.3937,11.441,11.4678,11.4678,11.4678,11.4678,11.4678,11.4678,11.4711,11.4844,11.5208,11.55,11.579,11.6332,11.6776,11.7239,11.7634,11.7875,11.8309,11.9071,11.9688,12.0245,12.0963,12.1541,12.2083,12.2561,12.2978,12.3209,12.3433,12.3522,12.3588,12.361,12.361,12.361,12.361,12.361,12.4115,12.5126,12.5487,12.657,12.7509,12.787,12.8254,12.8999,12.9744,13.0102,13.041,13.1491,13.2405,13.2839,13.3388,13.3846,13.4181,13.3697,13.3764,13.472,13.5363,13.5765,13.6821,13.8385,14.0709,14.32,14.4922,14.6772,14.7146,14.7286,14.7393,7.3671,7.3671,7.3671,7.3671,7.3671,7.3671,7.3926,7.4434,7.545,7.6974,7.8651,8.0247,8.1244,8.1677,8.2254,8.2825,8.3156,8.3627,8.4229,8.501,8.6209,8.7608,8.9331,9.0886,9.2465,9.3318,9.4034,9.4439,9.4439,9.4439,9.4439,9.46,9.498,9.5418,9.6317,9.7862,10.0328,10.2505,10.4517,10.5771,10.7349,10.7588,10.8086,10.8829,10.9534,11.07,11.1977,11.3036,11.3833,11.4376,11.4678,11.4645,11.4678,11.4678,11.4678,11.4678,11.4678,11.4778,11.4976,11.5241,11.547,11.5919,11.6332,11.6931,11.7582,11.7725,11.826,11.9071,11.9756,12.0564,12.1365,12.201,12.2514,12.3001,12.3366,12.3455,12.3544,12.3566,12.361,12.361,12.361,12.3682,12.3682,12.3754,12.5126,12.657,12.7653,12.8687,12.9097,12.9458,13.02,13.0897,13.1521,13.1974,13.2179,13.2972,13.391,13.4458,13.5028,13.5917,13.6638,13.5932,13.5751,13.6443,13.7229,13.7851,13.9031,14.091,14.2794,14.4722,14.6202,14.7178,14.7407,14.7543,14.8139,7.3671,7.3671,7.3671,7.3671,7.3671,7.3671,7.4281,7.515,7.6415,7.7533,7.8698,8.0199,8.0955,8.1292,8.1968,8.2393,8.2683,8.3156,8.3902,8.4825,8.5936,8.7384,8.9143,9.0929,9.2465,9.3318,9.4134,9.4398,9.4439,9.4439,9.4439,9.4479,9.486,9.5399,9.6459,9.7829,10.0076,10.3135,10.5288,10.6563,10.7069,10.7469,10.7968,10.8518,10.9253,11.0102,11.1325,11.2406,11.3319,11.4173,11.4477,11.4578,11.4678,11.4678,11.4678,11.4678,11.4678,11.4711,11.4778,11.4976,11.5241,11.547,11.5854,11.662,11.7399,11.7634,11.8231,11.9099,11.999,12.0774,12.1616,12.2324,12.2794,12.3277,12.3478,12.3566,12.3588,12.361,12.361,12.361,12.3754,12.3971,12.4043,12.5054,12.6354,12.8159,12.9314,12.9892,13.0397,13.1212,13.1955,13.2576,13.3201,13.3842,13.4117,13.5059,13.6173,13.6907,13.7245,13.807,13.8801,13.8969,13.8583,13.9127,13.9439,14.0029,14.0915,14.3071,14.5009,14.6491,14.7252,14.7422,14.7587,14.8243,14.9063,7.3671,7.3671,7.3671,7.3671,7.3671,7.3671,7.4281,7.5302,7.6517,7.7587,7.8651,7.9913,8.0713,8.1051,8.1389,8.1916,8.2588,8.2777,8.3621,8.4733,8.5881,8.7339,8.91,9.0929,9.2406,9.3359,9.4134,9.4398,9.4439,9.4439,9.4439,9.4439,9.464,9.5622,9.6866,9.8076,9.9858,10.3242,10.5416,10.6607,10.7051,10.7429,10.7968,10.844,10.9022,10.9724,11.0848,11.1833,11.2795,11.3661,11.414,11.4477,11.4611,11.4645,11.4678,11.4678,11.4678,11.4678,11.4711,11.4778,11.501,11.5306,11.5761,11.6305,11.7185,11.7634,11.8172,11.9071,11.9947,12.0904,12.179,12.2466,12.3027,12.3366,12.3566,12.3588,12.361,12.3682,12.3682,12.3899,12.426,12.4404,12.5704,12.657,12.7942,12.9675,13.0541,13.1047,13.1862,13.2773,13.3395,13.3941,13.4848,13.5932,13.6508,13.7485,13.8509,13.9321,13.9615,14.0155,14.0596,14.0816,14.1184,14.1503,14.1733,14.2257,14.2941,14.5235,14.7361,14.7705,14.7931,14.7915,14.8437,14.9153,15.0079,7.3671,7.3671,7.3671,7.3671,7.3722,7.418,7.4947,7.6059,7.713,7.8248,7.9263,8.0025,8.0374,8.0713,8.1003,8.1485,8.2207,8.254,8.3386,8.4733,8.589,8.7294,8.91,9.0971,9.2423,9.3276,9.4053,9.4398,9.4439,9.4439,9.4439,9.4439,9.4579,9.5601,9.7492,9.836,10.0468,10.2834,10.4884,10.62,10.6809,10.7349,10.7849,10.8126,10.8557,10.9215,11.0027,11.0921,11.1941,11.283,11.373,11.4173,11.4477,11.4611,11.4678,11.4678,11.4678,11.4678,11.4678,11.4678,11.4811,11.5109,11.5404,11.599,11.6688,11.7331,11.8142,11.8957,11.9893,12.093,12.1864,12.2514,12.3024,12.3433,12.3588,12.361,12.361,12.3682,12.4115,12.4404,12.491,12.657,12.8087,12.8953,13.018,13.1985,13.3213,13.3646,13.4295,13.4822,13.5176,13.5501,13.6727,13.8037,13.8907,13.9695,14.0748,14.1682,14.1963,14.2424,14.272,14.309,14.3644,14.3976,14.4491,14.4905,14.5326,14.6742,14.8139,14.8573,14.875,14.9662,15.0573,15.114,15.1439,7.3671,7.3671,7.3824,7.3824,7.4027,7.4992,7.611,7.7228,7.8044,7.9162,8.0126,8.0279,8.0279,8.0374,8.0762,8.1244,8.1772,8.225,8.3151,8.4408,8.5615,8.7114,8.9012,9.0971,9.2197,9.3276,9.4075,9.4398,9.4439,9.4439,9.4439,9.4439,9.4639,9.5681,9.7976,9.9047,10.1118,10.3181,10.4615,10.5624,10.6547,10.7332,10.7628,10.7826,10.8165,10.8596,10.9177,11.0102,11.1032,11.1905,11.2935,11.373,11.4173,11.4511,11.4611,11.4678,11.4678,11.4678,11.4678,11.4678,11.4744,11.4811,11.5075,11.5404,11.6018,11.6869,11.7815,11.864,11.9936,12.0982,12.1913,12.2561,12.3046,12.3433,12.3682,12.3682,12.4115,12.4621,12.5198,12.5632,12.7726,12.9242,13.0758,13.1552,13.2419,13.4296,13.5884,13.6462,13.6944,13.7088,13.7301,13.7875,13.8848,14.0066,14.0983,14.1867,14.2831,14.3899,14.4489,14.5099,14.5612,14.6179,14.6458,14.6676,14.7466,14.7992,14.8327,14.8675,14.9066,14.9707,15.0274,15.1335,15.2486,15.2785,15.2935,7.3671,7.3773,7.4586,7.4942,7.5049,7.6161,7.7181,7.8095,7.8451,7.9212,8.0177,8.0279,8.0279,8.0277,8.0473,8.0764,8.1244,8.1772,8.2678,8.3855,8.511,8.6753,8.8573,9.0415,9.2029,9.3153,9.4053,9.4439,9.4439,9.4439,9.4439,9.4439,9.4439,9.584,9.8255,9.9511,10.1683,10.3523,10.4959,10.5624,10.6444,10.7292,10.7668,10.7707,10.7747,10.8126,10.8557,10.9445,11.0215,11.1105,11.2121,11.3075,11.373,11.4173,11.4477,11.4645,11.4678,11.4678,11.4678,11.4678,11.4678,11.4678,11.5109,11.5274,11.5632,11.6205,11.7201,11.8698,12.0018,12.1207,12.1962,12.2701,12.3254,12.3616,12.3827,12.4115,12.5054,12.5704,12.6354,12.8592,13.0541,13.2274,13.3791,13.4729,13.5235,13.704,13.7401,13.805,13.8823,13.9041,13.9566,14.011,14.0936,14.2086,14.3384,14.4289,14.5293,14.6464,14.7315,14.7778,14.8376,14.8954,14.9135,14.921,14.9912,15.0244,15.1277,15.1769,15.153,15.153,15.1948,15.2636,15.3533,15.4057,15.4491,7.3976,7.4484,7.4992,7.5506,7.6263,7.7279,7.8044,7.8552,7.9111,7.9768,8.0126,8.0279,8.0279,8.0279,8.0279,8.0619,8.1003,8.1389,8.2202,8.3433,8.4647,8.62,8.8086,9.0242,9.1735,9.2864,9.3809,9.4237,9.4398,9.4439,9.4439,9.4439,9.4439,9.604,9.8594,9.9731,10.1642,10.3928,10.4959,10.55,10.6159,10.6729,10.7309,10.7548,10.7707,10.7786,10.8204,10.8751,10.9445,11.0252,11.1362,11.2406,11.3211,11.3661,11.3935,11.441,11.4578,11.4678,11.4678,11.4678,11.4678,11.4711,11.4844,11.5076,11.5304,11.5758,11.6614,11.8044,11.9535,12.113,12.2057,12.2631,12.3569,12.4365,12.4837,12.5632,12.6642,12.7076,12.917,13.1841,13.3646,13.5307,13.6823,13.7401,13.8123,13.8628,13.8941,13.9738,14.0583,14.1092,14.1692,14.2336,14.3093,14.4586,14.6378,14.7213,14.8161,14.9333,15.0217,15.0531,15.0893,15.0925,15.1137,15.1722,15.168,15.186,15.2636,15.3145,15.3369,15.3519,15.3818,15.4192,15.4865,15.5463,15.6061,7.4586,7.5506,7.5704,7.6364,7.7283,7.8397,7.8857,7.8958,7.9822,8.0228,8.0279,8.0279,8.0279,8.0279,8.0279,8.0471,8.081,8.11,8.182,8.3009,8.4176,8.5699,8.7641,8.971,9.1397,9.2406,9.3482,9.4115,9.4358,9.4439,9.4439,9.4498,9.4778,9.6157,9.8531,9.9992,10.1843,10.4023,10.4917,10.5314,10.581,10.6219,10.6769,10.7429,10.7628,10.7707,10.7826,10.8204,10.8751,10.9483,11.0551,11.1653,11.2548,11.3005,11.3592,11.4173,11.4511,11.4678,11.4678,11.4678,11.4678,11.4678,11.4711,11.4877,11.5108,11.56,11.6336,11.7505,11.903,12.0934,12.2269,12.3276,12.4292,12.5691,12.6498,12.7076,12.8592,13.0036,13.2202,13.4729,13.6606,13.8267,13.858,13.9014,13.988,14.0458,14.07,14.1208,14.1839,14.2469,14.3163,14.4048,14.5001,14.6963,14.885,14.9483,15.0493,15.1541,15.2275,15.2514,15.2829,15.2859,15.3413,15.4206,15.4521,15.4206,15.3982,15.3982,15.4491,15.5313,15.5687,15.5971,15.6211,15.6435,15.7183,7.5653,7.6724,7.7638,7.8095,7.8451,7.9466,7.9923,7.9974,8.0228,8.0279,8.0279,8.0279,8.0279,8.0279,8.0279,8.0277,8.0519,8.081,8.1389,8.2345,8.3574,8.5194,8.7104,8.9012,9.0672,9.2088,9.3276,9.4094,9.4358,9.4439,9.4439,9.4678,9.5556,9.7015,9.8721,10.051,10.2283,10.383,10.4749,10.5273,10.5686,10.5851,10.6404,10.7069,10.7492,10.7668,10.7786,10.8126,10.8479,10.8674,10.9826,11.0737,11.1689,11.2513,11.3489,11.4173,11.4477,11.4645,11.4678,11.4678,11.4678,11.4678,11.4678,11.4744,11.4977,11.5537,11.6349,11.7315,11.8793,12.0816,12.3644,12.4662,12.599,12.7513,12.8087,12.8809,13.0686,13.4152,13.574,13.7689,13.8869,13.9808,14.0169,14.053,14.1494,14.2289,14.2289,14.2533,14.2831,14.3339,14.3996,14.4795,14.636,14.8229,14.9641,15.0476,15.2036,15.3129,15.3893,15.4266,15.464,15.479,15.5073,15.627,15.6809,15.6884,15.6584,15.636,15.6435,15.6958,15.7407,15.7631,15.7706,15.7631,15.7557,7.6031,7.7791,7.8298,7.8857,7.9514,8.0025,8.0279,8.0279,8.0279,8.0279,8.0279,8.0279,8.0279,8.0279,8.0279,8.0279,8.0376,8.057,8.1051,8.1912,8.2867,8.4555,8.6572,8.8264,8.9983,9.1524,9.2946,9.3831,9.4318,9.4439,9.4439,9.4558,9.5855,9.7231,9.8715,10.0421,10.2231,10.3642,10.4497,10.5042,10.5397,10.5645,10.6097,10.6729,10.7372,10.7668,10.7668,10.7968,10.8204,10.8518,10.8984,10.961,11.0476,11.1544,11.2619,11.3592,11.4107,11.4544,11.4645,11.4678,11.4678,11.4678,11.4678,11.4678,11.4911,11.6179,11.7135,11.804,11.9885,12.2261,12.5232,12.6263,12.7622,12.9294,13.042,13.1624,13.3502,13.6679,13.9158,13.9447,14.0555,14.1205,14.1639,14.1855,14.2505,14.2505,14.2577,14.2753,14.3194,14.3869,14.4565,14.5987,14.755,14.9302,15.0653,15.2096,15.3712,15.473,15.5388,15.5837,15.6046,15.6345,15.6659,15.6884,15.7183,15.7781,15.8529,15.8903,15.8903,15.9351,15.9576,15.9501,15.9276,15.8828,15.8529,7.6316,7.8812,7.8809,7.9415,8.0177,8.0279,8.0279,8.0279,8.0279,8.0279,8.0279,8.0279,8.0279,8.0279,8.0279,8.0279,8.0279,8.0325,8.0665,8.1629,8.2155,8.3902,8.5844,8.7373,8.91,9.1014,9.249,9.3564,9.4196,9.4358,9.4439,9.4618,9.5855,9.7231,9.8632,10.0312,10.2001,10.3557,10.4346,10.481,10.5209,10.548,10.5872,10.6322,10.7011,10.7429,10.7628,10.7668,10.7865,10.8204,10.8479,10.8984,10.9826,11.0848,11.1941,11.2935,11.3799,11.4376,11.4611,11.4645,11.4678,11.4678,11.4678,11.4812,11.5214,11.6922,11.8024,11.9384,12.1438,12.3455,12.5729,12.7328,12.9351,13.1507,13.2924,13.4296,13.6462,13.9086,14.0627,14.1061,14.1855,14.265,14.265,14.265,14.265,14.265,14.275,14.29,14.3485,14.4181,14.5424,14.6952,14.8945,15.1299,15.2625,15.4046,15.5401,15.6405,15.6809,15.7108,15.7108,15.7332,15.7183,15.7407,15.7631,15.8529,15.9351,15.98,16.0249,16.137,16.2134,16.1445,16.0697,16.0024,15.9576,7.6948,7.9441,7.9881,8.0226,8.0228,8.0279,8.0279,8.0279,8.0279,8.0279,8.0279,8.0279,8.0279,8.0279,8.0279,8.0279,8.0279,8.0279,8.0425,8.0909,8.1868,8.3245,8.4917,8.6336,8.8308,9.0501,9.1945,9.307,9.3891,9.4318,9.4439,9.4838,9.5956,9.7273,9.8632,10.0168,10.1958,10.3472,10.4201,10.4726,10.5042,10.5251,10.5541,10.5995,10.6526,10.7011,10.7469,10.7668,10.7707,10.7786,10.8204,10.879,10.9636,11.07,11.1725,11.2548,11.3491,11.4207,11.4409,11.4544,11.4678,11.4745,11.4745,11.5214,11.6455,11.7496,11.8739,12.0282,12.1654,12.3551,12.5403,12.8041,13.0881,13.3695,13.4777,13.6703,13.9255,14.135,14.2433,14.2505,14.2505,14.265,14.265,14.265,14.265,14.265,14.2675,14.3142,14.3944,14.4857,14.6317,14.82,15.0725,15.3259,15.4563,15.5815,15.6852,15.7467,15.7557,15.7631,15.7631,15.7631,15.7631,15.7631,15.7631,15.8304,15.98,16.0772,16.1146,16.2118,16.3688,16.3181,16.2208,16.152,16.0249,7.6571,7.9544,7.974,7.9984,8.0279,8.0279,8.0279,8.0279,8.0279,8.0279,8.0279,8.0279,8.0279,8.0279,8.0279,8.0279,8.0279,8.0279,8.0279,8.0473,8.1244,8.2345,8.3662,8.5324,8.7363,8.9609,9.1281,9.268,9.3709,9.4237,9.4439,9.4718,9.5915,9.7231,9.853,10.0016,10.1635,10.3174,10.3903,10.4328,10.4852,10.5042,10.5376,10.5769,10.6241,10.6791,10.7292,10.7548,10.7668,10.7707,10.7865,10.8322,10.8984,10.9902,11.0811,11.1833,11.2935,11.3833,11.4207,11.4511,11.4678,11.4812,11.565,11.632,11.7125,11.9009,12.0258,12.1778,12.3716,12.5268,12.6871,12.8858,13.1761,13.4461,13.5379,13.6847,13.9977,14.0916,14.1639,14.2361,14.265,14.265,14.265,14.265,14.265,14.265,14.265,14.3456,14.4525,14.5775,14.7341,15.0102,15.2744,15.4299,15.564,15.6577,15.7451,15.7541,15.7631,15.7631,15.7631,15.7631,15.7631,15.7631,15.7631,15.823,16.0323,16.1834,16.2657,16.3838,16.496,16.5109,16.3913,16.3015,16.137,7.5552,7.8456,7.9198,7.974,8.0033,8.023,8.0279,8.0279,8.0279,8.0279,8.0279,8.0279,8.0279,8.0279,8.0279,8.0279,8.0279,8.0279,8.0279,8.0376,8.0713,8.1341,8.244,8.4362,8.6508,8.8693,9.0515,9.2122,9.3482,9.3994,9.4318,9.4498,9.5496,9.6633,9.8009,9.9308,10.0899,10.2512,10.3216,10.3946,10.4516,10.4833,10.5209,10.5604,10.62,10.6669,10.6993,10.7452,10.7668,10.7668,10.7668,10.7905,10.8479,10.9138,10.9989,11.1069,11.2157,11.3211,11.3867,11.4376,11.4578,11.4812,11.6052,11.7125,11.7594,12.015,12.1909,12.337,12.4893,12.6688,12.8012,12.9397,13.1283,13.3699,13.465,13.629,13.882,13.9761,14.005,14.1108,14.1277,14.1422,14.1711,14.1927,14.2144,14.2505,14.2895,14.3384,14.5154,14.6624,14.8719,15.1604,15.3947,15.5339,15.6476,15.7191,15.7616,15.7616,15.7631,15.7631,15.7631,15.7631,15.7631,15.7631,15.7631,15.8753,16.0787,16.2433,16.4751,16.6231,16.6754,16.6455,16.5408,16.3688,16.1968,7.3848,7.6045,7.8456,7.9345,7.9542,7.9982,8.0128,8.0279,8.0279,8.0279,8.0279,8.0279,8.0279,8.0279,8.0279,8.0279,8.0279,8.0279,8.0279,8.0327,8.0325,8.0616,8.1437,8.3427,8.5553,8.7731,8.9666,9.1312,9.2698,9.3564,9.4034,9.4398,9.4678,9.5376,9.6854,9.8009,9.9537,10.13,10.2512,10.3629,10.4516,10.46,10.4791,10.5251,10.6098,10.6547,10.675,10.7292,10.7628,10.7668,10.7707,10.7928,10.8361,10.8829,10.9445,11.0215,11.1398,11.2335,11.3176,11.3867,11.441,11.4745,11.6219,11.7527,11.8868,12.0649,12.2473,12.4179,12.5034,12.5974,12.7517,12.8914,13.0189,13.1585,13.3177,13.5121,13.7495,13.7906,13.8267,13.8339,13.8267,13.8628,14.0266,14.0627,14.1277,14.2097,14.2778,14.3942,14.5735,14.7784,15.0069,15.2382,15.4745,15.6025,15.67,15.7399,15.7616,15.7631,15.7631,15.7631,15.7631,15.7631,15.7631,15.7631,15.7856,15.9426,16.1012,16.2059,16.3779,16.6006,16.7053,16.7278,16.6081,16.3987,16.2283,7.2158,7.4675,7.5697,7.6966,7.8536,7.8729,7.9326,8.0228,8.0279,8.0279,8.0228,8.0279,8.0279,8.0279,8.0279,8.0279,8.0279,8.0279,8.0279,8.0279,8.0279,8.0376,8.0713,8.1912,8.3756,8.6291,8.8561,9.0429,9.1997,9.3259,9.4075,9.4398,9.4439,9.5137,9.6554,9.7153,9.8512,10.0479,10.1498,10.2587,10.3849,10.4431,10.4768,10.5209,10.6098,10.6507,10.6547,10.7011,10.7452,10.7628,10.7668,10.7747,10.8007,10.844,10.8906,10.9598,11.0551,11.158,11.2371,11.335,11.4072,11.4811,11.6889,11.86,11.9404,12.1585,12.3104,12.4305,12.4861,12.571,12.6949,12.8286,12.9236,13.0049,13.155,13.2988,13.424,13.5546,13.6558,13.7448,13.7665,13.8123,13.8869,13.9447,14.0627,14.1183,14.2296,14.3919,14.6777,14.8391,15.1095,15.3593,15.5392,15.634,15.6923,15.7276,15.7586,15.7631,15.7631,15.7631,15.7631,15.7631,15.7631,15.7631,15.7631,15.9127,16.0414,16.1535,16.2732,16.4735,16.6663,16.6605,16.6156,16.4137,16.2208,7.0477,7.2785,7.3653,7.5248,7.7041,7.738,7.8069,7.9212,7.9619,7.9768,7.9819,8.0126,8.0279,8.0279,8.0279,8.0279,8.0279,8.0279,8.0279,8.0279,8.0279,8.0279,8.0374,8.081,8.2345,8.4733,8.7318,8.9609,9.1281,9.2763,9.3768,9.4196,9.4358,9.4977,9.5855,9.6394,9.7351,9.9248,10.0341,10.1632,10.3072,10.3915,10.4581,10.5168,10.5872,10.6241,10.6281,10.6688,10.7051,10.7292,10.7332,10.7349,10.7572,10.7849,10.8283,10.8868,10.9724,11.0625,11.1544,11.2548,11.342,11.4571,11.7083,11.8864,11.9437,12.1885,12.3672,12.4197,12.4689,12.5374,12.6404,12.758,12.8557,12.9072,13.0202,13.1371,13.2547,13.3741,13.5114,13.6149,13.6366,13.6654,13.7184,13.7834,13.9038,14.0219,14.1526,14.3581,14.6704,14.8388,15.0817,15.3793,15.5447,15.6617,15.6998,15.7308,15.7555,15.7631,15.7631,15.7631,15.7631,15.7631,15.7631,15.7631,15.7631,15.8379,15.9725,16.0922,16.2059,16.3763,16.481,16.5259,16.5408,16.4137,16.2043,6.8654,7.029,7.2881,7.4371,7.542,7.5845,7.646,7.7193,7.8051,7.8457,7.8558,7.9619,7.9824,8.0124,7.9974,8.0177,8.0126,8.0076,8.0126,8.0279,8.0279,8.0279,8.0327,8.0762,8.1677,8.2962,8.6018,8.8529,9.0544,9.1887,9.3112,9.385,9.4277,9.4558,9.4599,9.5795,9.6513,9.7291,9.9128,10.0854,10.1896,10.3114,10.4145,10.5064,10.5398,10.5645,10.5851,10.6281,10.6547,10.6588,10.6629,10.675,10.7051,10.7212,10.7532,10.8322,10.8829,10.961,11.07,11.1616,11.2583,11.3889,11.667,11.8588,11.9201,12.1617,12.357,12.3889,12.4378,12.5067,12.5845,12.689,12.7828,12.8617,12.9496,13.0559,13.1684,13.2439,13.2998,13.3407,13.3718,13.3935,13.5018,13.5957,13.7281,13.9473,14.0851,14.2541,14.5663,14.7923,15.0244,15.2624,15.4539,15.6135,15.6832,15.7308,15.7434,15.7541,15.7526,15.7631,15.7631,15.7631,15.7631,15.7631,15.7631,15.7856,15.9202,16.0099,16.1295,16.1984,16.2433,16.3165,16.309,16.2641,16.1012,6.5466,6.7966,6.9628,7.1432,7.3291,7.3857,7.482,7.5893,7.6291,7.6631,7.7015,7.7318,7.7709,7.8095,7.8755,7.9111,7.9111,7.9111,7.9517,8.0228,8.0279,8.0279,8.0327,8.0422,8.1051,8.225,8.3668,8.6155,8.9349,9.1196,9.2639,9.379,9.4237,9.4439,9.4498,9.4898,9.5676,9.6554,9.7351,9.9248,10.157,10.2302,10.3269,10.4736,10.437,10.4514,10.5707,10.5892,10.6159,10.6466,10.6547,10.6588,10.675,10.6931,10.7252,10.7572,10.8204,10.9061,10.9951,11.0995,11.2049,11.3312,11.5698,11.7284,11.7828,12.0445,12.2022,12.2633,12.3488,12.4652,12.5272,12.5943,12.6632,12.7361,12.8617,12.9937,13.0972,13.1889,13.2465,13.283,13.3022,13.3334,13.3935,13.4801,13.639,13.8267,14.003,14.2155,14.5081,14.7074,14.8888,15.212,15.3815,15.5192,15.6134,15.6476,15.662,15.7029,15.7119,15.7436,15.7631,15.7631,15.7631,15.7631,15.7706,15.793,15.8454,15.9351,16.0024,16.0622,16.1071,16.1535,16.1461,16.0862,16.0264,6.3412,6.5881,6.7455,6.9528,7.1698,7.212,7.3022,7.4225,7.4673,7.506,7.5438,7.5977,7.6362,7.6694,7.6998,7.7193,7.7384,7.7838,7.8552,7.9616,7.9619,7.9921,8.0177,8.0279,8.0762,8.1581,8.235,8.4686,8.8384,9.0429,9.2055,9.3217,9.4013,9.4318,9.4439,9.4439,9.4898,9.5795,9.6394,9.7723,9.9891,10.0764,10.1786,10.3324,10.269,10.2793,10.4041,10.4041,10.4225,10.4571,10.4611,10.4571,10.4611,10.5014,10.5499,10.6421,10.7558,10.8479,10.9215,11.0177,11.1289,11.2538,11.4538,11.5961,11.6913,11.8893,12.0436,12.0774,12.2198,12.3124,12.3405,12.3439,12.4179,12.5573,12.6902,12.8372,13.006,13.1352,13.2217,13.2684,13.2974,13.3213,13.3429,13.4007,13.5235,13.6775,13.8655,14.0899,14.3532,14.5819,14.7738,15.0334,15.2383,15.3952,15.5034,15.5092,15.5606,15.5927,15.6534,15.6627,15.7541,15.7631,15.7482,15.7482,15.7631,15.7781,15.7856,15.8603,15.8678,15.9202,15.9501,15.9965,16.0787,15.9576,15.9127,6.2275,6.3994,6.6408,6.8538,7.0582,7.063,7.1181,7.2113,7.3144,7.3684,7.3926,7.5144,7.593,7.5682,7.5013,7.4835,7.5358,7.642,7.7435,7.8447,7.8451,7.906,8.0076,8.0175,8.0364,8.0734,8.1544,8.371,8.6952,8.9235,9.1084,9.2448,9.3441,9.4034,9.4358,9.4439,9.4479,9.4778,9.5735,9.68,9.7449,9.8783,9.9737,10.0387,10.0346,10.0671,10.1116,10.1094,10.1135,10.1073,10.1257,10.1236,10.1215,10.1676,10.2929,10.4823,10.655,10.7739,10.8249,10.919,11.0177,11.1419,11.3271,11.4844,11.5516,11.7298,11.8375,11.8445,12.0278,12.0962,12.0089,12.0258,12.1304,12.3511,12.4479,12.6364,12.94,13.0367,13.1546,13.2465,13.2902,13.307,13.3213,13.3213,13.4079,13.5499,13.6968,13.8967,14.1258,14.4176,14.6324,14.8096,15.0407,15.2577,15.1357,15.1968,15.2861,15.3694,15.4653,15.519,15.6493,15.7482,15.7407,15.7332,15.7183,15.7183,15.7482,15.7706,15.7856,15.8005,15.8304,15.8304,15.8828,15.8005,15.793,6.1184,6.2769,6.4189,6.6264,6.8491,6.8913,6.9426,7.0125,7.0692,7.1254,7.1669,7.2376,7.2524,7.2382,7.3049,7.3901,7.479,7.5419,7.6314,7.7283,7.7431,7.7584,7.7889,7.7841,7.8171,7.864,7.9019,8.0172,8.2219,8.5766,8.9072,9.1408,9.2822,9.3687,9.4053,9.4377,9.4439,9.4498,9.4797,9.5759,9.6927,9.6686,9.6988,9.7996,9.834,9.9089,10.0184,10.0245,10.0306,10.0671,10.0671,10.0792,10.1073,10.1193,10.1737,10.2827,10.4721,10.6064,10.6493,10.8218,10.975,11.0811,11.1724,11.2639,11.3581,11.5133,11.6246,11.6559,11.7346,11.8027,11.7864,11.8943,12.0225,12.1393,12.2238,12.3986,12.7035,12.8299,12.9701,13.1847,13.2395,13.2926,13.3093,13.3213,13.3718,13.5066,13.5957,13.7257,14.0319,14.1929,14.3964,14.6691,14.8253,14.9073,14.8812,14.9648,15.1173,15.2166,15.256,15.3077,15.3606,15.3982,15.4132,15.5762,15.5762,15.5986,15.6659,15.7257,15.7557,15.7631,15.7631,15.7631,15.7183,15.7557,15.7557,6.0676,6.2028,6.3211,6.5159,6.7217,6.7644,6.8257,6.8914,6.9241,6.9613,7.0123,7.0121,7.0211,7.0536,7.1497,7.2572,7.3582,7.4088,7.4876,7.5981,7.617,7.6521,7.6974,7.7025,7.7165,7.7439,7.7671,7.8402,7.9918,8.2635,8.6165,8.9712,9.178,9.3094,9.3831,9.4237,9.4439,9.4439,9.4439,9.5019,9.5861,9.5361,9.5381,9.6304,9.6626,9.725,9.8118,9.8219,9.84,9.858,9.878,9.894,9.9178,9.9336,9.9898,10.0947,10.224,10.3433,10.458,10.6561,10.8131,10.9153,11.0116,11.0995,11.1827,11.3057,11.3905,11.4083,11.4678,11.5303,11.5949,11.6992,11.8169,11.9275,12.0097,12.1695,12.4615,12.5893,12.7258,12.9336,13.0805,13.1701,13.2085,13.266,13.3502,13.4296,13.5235,13.6221,13.8293,14.0172,14.1995,14.4216,14.5007,14.52,14.5316,14.7157,14.8852,14.9858,15.0562,15.1532,15.22,15.2532,15.286,15.3892,15.4042,15.4565,15.5612,15.5538,15.5612,15.5388,15.5538,15.5538,15.5538,15.5538,15.5612,6.0476,6.1532,6.2966,6.4772,6.6408,6.6551,6.7075,6.7927,6.8163,6.8492,6.8633,6.8351,6.8773,6.9656,7.0444,7.1178,7.2047,7.2589,7.3413,7.4359,7.4821,7.5561,7.6424,7.6572,7.6673,7.6665,7.703,7.7565,7.8475,7.9908,8.276,8.7055,9.0119,9.2097,9.3449,9.4096,9.4439,9.4439,9.4379,9.4299,9.4259,9.4379,9.47,9.516,9.516,9.5359,9.5777,9.5674,9.5735,9.5753,9.6188,9.6323,9.654,9.675,9.7728,9.9285,9.9448,10.0415,10.2597,10.4478,10.5827,10.6604,10.8245,10.9581,11.033,11.113,11.1421,11.179,11.2543,11.359,11.4173,11.4645,11.5716,11.7292,11.7954,11.93,12.1907,12.3478,12.474,12.5991,12.8351,12.9853,13.0262,13.1653,13.2732,13.2924,13.4079,13.5403,13.6412,13.8364,14.0315,14.0826,14.1186,14.1354,14.2229,14.3627,14.5751,14.7801,14.8758,14.9632,15.0776,15.153,15.2233,15.2039,15.2307,15.2561,15.2785,15.2636,15.286,15.3309,15.3234,15.2785,15.2636,15.286,15.2636,6.0275,6.0934,6.2078,6.3069,6.4043,6.4335,6.4772,6.5496,6.6264,6.6217,6.5737,6.636,6.698,6.7691,6.9378,7.049,7.1132,7.1906,7.2463,7.2758,7.3211,7.3543,7.3841,7.4253,7.4434,7.4434,7.4569,7.4832,7.5554,7.7312,7.9343,8.1767,8.6758,9.0001,9.1476,9.3153,9.4156,9.4379,9.3522,9.2983,9.3043,9.396,9.4479,9.4659,9.4659,9.47,9.476,9.482,9.498,9.5359,9.5479,9.5774,9.6401,9.6495,9.6873,9.7466,9.7605,9.8452,10.0353,10.2419,10.3826,10.4323,10.6071,10.7252,10.7745,10.827,10.925,11.1167,11.2305,11.3388,11.4106,11.4544,11.4978,11.5645,11.5942,11.7299,11.9792,12.0945,12.2351,12.4917,12.6346,12.7468,12.8416,12.9926,13.1052,13.1505,13.2707,13.4175,13.533,13.6267,13.6987,13.7391,13.8189,13.9394,14.1286,14.2178,14.3386,14.553,14.6397,14.7147,14.7913,14.8523,14.9036,15.0201,15.0664,15.1097,15.2247,15.2486,15.2322,15.2247,15.2173,15.2337,15.2262,15.2337,15.1813,5.9782,6.0426,6.1433,6.2183,6.2769,6.326,6.3794,6.414,6.3799,6.3363,6.3211,6.4193,6.5255,6.6264,6.7833,6.9006,6.9751,7.0949,7.1497,7.1543,7.2228,7.2679,7.2904,7.3129,7.3448,7.3671,7.3671,7.3843,7.4376,7.5694,7.7238,7.9082,8.3253,8.6831,8.9477,9.1213,9.2228,9.2407,9.1947,9.1607,9.1667,9.2325,9.2684,9.2684,9.2644,9.2684,9.2684,9.2684,9.2823,9.3059,9.3255,9.3568,9.3972,9.4225,9.4532,9.4875,9.4951,9.5509,9.6626,9.7949,9.9448,10.1137,10.3463,10.4436,10.3375,10.4726,10.6813,10.9314,11.0674,11.2,11.3595,11.4241,11.4678,11.501,11.5208,11.6067,11.7731,11.8612,11.9879,12.1968,12.3729,12.5067,12.5896,12.7769,12.9135,12.9538,13.0185,13.1458,13.3068,13.3499,13.3592,13.3737,13.5449,13.7399,13.8692,13.9762,14.1009,14.2298,14.3761,14.4863,14.5345,14.664,14.7597,14.8451,14.8677,14.92,14.9798,15.0231,15.0261,15.0276,15.032,15.0378,15.0392,15.0392,14.9181,5.9369,5.9823,6.0785,6.1482,6.1929,6.2473,6.2867,6.3015,6.1333,6.0785,6.1283,6.2282,6.351,6.4965,6.6121,6.717,6.8163,6.9704,7.0398,7.0444,7.1451,7.2178,7.2589,7.2814,7.3129,7.3538,7.3627,7.3799,7.4192,7.4685,7.5899,7.788,7.9969,8.3148,8.7053,8.8946,8.9634,8.9278,8.9922,9.0252,9.029,9.047,9.059,9.059,9.0649,9.059,9.059,9.0649,9.059,9.059,9.0936,9.1127,9.1204,9.1425,9.178,9.2154,9.2045,9.2108,9.2403,9.278,9.4293,9.7205,10.0446,10.1174,9.861,10.1188,10.4083,10.6579,10.8148,10.9908,11.2108,11.3101,11.3575,11.3941,11.4473,11.5132,11.5707,11.6571,11.7665,11.8981,12.0974,12.2644,12.3499,12.5483,12.7026,12.753,12.8245,12.8771,13.016,13.0206,13.0229,13.083,13.2996,13.4776,13.5828,13.7262,13.8759,13.9407,14.1492,14.2792,14.3271,14.462,14.574,14.6216,14.613,14.6252,14.6342,14.66,14.6766,14.6751,14.6869,14.6985,14.7088,14.7013,14.6265,5.9126,5.9277,5.9924,6.0225,6.0326,6.0376,6.0476,6.0576,6.0175,0.0,0.0,6.1234,6.2084,6.2873,6.4727,6.5929,6.6599,6.8116,6.8867,6.8914,7.0305,7.104,7.1178,7.2363,7.2949,7.3039,7.3493,7.3716,7.3754,7.4199,7.4956,7.6119,7.763,8.0048,8.3258,8.7041,8.7789,8.589,8.7503,8.867,8.8974,8.9991,9.059,9.059,9.059,9.059,9.059,9.059,9.059,9.059,9.0667,9.0859,9.1105,9.0255,8.9914,9.0383,8.9678,8.9187,8.9259,8.9581,9.0675,9.2612,9.6733,9.7839,9.491,9.8106,10.1199,10.3437,10.5963,10.7938,10.903,11.0043,11.0638,11.0703,11.21,11.3196,11.3716,11.53,11.6534,11.7566,11.8785,12.0106,12.0943,12.3022,12.477,12.5426,12.6764,12.8292,12.8315,12.7402,12.7015,12.8618,13.0469,13.2296,13.3636,13.5196,13.714,13.8637,13.9629,14.0389,14.0919,14.1649,14.2119,14.252,14.2461,14.2759,14.2733,14.3069,14.3077,14.3214,14.3288,14.3493,14.3681,14.3709,14.3485,5.8132,5.8473,5.9214,5.9621,0.0,5.9873,5.9036,5.768,5.7729,5.7828,5.8124,5.8623,5.9455,6.0481,6.1731,6.2777,6.3581,6.5128,6.6243,6.699,6.829,6.9542,7.0765,7.1451,7.2228,7.2859,7.3129,7.3403,7.3671,7.4014,7.4501,7.4933,7.6539,7.8299,8.0287,8.3281,8.4818,8.4763,8.6285,8.7283,8.7695,8.8294,8.8653,8.8653,8.8593,0.0,0.0,0.0,0.0,0.0,0.0,0.0,0.0,0.0,0.0,8.5585,8.507,8.4681,8.4449,8.4558,8.5715,8.8026,9.0271,9.0923,8.939,9.3103,9.6522,9.8875,10.1311,10.3488,10.53,10.6467,10.7482,10.8636,10.9692,11.075,11.184,11.2831,11.3803,11.4632,11.5436,11.6605,11.8302,12.0018,12.1355,12.296,12.4279,12.5402,12.614,12.4557,12.4073,12.6583,12.8451,12.9938,13.087,13.178,13.2922,13.4832,13.6224,13.7224,13.8363,13.9674,14.0557,14.0707,14.1002,14.1217,14.1234,14.1426,14.1645,14.1825,14.2183,14.1841,13.9226,13.9609,14.0262,5.6942,5.7377,5.811,5.8686,5.9036,5.9078,5.777,5.556,5.556,5.5851,5.6197,5.6342,5.7063,5.8258,5.8922,5.9723,6.0704,6.2096,6.3471,6.4852,6.5868,6.7628,6.9874,7.0198,7.1118,7.2589,7.2769,7.3028,7.3367,7.3664,7.3782,7.3708,7.5253,7.6679,7.7904,0.0,0.0,0.0,8.5101,8.6143,8.6567,8.6641,8.6677,8.6677,8.6677,0.0,8.6677,8.6677,8.6558,8.6318,8.5301,0.0,0.0,0.0,0.0,0.0,0.0,0.0,0.0,0.0,0.0,0.0,8.2336,8.2214,8.3322,8.6637,9.0106,9.3434,9.584,9.8271,10.0714,10.1963,10.3453,10.5483,10.6391,10.747,10.913,10.9788,11.04,11.1489,11.2034,11.3255,11.5662,11.6686,11.8075,12.0059,12.084,12.1775,12.323,12.1413,12.1023,12.355,12.5483,12.7012,12.7756,12.8326,12.9379,13.0378,13.2185,13.3604,13.4998,13.6713,13.7899,13.7987,13.8444,13.8432,13.8432,13.8881,13.8764,13.9362,14.0109,13.9412,13.5331,13.5578,13.6743,5.5809,5.5907,5.6028,5.6068,5.6166,5.6166,5.5947,5.556,5.556,5.5608,5.5705,5.6189,5.6486,5.6727,5.7775,5.8538,5.9064,6.0142,6.1258,6.2321,6.3381,6.4943,6.689,6.8172,6.9701,7.1539,7.2404,7.2624,7.2147,7.2191,7.1942,7.145,7.2401,7.4042,7.6151,7.5848,7.6935,7.9518,8.3086,8.5333,8.6218,8.6493,8.6677,8.6677,8.6677,8.6677,8.6677,8.6677,8.6199,8.5097,8.4858,8.3684,8.1495,8.0025,7.8204,0.0,7.4873,0.0,0.0,0.0,0.0,0.0,0.0,0.0,0.0,7.8011,8.0817,8.6809,9.0529,9.3038,9.4111,9.5351,9.6836,9.8687,10.074,10.2521,10.4052,10.588,10.7622,10.8958,10.997,11.1194,11.2991,11.4302,11.5273,11.6335,11.703,11.7447,11.7778,11.7733,11.7963,11.8621,12.0377,12.2785,12.4919,12.6644,12.7694,12.8375,12.8846,12.9314,13.0072,13.0663,13.0924,13.106,13.1464,13.1406,13.1114,13.1668,13.2047,13.2632,13.393,13.429,13.2588,13.2741,13.3342,5.4836,5.4924,5.5407,5.4153,5.1941,5.1901,5.2183,5.2671,5.2671,5.2671,5.2671,5.2946,5.3176,5.3496,5.4039,5.4493,5.4992,5.5937,5.735,5.9033,6.0344,6.224,6.4667,6.5853,6.7265,6.8868,6.9853,7.0441,7.0634,7.0893,7.0802,7.0556,7.1441,7.1939,7.2139,7.2444,7.4484,7.8243,8.0982,8.3469,8.571,8.6121,8.6456,8.6677,8.6677,8.6677,8.6677,8.5996,8.5361,8.4702,8.2607,8.0597,7.8683,7.6616,7.4015,0.0,0.0,0.0,0.0,0.0,0.0,0.0,0.0,0.0,0.0,0.0,7.4249,8.0173,8.4162,8.6715,8.7562,8.8691,9.0167,9.2105,9.4373,9.6412,9.7984,9.99,10.1726,10.349,10.4131,10.5832,10.9505,11.0658,11.2057,11.4731,11.2433,11.126,11.3007,11.3988,11.5169,11.7251,11.8361,11.9618,12.1045,12.1907,12.2789,12.3735,12.3997,12.4713,12.6647,12.7205,12.7627,12.8518,12.8948,12.9132,12.9153,12.9539,12.9963,13.0096,12.9159,12.801,12.7646,12.9412,13.1081,5.3147,5.3027,5.3268,5.1504,4.8404,4.8363,4.8888,4.9653,4.9653,4.9653,4.9693,4.9737,4.991,5.0256,5.0297,5.0556,5.1156,5.2009,5.3499,5.5478,5.6883,5.9181,6.2105,6.3188,6.4763,6.6612,6.7383,6.8089,6.8771,6.8856,6.8761,6.8683,6.9119,6.8839,6.7725,6.9231,7.2107,7.6321,7.851,8.1203,8.4408,8.5591,8.633,8.6677,8.6378,8.6258,8.6199,8.5001,8.3984,8.3265,8.0119,7.7273,7.5092,7.2759,0.0,0.0,0.0,0.0,0.0,0.0,0.0,0.0,0.0,6.022,6.558,0.0,6.8329,0.0,7.7706,8.0169,8.0887,8.1882,0.0,0.0,8.7706,8.9795,9.1585,9.3315,9.5336,9.7678,9.8384,10.0531,10.5374,10.6634,10.8208,11.0921,10.7683,10.6046,10.8957,11.0089,11.1625,11.415,11.5279,11.6029,11.6186,11.6561,11.7538,11.904,11.9636,12.0735,12.3245,12.3766,12.4262,12.5414,12.5998,12.6221,12.6026,12.6613,12.6888,12.6558,12.4094,12.2042,12.3163,12.5724,12.791,5.0176,4.9288,4.7802,4.6998,4.6676,4.6676,4.7118,4.7799,4.7841,4.7839,4.7839,4.7839,4.7881,4.7881,4.7923,0.0,4.8715,4.9575,5.0579,5.1635,5.3076,5.5486,5.8736,6.0015,6.256,6.6124,6.613,6.6263,6.6464,6.5619,6.4809,6.4108,6.3561,6.3397,6.3792,6.6588,6.9364,7.1859,7.5305,7.8506,8.1567,8.4555,8.627,8.6641,8.548,8.4882,8.4882,8.3649,8.1819,7.9333,7.7752,7.4702,6.9976,0.0,0.0,0.0,0.0,0.0,0.0,0.0,0.0,0.0,0.0,0.0,0.0,0.0,0.0,0.0,7.1669,0.0,7.401,7.4912,0.0,0.0,0.0,8.2821,8.4772,8.6919,8.9405,9.2597,0.0,0.0,9.9996,10.2406,10.3367,10.2313,10.3171,10.4416,10.5609,10.6272,10.6846,10.7949,10.9491,11.0686,11.1038,11.2192,11.3727,11.5452,11.7072,11.795,11.856,11.8721,11.8792,11.9152,11.9052,11.9097,11.9075,11.9417,11.9302,11.7845,11.762,11.8353,12.0172,12.1661,12.2687,4.635,4.2691,4.2054,4.1737,4.1777,4.2,4.2875,4.4113,4.4386,4.4464,4.4464,4.4464,4.4464,4.4464,4.4464,0.0,0.0,0.0,4.6953,4.7929,4.978,5.2006,5.4446,5.6015,5.8126,6.0645,6.1041,6.1581,6.2224,6.1819,6.0437,5.8033,0.0,0.0,6.1784,6.3469,6.6293,7.0203,7.2694,7.5819,7.9615,8.197,8.378,8.5078,8.4139,8.317,8.2427,8.1076,7.9127,7.6496,7.3656,7.0007,0.0,0.0,0.0,0.0,0.0,0.0,0.0,0.0,0.0,0.0,0.0,5.0205,5.4214,0.0,0.0,0.0,6.3995,6.5982,6.8897,7.0469,0.0,0.0,0.0,0.0,0.0,0.0,0.0,8.6201,8.8362,9.1098,9.4978,9.564,9.5841,9.6177,9.7986,9.9861,10.1486,0.0,10.456,10.6141,10.7315,10.8152,10.8152,10.8901,10.9765,11.065,11.1447,11.2221,11.3239,11.3454,11.3811,11.4692,11.5017,11.5106,11.5106,11.2122,10.9814,11.0295,11.0828,11.1973,11.3955,11.5724,11.6964,4.1734,0.0,0.0,0.0,0.0,3.7878,3.8816,4.0237,4.0448,4.0591,4.0591,4.0555,0.0,0.0,0.0,0.0,0.0,0.0,4.3341,4.4065,4.6212,4.8389,5.0363,5.1985,5.3718,5.5593,5.6129,5.6702,5.7297,5.6036,5.4335,5.2322,0.0,0.0,0.0,0.0,6.33,6.7441,7.0204,7.3345,7.6968,7.9175,8.1218,8.2894,8.2017,8.0972,7.976,7.7991,7.5659,7.2699,6.9169,0.0,0.0,0.0,0.0,0.0,0.0,0.0,0.0,0.0,0.0,0.0,0.0,0.0,0.0,0.0,0.0,0.0,0.0,0.0,6.3482,6.5477,6.6632,0.0,0.0,0.0,0.0,0.0,0.0,0.0,0.0,0.0,8.7586,8.8106,8.9172,0.0,0.0,9.5355,9.7355,9.9484,10.1518,10.3242,10.4359,0.0,10.471,10.4822,10.5091,10.5471,10.5667,10.6316,10.7991,10.8276,10.8654,10.9811,11.0248,10.9712,10.7924,10.3868,10.182,10.3182,10.4324,10.5692,10.7647,10.9682,11.1295,0.0,0.0,0.0,0.0,0.0,0.0,0.0,0.0,3.6371,3.6371,0.0,3.6371,0.0,0.0,0.0,0.0,3.7061,3.8894,0.0,0.0,4.2158,4.436,4.6587,4.7901,4.9728,5.1807,5.1944,5.2049,5.1947,4.7523,0.0,0.0,0.0,0.0,0.0,0.0,6.0367,6.2945,6.7697,7.1096,7.2964,7.642,7.8839,7.9943,7.9051,7.8048,7.6882,7.4403,7.1263,6.7462,6.4649,0.0,0.0,0.0,0.0,0.0,0.0,0.0,0.0,0.0,0.0,0.0,0.0,0.0,0.0,0.0,0.0,0.0,0.0,0.0,0.0,5.9185,0.0,0.0,0.0,0.0,0.0,0.0,0.0,0.0,0.0,0.0,7.7023,8.0321,8.425,8.7549,0.0,0.0,0.0,0.0,9.6987,9.7607,9.9273,10.0175,9.9345,9.9455,9.9838,10.0298,0.0,0.0,10.2944,10.322,10.3283,10.3613,10.3725,10.1748,9.5845,9.4489,9.4778,9.6575,9.825,10.0253,10.2343,10.4064,10.5576,0.0,0.0,0.0,0.0,0.0,0.0,0.0,0.0,0.0,3.2872,0.0,3.2872,0.0,0.0,0.0,0.0,0.0,0.0,0.0,0.0,3.8536,4.0276,4.1669,4.2657,4.4067,0.0,4.591,4.4216,0.0,0.0,0.0,0.0,0.0,0.0,0.0,0.0,5.7676,6.1405,6.4679,6.8013,7.137,7.4501,7.6403,7.6936,7.7141,7.5752,7.2683,7.0335,6.7283,0.0,0.0,0.0,0.0,0.0,0.0,0.0,0.0,0.0,0.0,0.0,0.0,0.0,0.0,0.0,0.0,0.0,0.0,0.0,0.0,0.0,0.0,0.0,5.7698,0.0,0.0,0.0,0.0,0.0,0.0,0.0,0.0,0.0,7.2757,7.5669,7.9182,8.2739,8.6147,8.8645,8.9704,0.0,0.0,0.0,0.0,0.0,0.0,0.0,9.6884,9.7249,9.6769,9.6583,9.7417,9.7085,9.677,9.7019,0.0,0.0,8.8994,8.7834,8.8297,8.9939,9.0901,9.2347,9.5143,9.639,9.7445,0.0,0.0,0.0,0.0,0.0,0.0,0.0,0.0,0.0,2.8791,2.8791,0.0,0.0,0.0,0.0,0.0,0.0,0.0,0.0,0.0,0.0,0.0,3.7062,3.7696,0.0,0.0,0.0,0.0,0.0,0.0,0.0,0.0,0.0,0.0,0.0,0.0,5.4842,5.9063,6.1915,6.5215,6.9066,7.1406,7.3062,7.3927,7.425,7.2916,7.0014,0.0,0.0,0.0,0.0,0.0,0.0,0.0,0.0,0.0,0.0,0.0,0.0,0.0,0.0,0.0,0.0,0.0,0.0,0.0,0.0,0.0,0.0,0.0,0.0,0.0,5.368,0.0,0.0,0.0,0.0,0.0,0.0,0.0,0.0,0.0,0.0,0.0,7.3482,7.7998,8.1552,8.4447,8.6441,8.9112,9.118,0.0,0.0,0.0,0.0,0.0,0.0,0.0,0.0,0.0,0.0,0.0,0.0,0.0,0.0,8.6267,8.2198,8.1429,8.1769,8.2752,0.0,0.0,0.0,0.0,0.0,0.0,0.0,0.0,0.0,0.0,0.0,0.0,0.0,0.0,0.0,2.4231,0.0,0.0,2.4636,0.0,0.0,0.0,0.0,0.0,0.0,0.0,0.0,0.0,0.0,0.0,0.0,0.0,0.0,0.0,0.0,0.0,0.0,0.0,0.0,0.0,0.0,5.2032,5.5813,5.9517,6.2962,6.5992,6.7241,6.8967,7.099,7.0188,6.9495,6.8811,0.0,0.0,0.0,0.0,0.0,0.0,0.0,0.0,0.0,0.0,0.0,0.0,0.0,0.0,0.0,0.0,0.0,0.0,0.0,0.0,0.0,0.0,0.0,0.0,0.0,0.0,5.1061,5.2622,5.3888,0.0,0.0,0.0,0.0,0.0,0.0,0.0,0.0,0.0,7.3439,7.5935,7.8866,8.3487,8.5807,8.7662,8.9498,9.1073,9.1729,9.0713,8.9696,8.8597,0.0,0.0,0.0,0.0,0.0,0.0,0.0,0.0,0.0,0.0,0.0,0.0,0.0,0.0,0.0,0.0,0.0,0.0,0.0,0.0,0.0,0.0,0.0,0.0,0.0,0.0,0.0,0.0,0.0,0.0,0.0,0.0,0.0,0.0,0.0,0.0,0.0,0.0,0.0,0.0,0.0,0.0,0.0,0.0,0.0,0.0,0.0,0.0,0.0,0.0,0.0,0.0,0.0,0.0,5.1155,5.5327,5.8293,6.1281,6.4442,6.641,6.7806,6.8659,6.8076,6.6825,0.0,0.0,0.0,0.0,0.0,0.0,0.0,0.0,0.0,0.0,0.0,0.0,0.0,0.0,0.0,0.0,0.0,0.0,0.0,0.0,0.0,0.0,0.0,0.0,0.0,0.0,0.0,0.0,4.9747,5.0998,5.229,0.0,0.0,0.0,0.0,0.0,0.0,0.0,0.0,0.0,0.0,7.6072,7.892,8.165,8.3789,8.4693,8.5235,8.5497,8.543,8.5306,8.4749,8.3306,0.0,0.0,0.0,0.0,0.0,0.0,0.0,0.0,0.0,0.0,0.0,0.0,0.0,0.0,0.0,0.0,0.0,0.0,0.0,0.0,0.0,0.0,0.0,0.0,0.0,0.0,0.0,0.0,0.0,0.0,0.0,0.0,0.0,0.0,0.0,0.0,0.0,0.0,0.0,0.0,0.0,0.0,0.0,0.0,0.0,0.0,0.0,0.0,0.0,0.0,0.0,0.0,0.0,4.9376,5.3871,5.6498,5.9482,6.2785,6.4588,6.5735,6.6267,6.4971,6.3487,0.0,0.0,0.0,0.0,0.0,0.0,0.0,0.0,0.0,0.0,0.0,0.0,0.0,0.0,0.0,0.0,0.0,0.0,0.0,0.0,0.0,0.0,0.0,0.0,0.0,0.0,0.0,0.0,4.6591,4.8268,4.9753,0.0,0.0,0.0,0.0,0.0,0.0,0.0,0.0,0.0,0.0,7.2145,7.5001,7.7579,0.0,0.0,8.0806,8.0882,8.1123,8.0972,8.0236,7.8706,7.7233,0.0,0.0,0.0,0.0,0.0,0.0,0.0,0.0,0.0,0.0,0.0,0.0,0.0,0.0,0.0,0.0,0.0,0.0,0.0,0.0,0.0,0.0,0.0,0.0,0.0,0.0,0.0,0.0,0.0,0.0,0.0,0.0,0.0,0.0,0.0,0.0,0.0,0.0,0.0,0.0,0.0,0.0,0.0,0.0,0.0,0.0,0.0,0.0,0.0,0.0,0.0,0.0,4.7065,5.1621,5.4419,5.7608,6.1142,6.2062,6.2997,6.3843,6.1345,5.9763,0.0,0.0,0.0,0.0,0.0,0.0,0.0,0.0,0.0,0.0,0.0,0.0,0.0,0.0,0.0,0.0,0.0,0.0,0.0,0.0,0.0,0.0,0.0,0.0,0.0,0.0,0.0,0.0,0.0,0.0,0.0,0.0,0.0,0.0,0.0,0.0,0.0,0.0,0.0,0.0,0.0,6.7549,7.1621,7.3686,7.5411,0.0,7.7702,7.7636,7.7619,7.6627,7.5382,7.3952,0.0,0.0,0.0,0.0,0.0,0.0,0.0,0.0,0.0,0.0,0.0,0.0,0.0,0.0,0.0,0.0,0.0,0.0,0.0,0.0,0.0,0.0,0.0,0.0,0.0,0.0,0.0,0.0,0.0,0.0,0.0,0.0,0.0,0.0,0.0,0.0,0.0,0.0,0.0,0.0,0.0,0.0,0.0,0.0,0.0,0.0,0.0,0.0,0.0,0.0,0.0,0.0,0.0,0.0,5.0258,5.3635,5.6738,5.9545,6.1271,6.21,6.1942,6.0191,0.0,0.0,0.0,0.0,0.0,0.0,0.0,0.0,0.0,0.0,0.0,0.0,0.0,0.0,0.0,0.0,0.0,0.0,0.0,0.0,0.0,0.0,0.0,0.0,0.0,0.0,0.0,3.7016,0.0,0.0,0.0,0.0,0.0,0.0,0.0,0.0,0.0,0.0,0.0,0.0,0.0,0.0,6.3341,6.8303,7.0604,7.2523,0.0,0.0,7.4744,7.4767,7.3587,7.2184,0.0,0.0,0.0,0.0,0.0,0.0,0.0,0.0,0.0,0.0,0.0,0.0,0.0,0.0,0.0,0.0,0.0,0.0,0.0,0.0,0.0,0.0,0.0,0.0,0.0,0.0,0.0,0.0,0.0,0.0,0.0,0.0,0.0,0.0,0.0,0.0,0.0,0.0,0.0,0.0,0.0,0.0,0.0,0.0,0.0,0.0,0.0,0.0,0.0,0.0,0.0,0.0,0.0,0.0,4.4594,4.8784,5.1913,5.4855,5.7574,5.9241,5.9795,5.9268,5.7723,5.5777,0.0,0.0,0.0,0.0,0.0,0.0,0.0,0.0,0.0,0.0,0.0,0.0,0.0,0.0,0.0,0.0,0.0,0.0,0.0,0.0,0.0,0.0,0.0,0.0,0.0,0.0,0.0,0.0,0.0,0.0,0.0,0.0,0.0,0.0,0.0,0.0,0.0,0.0,0.0,0.0,0.0,0.0,6.4254,6.6553,0.0,0.0,0.0,6.9879,6.9879,0.0,0.0,0.0,0.0,0.0,0.0,0.0,0.0,0.0,0.0,0.0,0.0,0.0,0.0,0.0,0.0,0.0,0.0,0.0,0.0,0.0,0.0,0.0,0.0,0.0,0.0,0.0,0.0,0.0,0.0,0.0,0.0,0.0,0.0,0.0,0.0,0.0,0.0,0.0,0.0,0.0,0.0,0.0,0.0,0.0,0.0,0.0,0.0,0.0,0.0,0.0,0.0,0.0,0.0,0.0,0.0,0.0,4.7076,4.9888,5.268,5.5439,5.6821,5.7228,5.6651,5.5036,5.3227,0.0,0.0,0.0,0.0,0.0,0.0,0.0,0.0,0.0,0.0,0.0,0.0,0.0,0.0,0.0,0.0,0.0,0.0,0.0,0.0,0.0,0.0,0.0,0.0,0.0,0.0,0.0,0.0,0.0,0.0,0.0,0.0,0.0,0.0,0.0,0.0,0.0,0.0,0.0,0.0,0.0,5.7379,5.9988,6.1968,6.3507,0.0,0.0,6.4731,6.4883,6.462,0.0,0.0,0.0,0.0,0.0,0.0,0.0,0.0,0.0,0.0,0.0,0.0,0.0,0.0,0.0,0.0,0.0,0.0,0.0,0.0,0.0,0.0,0.0,0.0,0.0,0.0,0.0,0.0,0.0,0.0,0.0,0.0,0.0,0.0,0.0,0.0,0.0,0.0,0.0,0.0,0.0,0.0,0.0,0.0,0.0,0.0,0.0,0.0,0.0,0.0,0.0,0.0,0.0,0.0,0.0,0.0,4.4679,4.9044,5.2147,5.3922,5.6276,5.7025,5.5993,5.4327,5.2065,0.0,0.0,0.0,0.0,0.0,0.0,0.0,0.0,0.0,0.0,0.0,0.0,0.0,0.0,0.0,0.0,0.0,0.0,0.0,0.0,0.0,0.0,0.0,0.0,0.0,0.0,0.0,0.0,0.0,0.0,0.0,0.0,0.0,0.0,0.0,0.0,0.0,0.0,0.0,0.0,0.0,5.3427,5.6772,5.8077,0.0,0.0,0.0,0.0,6.4752,6.2977,0.0,0.0,0.0,0.0,0.0,0.0,0.0,0.0,0.0,0.0,0.0,0.0,0.0,0.0,0.0,0.0,0.0,0.0,0.0,0.0,0.0,0.0,0.0,0.0,0.0,0.0,0.0,0.0,0.0,0.0,0.0,0.0,0.0,0.0,0.0,0.0,0.0,0.0,0.0,0.0,0.0,0.0,0.0,0.0,0.0,0.0,0.0,0.0,0.0,0.0,0.0,0.0,0.0,0.0,0.0,0.0,4.351,4.7375,5.0453,5.2656,5.4562,5.5051,5.3926,5.2645,5.0534,0.0,0.0,0.0,0.0,0.0,0.0,0.0,0.0,0.0,0.0,0.0,0.0,0.0,0.0,0.0,0.0,0.0,0.0,0.0,0.0,0.0,0.0,0.0,0.0,0.0,0.0,0.0,0.0,0.0,0.0,0.0,0.0,0.0,0.0,0.0,0.0,0.0,0.0,0.0,0.0,4.9888,5.1677,5.4457,0.0,0.0,0.0,0.0,0.0,0.0,5.9455,5.8328,0.0,0.0,0.0,0.0,0.0,0.0,0.0,0.0,0.0,0.0,0.0,0.0,0.0,0.0,0.0,0.0,0.0,0.0,0.0,0.0,0.0,0.0,0.0,0.0,0.0,0.0,0.0,0.0,0.0,0.0,0.0,0.0,0.0,0.0,0.0,0.0,0.0,0.0,0.0,0.0,0.0,0.0,0.0,0.0,0.0,0.0,0.0,0.0,0.0,0.0,0.0,0.0,0.0,0.0,0.0,4.247,4.544,4.8462,5.1457,5.2656,5.2757,5.1938,5.0849,4.8827,4.5679,0.0,0.0,0.0,0.0,0.0,0.0,0.0,0.0,0.0,0.0,0.0,0.0,0.0,0.0,0.0,0.0,0.0,0.0,0.0,0.0,0.0,0.0,0.0,0.0,0.0,0.0,0.0,0.0,0.0,0.0,0.0,0.0,0.0,0.0,0.0,0.0,0.0,0.0,0.0,4.8049,4.9944,0.0,0.0,0.0,0.0,0.0,0.0,0.0,0.0,5.5074,0.0,0.0,0.0,0.0,0.0,0.0,0.0,0.0,0.0,0.0,0.0,0.0,0.0,0.0,0.0,0.0,0.0,0.0,0.0,0.0,0.0,0.0,0.0,0.0,0.0,0.0,0.0,0.0,0.0,0.0,0.0,0.0,0.0,0.0,0.0,0.0,0.0,0.0,0.0,0.0,0.0,0.0,0.0,0.0,0.0,0.0,0.0,0.0,0.0,0.0,0.0,0.0,0.0,0.0,0.0,0.0,4.3747,4.7195,5.0003,5.1426,5.2059,5.1887,5.0144,4.7223,4.2987,0.0,0.0,0.0,0.0,0.0,0.0,0.0,0.0,0.0,0.0,0.0,0.0,0.0,0.0,0.0,0.0,0.0,0.0,0.0,0.0,0.0,0.0,0.0,0.0,0.0,0.0,0.0,0.0,0.0,0.0,0.0,0.0,0.0,0.0,0.0,0.0,0.0,0.0,4.1734,4.3711,0.0,0.0,0.0,0.0,0.0,0.0,0.0,0.0,5.4048,0.0,0.0,0.0,0.0,0.0,0.0,0.0,0.0,0.0,0.0,0.0,0.0,0.0,0.0,0.0,0.0,0.0,0.0,0.0,0.0,0.0,0.0,0.0,0.0,0.0,0.0,0.0,0.0,0.0,0.0,0.0,0.0,0.0,0.0,0.0,0.0,0.0,0.0,0.0,0.0,0.0,0.0,0.0,0.0,0.0,0.0,0.0,0.0,0.0,0.0,0.0,0.0,0.0,0.0,0.0,0.0,0.0,0.0,4.5281,4.7721,4.9762,5.0583,5.0106,4.8057,4.5104,0.0,0.0,0.0,0.0,0.0,0.0,0.0,0.0,0.0,0.0,0.0,0.0,0.0,0.0,0.0,0.0,0.0,0.0,0.0,0.0,0.0,0.0,0.0,0.0,0.0,0.0,0.0,0.0,0.0,0.0,0.0,0.0,0.0,0.0,0.0,0.0,0.0,0.0,0.0,0.0,0.0,0.0,0.0,0.0,0.0,0.0,0.0,0.0,0.0,0.0,0.0,0.0,0.0,0.0,0.0,0.0,0.0,0.0,0.0,0.0,0.0,0.0,0.0,0.0,0.0,0.0,0.0,0.0,0.0,0.0,0.0,0.0,0.0,0.0,0.0,0.0,0.0,0.0,0.0,0.0,0.0,0.0,0.0,0.0,0.0,0.0,0.0,0.0,0.0,0.0,0.0,0.0,0.0,0.0,0.0,0.0,0.0,0.0,0.0,0.0,0.0,0.0,0.0,0.0,0.0,0.0,0.0,0.0,4.3127,4.5707,4.8112,4.8894,4.8108,4.5644,4.2905,0.0,0.0,0.0,0.0,0.0,0.0,0.0,0.0,0.0,0.0,0.0,0.0,0.0,0.0,0.0,0.0,0.0,0.0,0.0,0.0,0.0,0.0,0.0,0.0,0.0,0.0,0.0,0.0,0.0,0.0,0.0,0.0,0.0,0.0,0.0,0.0,0.0,0.0,0.0,0.0,0.0,0.0,0.0,0.0,0.0,0.0,0.0,0.0,4.6983,0.0,0.0,0.0,0.0,0.0,0.0,0.0,0.0,0.0,0.0,0.0,0.0,0.0,0.0,0.0,0.0,0.0,0.0,0.0,0.0,0.0,0.0,0.0,0.0,0.0,0.0,0.0,0.0,0.0,0.0,0.0,0.0,0.0,0.0,0.0,0.0,0.0,0.0,0.0,0.0,0.0,0.0,0.0,0.0,0.0,0.0,0.0,0.0,0.0,0.0,0.0,0.0,0.0,0.0,0.0,0.0,0.0,0.0,0.0,4.0964,4.4786,4.6809,4.7441,4.6648,4.3498,4.0678,0.0,0.0,0.0,0.0,0.0,0.0,0.0,0.0,0.0,0.0,0.0,0.0,0.0,0.0,0.0,0.0,0.0,0.0,0.0,0.0,0.0,0.0,0.0,0.0,0.0,0.0,0.0,0.0,0.0,0.0,0.0,0.0,0.0,0.0,0.0,0.0,0.0,0.0,0.0,0.0,0.0,0.0,0.0,0.0,0.0,0.0,0.0,0.0,0.0,0.0,0.0,0.0,0.0,0.0,0.0,0.0,0.0,0.0,0.0,0.0,0.0,0.0,0.0,0.0,0.0,0.0,0.0,0.0,0.0,0.0,0.0,0.0,0.0,0.0,0.0,0.0,0.0,0.0,0.0,0.0,0.0,0.0,0.0,0.0,0.0,0.0,0.0,0.0,0.0,0.0,0.0,0.0,0.0,0.0,0.0,0.0,0.0,0.0,0.0,0.0,0.0,0.0,0.0,0.0,0.0,0.0,0.0,0.0,3.842,4.1052,4.3026,4.344,4.235,4.0658,3.8883,0.0,0.0,0.0,0.0,0.0,0.0,0.0,0.0,0.0,0.0,0.0,0.0,0.0,0.0,0.0,0.0,0.0,0.0,0.0,0.0,0.0,0.0,0.0,0.0,0.0,0.0,0.0,0.0,0.0,0.0,0.0,0.0,0.0,0.0,0.0,0.0,0.0,0.0,0.0,0.0,0.0,0.0,0.0,0.0,0.0,0.0,0.0,0.0,0.0,0.0,0.0,0.0,0.0,0.0,0.0,0.0,0.0,0.0,0.0,0.0,0.0,0.0,0.0,0.0,0.0,0.0,0.0,0.0,0.0,0.0,0.0,0.0,0.0,0.0,0.0,0.0,0.0,0.0,0.0,0.0,0.0,0.0,0.0,0.0,0.0,0.0,0.0,0.0,0.0,0.0,0.0,0.0,0.0,0.0,0.0,0.0,0.0,0.0,0.0,0.0,0.0,0.0,0.0,0.0,0.0,0.0,0.0,0.0,0.0,3.7774,3.8875,3.9014,3.8098,3.7979,3.69,0.0,0.0,0.0,0.0,0.0,0.0,0.0,0.0,0.0,0.0,0.0,0.0,0.0,0.0,0.0,0.0,0.0,0.0,0.0,0.0,0.0,0.0,0.0,0.0,0.0,0.0,0.0,0.0,0.0,0.0,0.0,0.0,0.0,0.0,0.0,0.0,0.0,0.0,0.0,0.0,0.0,0.0,0.0,0.0,0.0,0.0,0.0,0.0,0.0,0.0,0.0,0.0,0.0,0.0,0.0,0.0,0.0,0.0,0.0,0.0,0.0,0.0,0.0,0.0,0.0,0.0,0.0,0.0,0.0,0.0,0.0,0.0,0.0,0.0,0.0,0.0,0.0,0.0,0.0,0.0,0.0,0.0,0.0,0.0,0.0,0.0,0.0,0.0,0.0,0.0,0.0,0.0,0.0,0.0,0.0,0.0,0.0,0.0,0.0,0.0,0.0,0.0,0.0,0.0,0.0,0.0,0.0,0.0,0.0,3.6041,3.4913,3.4467,3.4876,3.5509,3.4646,0.0,0.0,0.0,0.0,0.0,0.0,0.0,0.0,0.0,0.0,0.0,0.0,0.0,0.0,0.0,0.0,0.0,0.0,0.0,0.0,0.0,0.0,0.0,0.0,0.0,0.0,0.0,0.0,0.0,0.0,0.0,0.0,0.0,0.0,0.0,0.0,0.0,0.0,0.0,0.0,0.0,0.0,0.0,0.0,0.0,0.0,0.0,0.0,0.0,0.0,0.0,0.0,0.0,0.0,0.0,0.0,0.0,0.0,0.0,0.0,0.0,0.0,0.0,0.0,0.0,0.0,0.0,0.0,0.0,0.0,0.0,0.0,0.0,0.0,0.0,0.0,0.0,0.0,0.0,0.0,0.0,0.0,0.0,0.0,0.0,0.0,0.0,0.0,0.0,0.0,0.0,0.0,0.0,0.0,0.0,0.0,0.0,0.0,0.0,0.0,0.0,0.0,0.0,0.0,0.0,0.0,0.0,0.0,0.0,3.0859,3.1594,3.2229,3.2775,3.2991,3.2447,3.1128,0.0,0.0,0.0,0.0,0.0,0.0,0.0,0.0,0.0,0.0,0.0,0.0,0.0,0.0,0.0,0.0,0.0,0.0,0.0,0.0,0.0,0.0,0.0,0.0,0.0,0.0,0.0,0.0,0.0,0.0,0.0,0.0,0.0,0.0,0.0,0.0,0.0,0.0,0.0,0.0,0.0,0.0,0.0,0.0,0.0,0.0,0.0,0.0,0.0,0.0,0.0,0.0,0.0,0.0,0.0,0.0,0.0,0.0,0.0,0.0,0.0,0.0,0.0,0.0,0.0,0.0,0.0,0.0,0.0,0.0,0.0,0.0,0.0,0.0,0.0,0.0,0.0,0.0,0.0,0.0,0.0,0.0,0.0,0.0,0.0,0.0,0.0,0.0,0.0,0.0,0.0,0.0,0.0,0.0,0.0,0.0,0.0,0.0,0.0,0.0,0.0,0.0,0.0,0.0,0.0,0.0,0.0,0.0,2.755,2.9,3.0165,3.0932,3.0743,3.0259,0.0,0.0,0.0,0.0,0.0,0.0,0.0,0.0,0.0,0.0,0.0,0.0,0.0,0.0,0.0,0.0,0.0,0.0,0.0,0.0,0.0,0.0,0.0,0.0,0.0,0.0,0.0,0.0,0.0,0.0,0.0,0.0,0.0,0.0,0.0,0.0,0.0,0.0,0.0,0.0,0.0,0.0,0.0,0.0,0.0,0.0,0.0,0.0,0.0,0.0,0.0,0.0,0.0,0.0,0.0,0.0,0.0,0.0,0.0,0.0,0.0,0.0,0.0,0.0,0.0,0.0,0.0,0.0,0.0,0.0,0.0,0.0,0.0,0.0,0.0,0.0,0.0,0.0,0.0,0.0,0.0,0.0,0.0,0.0,0.0,0.0,0.0,0.0,0.0,0.0,0.0,0.0,0.0,0.0,0.0,0.0,0.0,0.0,0.0,0.0,0.0,0.0,0.0,0.0,0.0,0.0,0.0,0.0,2.4049,2.6837,2.7125,2.7884,2.9298,2.8841,2.8152,0.0,0.0,0.0,0.0,0.0,0.0,0.0,0.0,0.0,0.0,0.0,0.0,0.0,0.0,0.0,0.0,0.0,0.0,0.0,0.0,0.0,0.0,0.0,0.0,0.0,0.0,0.0,0.0,0.0,0.0,0.0,0.0,0.0,0.0,0.0,0.0,0.0,0.0,0.0,0.0,0.0,0.0,0.0,0.0,0.0,0.0,0.0,0.0,0.0,0.0,0.0,0.0,0.0,0.0,0.0,0.0,0.0,0.0,0.0,0.0,0.0,0.0,0.0,0.0,0.0,0.0,0.0,0.0,0.0,0.0,0.0,0.0,0.0,0.0,0.0,0.0,0.0,0.0,0.0,0.0,0.0,0.0,0.0,0.0,0.0,0.0,0.0,0.0,0.0,0.0,0.0,0.0,0.0,0.0,0.0,0.0,0.0,0.0,0.0,0.0,0.0,0.0,0.0,0.0,0.0,0.0,0.0,0.0,0.0,2.3926,0.0,2.5516,0.0,2.6473,2.6432,0.0,0.0,0.0,0.0,0.0,0.0,0.0,0.0,0.0,0.0,0.0,0.0,0.0,0.0,0.0,0.0,0.0,0.0,0.0,0.0,0.0,0.0,0.0,0.0,0.0,0.0,0.0,0.0,0.0,0.0,0.0,0.0,0.0,0.0,0.0,0.0,0.0,0.0,0.0,0.0,0.0,0.0,0.0,0.0,0.0,0.0,0.0,0.0,0.0,0.0,0.0,0.0,0.0,0.0,0.0,0.0,0.0,0.0,0.0,0.0,0.0,0.0,0.0,0.0,0.0,0.0,0.0,0.0,0.0,0.0,0.0,0.0,0.0,0.0,0.0,0.0,0.0,0.0,0.0,0.0,0.0,0.0,0.0,0.0,0.0,0.0,0.0,0.0,0.0,0.0,0.0,0.0,0.0,0.0,0.0,0.0,0.0,0.0,0.0,0.0,0.0,0.0,0.0,0.0,0.0,0.0,0.0,0.0,0.0,2.1565,2.2952,2.3907,2.4482,2.4877,2.5072,0.0,0.0,0.0,0.0,0.0,0.0,0.0,0.0,0.0,0.0,0.0,0.0,0.0,0.0,0.0,0.0,0.0,0.0,0.0,0.0,0.0,0.0,0.0,0.0,0.0,0.0,0.0,0.0,0.0,0.0,0.0,0.0,0.0,0.0,0.0,0.0,0.0,0.0,0.0,0.0,0.0,0.0,0.0,0.0,0.0,0.0,0.0,0.0,0.0,0.0,0.0,0.0,0.0,0.0,0.0,0.0,0.0,0.0,0.0,0.0,0.0,0.0,0.0,0.0,0.0,0.0,0.0,0.0,0.0,0.0,0.0,0.0,0.0,0.0,0.0,0.0,0.0,0.0,0.0,0.0,0.0,0.0,0.0,0.0,0.0,0.0,0.0,0.0,0.0,0.0,0.0,0.0,0.0,0.0,0.0,0.0,0.0,0.0,0.0,0.0,0.0,0.0,0.0,0.0,0.0,0.0,0.0,0.0,0.0,0.0,2.1546,2.3012,2.4235,2.3886,2.4069,0.0,0.0,0.0,0.0,0.0,0.0,0.0,0.0,0.0,0.0,0.0,0.0,0.0,0.0,0.0,0.0,0.0,0.0,0.0,0.0,0.0,0.0,0.0,0.0,0.0,0.0,0.0,0.0,0.0,0.0,0.0,0.0,0.0,0.0,0.0,0.0,0.0,0.0,0.0,0.0,0.0,0.0,0.0,0.0,0.0,0.0,0.0,0.0,0.0,0.0,0.0,0.0,0.0,0.0,0.0,0.0,0.0,0.0,0.0,0.0,0.0,0.0,0.0,0.0,0.0,0.0,0.0,0.0,0.0,0.0,0.0,0.0,0.0,0.0,0.0,0.0,0.0,0.0,0.0,0.0,0.0,0.0,0.0,0.0,0.0,0.0,0.0,0.0,0.0,0.0,0.0,0.0,0.0,0.0,0.0,0.0,0.0,0.0,0.0,0.0,0.0,0.0,0.0,0.0,0.0,0.0,0.0,0.0,0.0,0.0,2.0325,0.0,2.2061,2.2425,2.2552,2.2438,0.0,0.0,0.0,0.0,0.0,0.0,0.0,0.0,0.0,0.0,0.0,0.0,0.0,0.0,0.0,0.0,0.0,0.0,0.0,0.0,0.0,0.0,0.0,0.0,0.0,0.0,0.0,0.0,0.0,0.0,0.0,0.0,0.0,0.0,0.0,0.0,0.0,0.0,0.0,0.0,0.0,0.0,0.0,0.0,0.0,0.0,0.0,0.0,0.0,0.0,0.0,0.0,0.0,0.0,0.0,0.0,0.0,0.0,0.0,0.0,0.0,0.0,0.0,0.0,0.0,0.0,0.0,0.0,0.0,0.0,0.0,0.0,0.0,0.0,0.0,0.0,0.0,0.0,0.0,0.0,0.0,0.0,0.0,0.0,0.0,0.0,0.0,0.0,0.0,0.0,0.0,0.0,0.0,0.0,0.0,0.0,0.0,0.0,0.0,0.0,0.0,0.0,0.0,0.0,0.0,0.0,0.0,0.0,0.0,0.0,0.0,2.0628,2.1465,2.1756,0.0,0.0,0.0,0.0,0.0,0.0,0.0,0.0,0.0,0.0,0.0,0.0,0.0,0.0,0.0,0.0,0.0,0.0,0.0,0.0,0.0,0.0,0.0,0.0,0.0,0.0,0.0,0.0,0.0,0.0,0.0,0.0,0.0,0.0,0.0,0.0,0.0,0.0,0.0,0.0,0.0,0.0,0.0,0.0,0.0,0.0,0.0,0.0,0.0,0.0,0.0,0.0,0.0,0.0,0.0,0.0,0.0,0.0,0.0,0.0,0.0,0.0,0.0,0.0,0.0,0.0,0.0,0.0,0.0,0.0,0.0,0.0,0.0,0.0,0.0,0.0,0.0,0.0,0.0,0.0,0.0,0.0,0.0,0.0,0.0,0.0,0.0,0.0,0.0,0.0,0.0,0.0,0.0,0.0,0.0,0.0,0.0,0.0,0.0,0.0,0.0,0.0,0.0,0.0,0.0,0.0,0.0,0.0,0.0,0.0,0.0,1.9647,1.9848,2.0763,0.0,2.1237,0.0,0.0,0.0,0.0,0.0,0.0,0.0,0.0,0.0,0.0,0.0,0.0,0.0,0.0,0.0,0.0,0.0,0.0,0.0,0.0,0.0,0.0,0.0,0.0,0.0,0.0,0.0,0.0,0.0,0.0,0.0,0.0,0.0,0.0,0.0,0.0,0.0,0.0,0.0,0.0,0.0,0.0,0.0,0.0,0.0,0.0,0.0,0.0,0.0,0.0,0.0,0.0,0.0,0.0,0.0,0.0,0.0,0.0,0.0,0.0,0.0,0.0,0.0,0.0,0.0,0.0,0.0,0.0,0.0,0.0,0.0,0.0,0.0,0.0,0.0,0.0,0.0,0.0,0.0,0.0,0.0,0.0,0.0,0.0,0.0,0.0,0.0,0.0,0.0,0.0,0.0,0.0,0.0,0.0,0.0,0.0,0.0,0.0,0.0,0.0,0.0,0.0,0.0,0.0,0.0,0.0,0.0,0.0,0.0,0.0,0.0,0.0,1.9401,1.9597,2.0381,0.0,0.0,0.0,0.0,0.0,0.0,0.0,0.0,0.0,0.0,0.0,0.0,0.0,0.0,0.0,0.0,0.0,0.0,0.0,0.0,0.0,0.0,0.0,0.0,0.0,0.0,0.0,0.0,0.0,0.0,0.0,0.0,0.0,0.0,0.0,0.0,0.0,0.0,0.0,0.0,0.0,0.0,0.0,0.0,0.0,0.0,0.0,0.0,0.0,0.0,0.0,0.0,0.0,0.0,0.0,0.0,0.0,0.0,0.0,0.0,0.0,0.0,0.0,0.0,0.0,0.0,0.0,0.0,0.0,0.0,0.0,0.0,0.0,0.0,0.0,0.0,0.0,0.0,0.0,0.0,0.0,0.0,0.0,0.0,0.0,0.0,0.0,0.0,0.0,0.0,0.0,0.0,0.0,0.0,0.0,0.0,0.0,0.0,0.0,0.0,0.0,0.0,0.0,0.0,0.0,0.0,0.0,0.0,0.0,0.0,1.7921,1.9166,1.8692,1.8824,1.9518,0.0,0.0,0.0,0.0,0.0,0.0,0.0,0.0,0.0,0.0,0.0,0.0,0.0,0.0,0.0,0.0,0.0,0.0,0.0,0.0,0.0,0.0,0.0,0.0,0.0,0.0,0.0,0.0,0.0,0.0,0.0,0.0,0.0,0.0,0.0,0.0,0.0,0.0,0.0,0.0,0.0,0.0,0.0,0.0,0.0,0.0,0.0,0.0,0.0,0.0,0.0,0.0,0.0,0.0,0.0,0.0,0.0,0.0,0.0,0.0,0.0,0.0,0.0,0.0,0.0,0.0,0.0,0.0,0.0,0.0,0.0,0.0,0.0,0.0,0.0,0.0,0.0,0.0,0.0,0.0,0.0,0.0,0.0,0.0,0.0,0.0,0.0,0.0,0.0,0.0,0.0,0.0,0.0,0.0,0.0,0.0,0.0,0.0,0.0,0.0,0.0,0.0,0.0,0.0,0.0,0.0,0.0,0.0,0.0,0.0,0.0,0.0,0.0,0.0,1.8613,0.0,0.0,0.0,0.0,0.0,0.0,0.0,0.0,0.0,0.0,0.0,0.0,0.0,0.0,0.0,0.0,0.0,0.0,0.0,0.0,0.0,0.0,0.0,0.0,0.0,0.0,0.0,0.0,0.0,0.0,0.0,0.0,0.0,0.0,0.0,0.0,0.0,0.0,0.0,0.0,0.0,0.0,0.0,0.0,0.0,0.0,0.0,0.0,0.0,0.0,0.0,0.0,0.0,0.0,0.0,0.0,0.0,0.0,0.0,0.0,0.0,0.0,0.0,0.0,0.0,0.0,0.0,0.0,0.0,0.0,0.0,0.0,0.0,0.0,0.0,0.0,0.0,0.0,0.0,0.0,0.0,0.0,0.0,0.0,0.0,0.0,0.0,0.0,0.0,0.0,0.0,0.0,0.0,0.0,0.0,0.0,0.0,0.0,0.0,0.0,0.0,0.0,0.0,0.0,0.0,0.0,0.0,0.0,0.0,0.0,0.0,0.0,0.0,0.0,0.0,0.0,0.0,0.0,0.0,0.0,0.0,0.0,0.0,0.0,0.0,0.0,0.0,0.0,0.0,0.0,0.0,0.0,0.0,0.0,0.0,0.0,0.0,0.0,0.0,0.0,0.0,0.0,0.0,0.0,0.0,0.0,0.0,0.0,0.0,0.0,0.0,0.0,0.0,0.0,0.0,0.0,0.0,0.0,0.0,0.0,0.0,0.0,0.0,0.0,0.0,0.0,0.0,0.0,0.0,0.0,0.0,0.0,0.0,0.0,0.0,0.0,0.0,0.0,0.0,0.0,0.0,0.0,0.0,0.0,0.0,0.0,0.0,0.0,0.0,0.0,0.0,0.0,0.0,0.0,0.0,0.0,0.0,0.0,0.0,0.0,0.0,0.0,0.0,0.0,0.0,0.0,0.0,0.0,0.0,0.0,0.0,0.0,0.0,0.0,0.0,0.0,0.0,0.0,0.0,0.0,0.0,0.0,0.0,0.0,0.0,0.0,0.0,0.0,0.0,0.0,0.0,0.0,0.0,0.0,0.0,0.0,0.0,0.0,0.0,0.0,0.0,0.0,0.0,0.0,0.0,0.0,0.0,0.0,0.0,0.0,0.0,0.0,0.0,0.0,0.0,0.0,0.0,0.0,0.0,0.0,0.0,0.0,0.0,0.0,0.0,0.0,0.0,0.0,0.0,0.0,0.0,0.0,0.0,0.0,0.0,0.0,0.0,0.0,0.0,0.0,0.0,0.0,0.0,0.0,0.0,0.0,0.0,0.0,0.0,0.0,0.0,0.0,0.0,0.0,0.0,0.0,0.0,0.0,0.0,0.0,0.0,0.0,0.0,0.0,0.0,0.0,0.0,0.0,0.0,0.0,0.0,0.0,0.0,0.0,0.0,0.0,0.0,0.0,0.0,0.0,0.0,0.0,0.0,0.0,0.0,0.0,0.0,0.0,0.0,0.0,0.0,0.0,0.0,0.0,0.0,0.0,0.0,0.0,0.0,0.0,0.0,0.0,0.0,0.0,0.0,0.0,0.0,0.0,0.0,0.0,0.0,0.0,0.0,0.0,0.0,0.0,0.0,0.0,0.0,0.0,0.0,0.0,0.0,0.0,0.0,0.0,0.0,0.0,0.0,0.0,0.0,0.0,0.0,0.0,0.0,0.0,0.0,0.0,0.0,0.0,0.0,0.0,0.0,0.0,0.0,0.0,0.0,0.0,0.0,0.0,0.0,0.0,0.0,0.0,0.0,0.0,0.0,0.0,0.0,0.0,0.0,0.0,0.0,0.0,0.0,0.0,0.0,0.0,0.0,0.0,0.0,0.0,0.0,0.0,0.0,0.0,0.0,0.0,0.0,0.0,0.0,0.0,0.0,0.0,0.0,0.0,0.0,0.0,0.0,0.0,0.0,0.0,0.0,0.0,0.0,0.0,0.0,0.0,0.0,0.0,0.0,0.0,0.0,0.0,0.0,0.0,0.0,0.0,0.0,0.0,0.0,0.0,0.0,0.0,0.0,0.0,0.0,0.0,0.0,0.0,0.0,0.0,0.0,0.0,0.0,0.0,0.0,0.0,0.0,0.0,0.0,0.0,0.0,0.0,0.0,0.0,0.0,0.0,0.0,0.0,0.0,0.0,0.0,0.0,0.0,0.0,0.0,0.0,0.0,0.0,0.0,0.0,0.0,0.0,0.0,0.0,0.0,0.0,0.0,0.0,0.0,0.0,0.0,0.0,0.0,0.0,0.0,0.0,0.0,0.0,0.0,0.0,0.0,0.0,0.0,0.0,0.0,0.0,0.0,0.0,0.0,0.0,0.0,0.0,0.0,0.0,0.0,0.0,0.0,0.0,0.0,0.0,0.0,0.0,0.0,0.0,0.0,0.0,0.0,0.0,0.0,0.0,0.0,0.0,0.0,0.0,0.0,0.0,0.0,0.0,0.0,0.0,0.0,0.0,0.0,0.0,0.0,0.0,0.0,0.0,0.0,0.0,0.0,0.0,0.0,0.0,0.0,0.0,0.0,0.0,0.0,0.0,0.0,0.0,0.0,0.0,0.0,0.0,0.0,0.0,0.0,0.0,0.0,0.0,0.0,0.0,0.0,0.0,0.0,0.0,0.0,0.0,0.0,0.0,0.0,0.0,0.0,0.0,0.0,0.0,0.0,0.0,0.0,0.0,0.0,0.0,0.0,0.0,0.0,0.0,0.0,0.0,0.0,0.0,0.0,0.0,0.0,0.0,0.0,0.0,0.0,0.0,0.0,0.0,0.0,0.0,0.0,0.0,0.0,0.0,0.0,0.0,0.0,0.0,0.0,0.0,0.0,0.0,0.0,0.0,0.0,0.0,0.0,0.0,0.0,0.0,0.0,0.0,0.0,0.0,0.0,0.0,0.0,0.0,0.0,0.0,0.0,0.0,0.0,0.0,0.0,0.0,0.0,0.0,0.0,0.0,0.0,0.0,0.0,0.0,0.0,0.0,0.0,0.0,0.0,0.0,0.0,0.0,0.0,0.0,0.0,0.0,0.0,0.0,0.0,0.0,0.0,0.0,0.0,0.0,0.0,0.0,0.0,0.0,0.0,0.0,0.0,0.0,0.0,0.0,0.0,0.0,0.0,0.0,0.0,0.0,0.0,0.0,0.0,0.0,0.0,0.0,0.0,0.0,0.0,0.0,0.0,0.0,0.0,0.0,0.0,0.0,0.0,0.0,0.0,0.0,0.0,0.0,0.0,0.0,0.0,0.0,0.0,0.0,0.0,0.0,0.0,0.0,0.0,0.0,0.0,0.0,0.0,0.0,0.0,0.0,0.0,0.0,0.0,0.0,0.0,0.0,0.0,0.0,0.0,0.0,0.0,0.0,0.0,0.0,0.0,0.0,0.0,0.0,0.0,0.0,0.0,0.0,0.0,0.0,0.0,0.0,0.0,0.0,0.0,0.0,0.0,0.0,0.0,0.0,0.0,0.0,0.0,0.0,0.0,0.0,0.0,0.0,0.0,0.0,0.0,0.0,0.0,0.0,0.0,0.0,0.0,0.0,0.0,0.0,0.0,0.0,0.0,0.0,0.0,0.0,0.0,0.0,0.0,0.0,0.0,0.0,0.0,0.0,0.0,0.0,0.0,0.0,0.0,0.0,0.0,0.0,0.0,0.0,0.0,0.0,0.0,0.0,0.0,0.0,0.0,0.0,0.0,0.0,0.0,0.0,0.0,0.0,0.0,0.0,0.0,0.0,0.0,0.0,0.0,0.0,0.0,0.0,0.0,0.0,0.0,0.0,0.0,0.0,0.0,0.0,0.0,0.0,0.0,0.0,0.0,0.0,0.0,0.0,0.0,0.0,0.0,0.0,0.0,0.0,0.0,0.0,0.0,0.0,0.0,0.0,0.0,0.0,0.0,0.0,0.0,0.0,0.0,0.0,0.0,0.0,0.0,0.0,0.0,0.0,0.0,0.0,0.0,0.0,0.0,0.0,0.0,0.0,0.0,0.0,0.0,0.0,0.0,0.0,0.0,0.0,0.0,0.0,0.0,0.0,0.0,0.0,0.0,0.0,0.0,0.0,0.0,0.0,0.0,0.0,0.0,0.0,0.0,0.0,0.0,0.0,0.0,0.0,0.0,0.0,0.0,0.0,0.0,0.0,0.0,0.0,0.0,0.0,0.0,0.0,0.0,0.0,0.0,0.0,0.0,0.0,0.0,0.0,0.0,0.0,0.0,0.0,0.0,0.0,0.0,0.0,0.0,0.0,0.0,0.0,0.0,0.0,0.0,0.0,0.0,0.0,0.0,0.0,0.0,0.0,0.0,0.0,0.0,0.0,0.0,0.0,0.0,0.0,0.0,0.0,0.0,0.0,0.0,0.0,0.0,0.0,0.0,0.0]}]]]